<?xml version="1.0" encoding="UTF-8" standalone="no" ?>
<gpx xmlns="http://www.topografix.com/GPX/1/1" xmlns:xsi="http://www.w3.org/2001/XMLSchema-instance" xsi:schemaLocation="http://www.topografix.com/GPX/1/1 http://www.topografix.com/GPX/1/1/gpx.xsd" version="1.1" creator="VisuGPX - https://www.visugpx.com">
  <metadata>
    <name>VTT/AE depart selonnet</name>
    <desc><![CDATA[Projet 3 circuits sympas]]></desc>
  </metadata>
  <trk>
    <name><![CDATA[Tour de la blanche nouveau]]></name>
    <trkseg>
      <trkpt lat="44.37142" lon="6.31251">
        <ele>1071</ele>
        <time>2018-08-23T08:07:14Z</time>
      </trkpt>
      <trkpt lat="44.37142" lon="6.31251">
        <ele>1071</ele>
        <time>2018-08-23T08:07:15Z</time>
      </trkpt>
      <trkpt lat="44.37145" lon="6.31252">
        <ele>1071.4000244</ele>
        <time>2018-08-23T08:07:45Z</time>
      </trkpt>
      <trkpt lat="44.37144" lon="6.31249">
        <ele>1071.1999512</ele>
        <time>2018-08-23T08:08:20Z</time>
      </trkpt>
      <trkpt lat="44.37144" lon="6.31251">
        <ele>1071.5999756</ele>
        <time>2018-08-23T08:08:56Z</time>
      </trkpt>
      <trkpt lat="44.37147" lon="6.31248">
        <ele>1071.5999756</ele>
        <time>2018-08-23T08:08:59Z</time>
      </trkpt>
      <trkpt lat="44.37152" lon="6.31245">
        <ele>1071.5999756</ele>
        <time>2018-08-23T08:09:02Z</time>
      </trkpt>
      <trkpt lat="44.37155" lon="6.31245">
        <ele>1071.5999756</ele>
        <time>2018-08-23T08:09:03Z</time>
      </trkpt>
      <trkpt lat="44.37157" lon="6.31246">
        <ele>1071.5999756</ele>
        <time>2018-08-23T08:09:04Z</time>
      </trkpt>
      <trkpt lat="44.3716" lon="6.31247">
        <ele>1071.8000488</ele>
        <time>2018-08-23T08:09:05Z</time>
      </trkpt>
      <trkpt lat="44.37162" lon="6.31249">
        <ele>1071.8000488</ele>
        <time>2018-08-23T08:09:06Z</time>
      </trkpt>
      <trkpt lat="44.37164" lon="6.31251">
        <ele>1071.5999756</ele>
        <time>2018-08-23T08:09:07Z</time>
      </trkpt>
      <trkpt lat="44.37167" lon="6.31254">
        <ele>1071.5999756</ele>
        <time>2018-08-23T08:09:08Z</time>
      </trkpt>
      <trkpt lat="44.37168" lon="6.31257">
        <ele>1071.5999756</ele>
        <time>2018-08-23T08:09:09Z</time>
      </trkpt>
      <trkpt lat="44.37169" lon="6.31261">
        <ele>1071.8000488</ele>
        <time>2018-08-23T08:09:10Z</time>
      </trkpt>
      <trkpt lat="44.37169" lon="6.31265">
        <ele>1071.8000488</ele>
        <time>2018-08-23T08:09:11Z</time>
      </trkpt>
      <trkpt lat="44.3717" lon="6.31269">
        <ele>1071.8000488</ele>
        <time>2018-08-23T08:09:12Z</time>
      </trkpt>
      <trkpt lat="44.37169" lon="6.31299">
        <ele>1072</ele>
        <time>2018-08-23T08:09:21Z</time>
      </trkpt>
      <trkpt lat="44.37167" lon="6.31301">
        <ele>1072</ele>
        <time>2018-08-23T08:09:22Z</time>
      </trkpt>
      <trkpt lat="44.37165" lon="6.31303">
        <ele>1072</ele>
        <time>2018-08-23T08:09:23Z</time>
      </trkpt>
      <trkpt lat="44.37163" lon="6.31304">
        <ele>1072</ele>
        <time>2018-08-23T08:09:24Z</time>
      </trkpt>
      <trkpt lat="44.37161" lon="6.31306">
        <ele>1072</ele>
        <time>2018-08-23T08:09:25Z</time>
      </trkpt>
      <trkpt lat="44.37126" lon="6.31326">
        <ele>1073.5999756</ele>
        <time>2018-08-23T08:09:40Z</time>
      </trkpt>
      <trkpt lat="44.37103" lon="6.31362">
        <ele>1076.4000244</ele>
        <time>2018-08-23T08:09:54Z</time>
      </trkpt>
      <trkpt lat="44.37093" lon="6.314">
        <ele>1077.4000244</ele>
        <time>2018-08-23T08:10:05Z</time>
      </trkpt>
      <trkpt lat="44.37096" lon="6.31455">
        <ele>1079.4000244</ele>
        <time>2018-08-23T08:10:23Z</time>
      </trkpt>
      <trkpt lat="44.37111" lon="6.31507">
        <ele>1081.8000488</ele>
        <time>2018-08-23T08:10:42Z</time>
      </trkpt>
      <trkpt lat="44.37127" lon="6.31562">
        <ele>1083</ele>
        <time>2018-08-23T08:11:00Z</time>
      </trkpt>
      <trkpt lat="44.37142" lon="6.31625">
        <ele>1084.8000488</ele>
        <time>2018-08-23T08:11:21Z</time>
      </trkpt>
      <trkpt lat="44.37154" lon="6.31665">
        <ele>1085.5999756</ele>
        <time>2018-08-23T08:11:34Z</time>
      </trkpt>
      <trkpt lat="44.37184" lon="6.31732">
        <ele>1087.1999512</ele>
        <time>2018-08-23T08:11:58Z</time>
      </trkpt>
      <trkpt lat="44.37215" lon="6.31783">
        <ele>1088</ele>
        <time>2018-08-23T08:12:15Z</time>
      </trkpt>
      <trkpt lat="44.37255" lon="6.31857">
        <ele>1089</ele>
        <time>2018-08-23T08:12:38Z</time>
      </trkpt>
      <trkpt lat="44.37302" lon="6.3193">
        <ele>1091.1999512</ele>
        <time>2018-08-23T08:13:04Z</time>
      </trkpt>
      <trkpt lat="44.37348" lon="6.31981">
        <ele>1093.1999512</ele>
        <time>2018-08-23T08:13:25Z</time>
      </trkpt>
      <trkpt lat="44.37393" lon="6.32035">
        <ele>1094.1999512</ele>
        <time>2018-08-23T08:13:44Z</time>
      </trkpt>
      <trkpt lat="44.37451" lon="6.32102">
        <ele>1094.5999756</ele>
        <time>2018-08-23T08:14:06Z</time>
      </trkpt>
      <trkpt lat="44.375" lon="6.32182">
        <ele>1094.8000488</ele>
        <time>2018-08-23T08:14:27Z</time>
      </trkpt>
      <trkpt lat="44.37541" lon="6.32284">
        <ele>1095.4000244</ele>
        <time>2018-08-23T08:14:50Z</time>
      </trkpt>
      <trkpt lat="44.37569" lon="6.32343">
        <ele>1095.8000488</ele>
        <time>2018-08-23T08:15:05Z</time>
      </trkpt>
      <trkpt lat="44.37614" lon="6.32428">
        <ele>1096.1999512</ele>
        <time>2018-08-23T08:15:25Z</time>
      </trkpt>
      <trkpt lat="44.37658" lon="6.32489">
        <ele>1095.8000488</ele>
        <time>2018-08-23T08:15:42Z</time>
      </trkpt>
      <trkpt lat="44.37712" lon="6.32566">
        <ele>1096.4000244</ele>
        <time>2018-08-23T08:16:04Z</time>
      </trkpt>
      <trkpt lat="44.37765" lon="6.32641">
        <ele>1097.4000244</ele>
        <time>2018-08-23T08:16:26Z</time>
      </trkpt>
      <trkpt lat="44.37824" lon="6.32691">
        <ele>1098</ele>
        <time>2018-08-23T08:16:46Z</time>
      </trkpt>
      <trkpt lat="44.37884" lon="6.32707">
        <ele>1098.5999756</ele>
        <time>2018-08-23T08:17:02Z</time>
      </trkpt>
      <trkpt lat="44.37965" lon="6.32705">
        <ele>1099.4000244</ele>
        <time>2018-08-23T08:17:25Z</time>
      </trkpt>
      <trkpt lat="44.37994" lon="6.3273">
        <ele>1100.1999512</ele>
        <time>2018-08-23T08:17:37Z</time>
      </trkpt>
      <trkpt lat="44.38022" lon="6.32781">
        <ele>1101</ele>
        <time>2018-08-23T08:17:51Z</time>
      </trkpt>
      <trkpt lat="44.38074" lon="6.32823">
        <ele>1102.1999512</ele>
        <time>2018-08-23T08:18:09Z</time>
      </trkpt>
      <trkpt lat="44.38104" lon="6.32876">
        <ele>1103.1999512</ele>
        <time>2018-08-23T08:18:26Z</time>
      </trkpt>
      <trkpt lat="44.38138" lon="6.32893">
        <ele>1105.4000244</ele>
        <time>2018-08-23T08:18:40Z</time>
      </trkpt>
      <trkpt lat="44.38186" lon="6.32911">
        <ele>1107.1999512</ele>
        <time>2018-08-23T08:18:58Z</time>
      </trkpt>
      <trkpt lat="44.38225" lon="6.32933">
        <ele>1107.8000488</ele>
        <time>2018-08-23T08:19:13Z</time>
      </trkpt>
      <trkpt lat="44.38256" lon="6.32971">
        <ele>1108.8000488</ele>
        <time>2018-08-23T08:19:30Z</time>
      </trkpt>
      <trkpt lat="44.3829" lon="6.33009">
        <ele>1110.4000244</ele>
        <time>2018-08-23T08:19:52Z</time>
      </trkpt>
      <trkpt lat="44.38309" lon="6.33032">
        <ele>1112.8000488</ele>
        <time>2018-08-23T08:20:06Z</time>
      </trkpt>
      <trkpt lat="44.38329" lon="6.33067">
        <ele>1116</ele>
        <time>2018-08-23T08:20:23Z</time>
      </trkpt>
      <trkpt lat="44.38344" lon="6.33103">
        <ele>1117.5999756</ele>
        <time>2018-08-23T08:20:39Z</time>
      </trkpt>
      <trkpt lat="44.38347" lon="6.33127">
        <ele>1118</ele>
        <time>2018-08-23T08:20:48Z</time>
      </trkpt>
      <trkpt lat="44.38347" lon="6.3313">
        <ele>1118</ele>
        <time>2018-08-23T08:20:49Z</time>
      </trkpt>
      <trkpt lat="44.38346" lon="6.33132">
        <ele>1118</ele>
        <time>2018-08-23T08:20:50Z</time>
      </trkpt>
      <trkpt lat="44.38345" lon="6.33133">
        <ele>1118</ele>
        <time>2018-08-23T08:20:51Z</time>
      </trkpt>
      <trkpt lat="44.38345" lon="6.33135">
        <ele>1118</ele>
        <time>2018-08-23T08:20:52Z</time>
      </trkpt>
      <trkpt lat="44.38344" lon="6.33139">
        <ele>1118.1999512</ele>
        <time>2018-08-23T08:21:13Z</time>
      </trkpt>
      <trkpt lat="44.38346" lon="6.3314">
        <ele>1118</ele>
        <time>2018-08-23T08:22:08Z</time>
      </trkpt>
      <trkpt lat="44.38346" lon="6.33137">
        <ele>1118</ele>
        <time>2018-08-23T08:22:10Z</time>
      </trkpt>
      <trkpt lat="44.38332" lon="6.33096">
        <ele>1117.8000488</ele>
        <time>2018-08-23T08:22:23Z</time>
      </trkpt>
      <trkpt lat="44.38326" lon="6.33082">
        <ele>1117.8000488</ele>
        <time>2018-08-23T08:22:26Z</time>
      </trkpt>
      <trkpt lat="44.38295" lon="6.33035">
        <ele>1115.5999756</ele>
        <time>2018-08-23T08:22:40Z</time>
      </trkpt>
      <trkpt lat="44.38295" lon="6.33037">
        <ele>1112.8000488</ele>
        <time>2018-08-23T08:22:55Z</time>
      </trkpt>
      <trkpt lat="44.38262" lon="6.33087">
        <ele>1112.5999756</ele>
        <time>2018-08-23T08:23:29Z</time>
      </trkpt>
      <trkpt lat="44.38249" lon="6.33095">
        <ele>1112.4000244</ele>
        <time>2018-08-23T08:23:32Z</time>
      </trkpt>
      <trkpt lat="44.38148" lon="6.33182">
        <ele>1112.8000488</ele>
        <time>2018-08-23T08:24:04Z</time>
      </trkpt>
      <trkpt lat="44.38094" lon="6.33239">
        <ele>1113.5999756</ele>
        <time>2018-08-23T08:24:24Z</time>
      </trkpt>
      <trkpt lat="44.38044" lon="6.33284">
        <ele>1114</ele>
        <time>2018-08-23T08:24:42Z</time>
      </trkpt>
      <trkpt lat="44.38018" lon="6.33296">
        <ele>1114</ele>
        <time>2018-08-23T08:24:55Z</time>
      </trkpt>
      <trkpt lat="44.38014" lon="6.33297">
        <ele>1114</ele>
        <time>2018-08-23T08:24:57Z</time>
      </trkpt>
      <trkpt lat="44.38007" lon="6.33298">
        <ele>1113.8000488</ele>
        <time>2018-08-23T08:25:00Z</time>
      </trkpt>
      <trkpt lat="44.37983" lon="6.33319">
        <ele>1114</ele>
        <time>2018-08-23T08:25:11Z</time>
      </trkpt>
      <trkpt lat="44.3798" lon="6.33321">
        <ele>1114</ele>
        <time>2018-08-23T08:25:12Z</time>
      </trkpt>
      <trkpt lat="44.37978" lon="6.33323">
        <ele>1114</ele>
        <time>2018-08-23T08:25:13Z</time>
      </trkpt>
      <trkpt lat="44.37976" lon="6.33324">
        <ele>1114.1999512</ele>
        <time>2018-08-23T08:25:14Z</time>
      </trkpt>
      <trkpt lat="44.37973" lon="6.33324">
        <ele>1114.1999512</ele>
        <time>2018-08-23T08:25:15Z</time>
      </trkpt>
      <trkpt lat="44.3797" lon="6.33326">
        <ele>1114.1999512</ele>
        <time>2018-08-23T08:25:16Z</time>
      </trkpt>
      <trkpt lat="44.37929" lon="6.3335">
        <ele>1115.5999756</ele>
        <time>2018-08-23T08:25:34Z</time>
      </trkpt>
      <trkpt lat="44.37919" lon="6.33354">
        <ele>1116</ele>
        <time>2018-08-23T08:25:40Z</time>
      </trkpt>
      <trkpt lat="44.37871" lon="6.33345">
        <ele>1118</ele>
        <time>2018-08-23T08:25:59Z</time>
      </trkpt>
      <trkpt lat="44.37869" lon="6.33345">
        <ele>1118</ele>
        <time>2018-08-23T08:26:00Z</time>
      </trkpt>
      <trkpt lat="44.37842" lon="6.33355">
        <ele>1121.1999512</ele>
        <time>2018-08-23T08:26:12Z</time>
      </trkpt>
      <trkpt lat="44.37831" lon="6.33366">
        <ele>1124.1999512</ele>
        <time>2018-08-23T08:26:19Z</time>
      </trkpt>
      <trkpt lat="44.37818" lon="6.33371">
        <ele>1127.4000244</ele>
        <time>2018-08-23T08:26:28Z</time>
      </trkpt>
      <trkpt lat="44.37803" lon="6.3338">
        <ele>1130.5999756</ele>
        <time>2018-08-23T08:26:37Z</time>
      </trkpt>
      <trkpt lat="44.37781" lon="6.3339">
        <ele>1133.5999756</ele>
        <time>2018-08-23T08:26:47Z</time>
      </trkpt>
      <trkpt lat="44.37757" lon="6.33404">
        <ele>1136.8000488</ele>
        <time>2018-08-23T08:26:58Z</time>
      </trkpt>
      <trkpt lat="44.37727" lon="6.33419">
        <ele>1140.1999512</ele>
        <time>2018-08-23T08:27:08Z</time>
      </trkpt>
      <trkpt lat="44.37719" lon="6.33441">
        <ele>1143.1999512</ele>
        <time>2018-08-23T08:27:16Z</time>
      </trkpt>
      <trkpt lat="44.37709" lon="6.33462">
        <ele>1146.5999756</ele>
        <time>2018-08-23T08:27:26Z</time>
      </trkpt>
      <trkpt lat="44.37693" lon="6.33483">
        <ele>1149.5999756</ele>
        <time>2018-08-23T08:27:37Z</time>
      </trkpt>
      <trkpt lat="44.37692" lon="6.33485">
        <ele>1150</ele>
        <time>2018-08-23T08:27:38Z</time>
      </trkpt>
      <trkpt lat="44.37691" lon="6.33488">
        <ele>1150.4000244</ele>
        <time>2018-08-23T08:27:39Z</time>
      </trkpt>
      <trkpt lat="44.37689" lon="6.3349">
        <ele>1150.5999756</ele>
        <time>2018-08-23T08:27:40Z</time>
      </trkpt>
      <trkpt lat="44.37689" lon="6.33492">
        <ele>1151</ele>
        <time>2018-08-23T08:27:41Z</time>
      </trkpt>
      <trkpt lat="44.37688" lon="6.33495">
        <ele>1151.4000244</ele>
        <time>2018-08-23T08:27:42Z</time>
      </trkpt>
      <trkpt lat="44.37687" lon="6.33497">
        <ele>1151.5999756</ele>
        <time>2018-08-23T08:27:43Z</time>
      </trkpt>
      <trkpt lat="44.37685" lon="6.33499">
        <ele>1151.8000488</ele>
        <time>2018-08-23T08:27:44Z</time>
      </trkpt>
      <trkpt lat="44.37677" lon="6.33533">
        <ele>1155</ele>
        <time>2018-08-23T08:27:56Z</time>
      </trkpt>
      <trkpt lat="44.37672" lon="6.33577">
        <ele>1158.1999512</ele>
        <time>2018-08-23T08:28:11Z</time>
      </trkpt>
      <trkpt lat="44.37654" lon="6.33602">
        <ele>1161.4000244</ele>
        <time>2018-08-23T08:28:23Z</time>
      </trkpt>
      <trkpt lat="44.37635" lon="6.33628">
        <ele>1164.4000244</ele>
        <time>2018-08-23T08:28:34Z</time>
      </trkpt>
      <trkpt lat="44.37631" lon="6.33631">
        <ele>1165</ele>
        <time>2018-08-23T08:28:36Z</time>
      </trkpt>
      <trkpt lat="44.37629" lon="6.33633">
        <ele>1165.4000244</ele>
        <time>2018-08-23T08:28:37Z</time>
      </trkpt>
      <trkpt lat="44.37627" lon="6.33635">
        <ele>1165.8000488</ele>
        <time>2018-08-23T08:28:38Z</time>
      </trkpt>
      <trkpt lat="44.37626" lon="6.33638">
        <ele>1166</ele>
        <time>2018-08-23T08:28:39Z</time>
      </trkpt>
      <trkpt lat="44.37625" lon="6.3364">
        <ele>1166.1999512</ele>
        <time>2018-08-23T08:28:40Z</time>
      </trkpt>
      <trkpt lat="44.37613" lon="6.33668">
        <ele>1169.1999512</ele>
        <time>2018-08-23T08:28:50Z</time>
      </trkpt>
      <trkpt lat="44.37605" lon="6.33682">
        <ele>1170.4000244</ele>
        <time>2018-08-23T08:28:59Z</time>
      </trkpt>
      <trkpt lat="44.37583" lon="6.33703">
        <ele>1173.5999756</ele>
        <time>2018-08-23T08:29:15Z</time>
      </trkpt>
      <trkpt lat="44.37555" lon="6.33726">
        <ele>1176.5999756</ele>
        <time>2018-08-23T08:29:30Z</time>
      </trkpt>
      <trkpt lat="44.37556" lon="6.33727">
        <ele>1177.4000244</ele>
        <time>2018-08-23T08:29:31Z</time>
      </trkpt>
      <trkpt lat="44.37554" lon="6.33734">
        <ele>1178.5999756</ele>
        <time>2018-08-23T08:29:35Z</time>
      </trkpt>
      <trkpt lat="44.37555" lon="6.33741">
        <ele>1181.5999756</ele>
        <time>2018-08-23T08:29:45Z</time>
      </trkpt>
      <trkpt lat="44.37555" lon="6.33743">
        <ele>1181.8000488</ele>
        <time>2018-08-23T08:29:46Z</time>
      </trkpt>
      <trkpt lat="44.37543" lon="6.33764">
        <ele>1183.4000244</ele>
        <time>2018-08-23T08:30:04Z</time>
      </trkpt>
      <trkpt lat="44.37552" lon="6.33772">
        <ele>1183.4000244</ele>
        <time>2018-08-23T08:30:20Z</time>
      </trkpt>
      <trkpt lat="44.37553" lon="6.33773">
        <ele>1183.4000244</ele>
        <time>2018-08-23T08:30:21Z</time>
      </trkpt>
      <trkpt lat="44.37557" lon="6.3378">
        <ele>1183.4000244</ele>
        <time>2018-08-23T08:30:30Z</time>
      </trkpt>
      <trkpt lat="44.37551" lon="6.33766">
        <ele>1183.1999512</ele>
        <time>2018-08-23T08:30:42Z</time>
      </trkpt>
      <trkpt lat="44.37541" lon="6.33767">
        <ele>1183.4000244</ele>
        <time>2018-08-23T08:31:15Z</time>
      </trkpt>
      <trkpt lat="44.37524" lon="6.3377">
        <ele>1186.5999756</ele>
        <time>2018-08-23T08:31:25Z</time>
      </trkpt>
      <trkpt lat="44.37507" lon="6.33772">
        <ele>1189.8000488</ele>
        <time>2018-08-23T08:31:34Z</time>
      </trkpt>
      <trkpt lat="44.37505" lon="6.33772">
        <ele>1190.8000488</ele>
        <time>2018-08-23T08:31:36Z</time>
      </trkpt>
      <trkpt lat="44.37493" lon="6.33776">
        <ele>1193.1999512</ele>
        <time>2018-08-23T08:31:45Z</time>
      </trkpt>
      <trkpt lat="44.37487" lon="6.33774">
        <ele>1194.8000488</ele>
        <time>2018-08-23T08:31:51Z</time>
      </trkpt>
      <trkpt lat="44.3747" lon="6.33771">
        <ele>1198</ele>
        <time>2018-08-23T08:32:00Z</time>
      </trkpt>
      <trkpt lat="44.37456" lon="6.33761">
        <ele>1199.4000244</ele>
        <time>2018-08-23T08:32:05Z</time>
      </trkpt>
      <trkpt lat="44.37419" lon="6.3375">
        <ele>1200.8000488</ele>
        <time>2018-08-23T08:32:44Z</time>
      </trkpt>
      <trkpt lat="44.37419" lon="6.33752">
        <ele>1200.5999756</ele>
        <time>2018-08-23T08:33:05Z</time>
      </trkpt>
      <trkpt lat="44.374" lon="6.33751">
        <ele>1201.8164063</ele>
      </trkpt>
      <trkpt lat="44.37373" lon="6.33745">
        <ele>1204.609375</ele>
      </trkpt>
      <trkpt lat="44.3735" lon="6.33734">
        <ele>1204.4414063</ele>
      </trkpt>
      <trkpt lat="44.37328" lon="6.33745">
        <ele>1209.4335938</ele>
      </trkpt>
      <trkpt lat="44.37305" lon="6.33767">
        <ele>1217.4804688</ele>
      </trkpt>
      <trkpt lat="44.37283" lon="6.33778">
        <ele>1220.7148438</ele>
      </trkpt>
      <trkpt lat="44.37256" lon="6.33778">
        <ele>1219.2890625</ele>
      </trkpt>
      <trkpt lat="44.37234" lon="6.33789">
        <ele>1221.4882813</ele>
      </trkpt>
      <trkpt lat="44.37207" lon="6.33794">
        <ele>1222.2929688</ele>
      </trkpt>
      <trkpt lat="44.3718" lon="6.338">
        <ele>1223.1601563</ele>
      </trkpt>
      <trkpt lat="44.3718" lon="6.338">
        <ele>1223.1601563</ele>
      </trkpt>
      <trkpt lat="44.37153" lon="6.338">
        <ele>1222.6054688</ele>
      </trkpt>
      <trkpt lat="44.37126" lon="6.338">
        <ele>1222.6054688</ele>
      </trkpt>
      <trkpt lat="44.37099" lon="6.33805">
        <ele>1224.3125</ele>
      </trkpt>
      <trkpt lat="44.37072" lon="6.33811">
        <ele>1226.9296875</ele>
      </trkpt>
      <trkpt lat="44.37045" lon="6.33805">
        <ele>1227.5625</ele>
      </trkpt>
      <trkpt lat="44.37018" lon="6.338">
        <ele>1229.296875</ele>
      </trkpt>
      <trkpt lat="44.36991" lon="6.33794">
        <ele>1231.5117188</ele>
      </trkpt>
      <trkpt lat="44.36969" lon="6.33778">
        <ele>1231.7851563</ele>
      </trkpt>
      <trkpt lat="44.36951" lon="6.33762">
        <ele>1230.9570313</ele>
      </trkpt>
      <trkpt lat="44.36969" lon="6.33784">
        <ele>1232.7734375</ele>
      </trkpt>
      <trkpt lat="44.36982" lon="6.33811">
        <ele>1235.8671875</ele>
      </trkpt>
      <trkpt lat="44.36996" lon="6.33833">
        <ele>1238.828125</ele>
      </trkpt>
      <trkpt lat="44.37014" lon="6.3386">
        <ele>1243.6835938</ele>
      </trkpt>
      <trkpt lat="44.37031" lon="6.33888">
        <ele>1251.2890625</ele>
      </trkpt>
      <trkpt lat="44.37054" lon="6.33899">
        <ele>1255.0742188</ele>
      </trkpt>
      <trkpt lat="44.37081" lon="6.33899">
        <ele>1255.25</ele>
      </trkpt>
      <trkpt lat="44.37108" lon="6.33899">
        <ele>1256.0234375</ele>
      </trkpt>
      <trkpt lat="44.37135" lon="6.33899">
        <ele>1256.9960938</ele>
      </trkpt>
      <trkpt lat="44.37162" lon="6.33893">
        <ele>1255.640625</ele>
      </trkpt>
      <trkpt lat="44.37189" lon="6.33882">
        <ele>1251.8320313</ele>
      </trkpt>
      <trkpt lat="44.37211" lon="6.33871">
        <ele>1248.8632813</ele>
      </trkpt>
      <trkpt lat="44.37238" lon="6.33871">
        <ele>1251.4101563</ele>
      </trkpt>
      <trkpt lat="44.37265" lon="6.33866">
        <ele>1251.4492188</ele>
      </trkpt>
      <trkpt lat="44.37292" lon="6.33866">
        <ele>1252.5507813</ele>
      </trkpt>
      <trkpt lat="44.37319" lon="6.3386">
        <ele>1250.0234375</ele>
      </trkpt>
      <trkpt lat="44.37346" lon="6.33855">
        <ele>1245.734375</ele>
      </trkpt>
      <trkpt lat="44.37373" lon="6.33855">
        <ele>1242.3125</ele>
      </trkpt>
      <trkpt lat="44.374" lon="6.33855">
        <ele>1235.1210938</ele>
      </trkpt>
      <trkpt lat="44.37418" lon="6.33877">
        <ele>1235.1171875</ele>
      </trkpt>
      <trkpt lat="44.37431" lon="6.33899">
        <ele>1235.09375</ele>
      </trkpt>
      <trkpt lat="44.3744" lon="6.33932">
        <ele>1235.5195313</ele>
      </trkpt>
      <trkpt lat="44.37445" lon="6.33964">
        <ele>1236.6132813</ele>
      </trkpt>
      <trkpt lat="44.37445" lon="6.34003">
        <ele>1238.2382813</ele>
      </trkpt>
      <trkpt lat="44.37436" lon="6.34041">
        <ele>1241.4296875</ele>
      </trkpt>
      <trkpt lat="44.37418" lon="6.3408">
        <ele>1246.8007813</ele>
      </trkpt>
      <trkpt lat="44.37404" lon="6.34113">
        <ele>1250.0664063</ele>
      </trkpt>
      <trkpt lat="44.37382" lon="6.34129">
        <ele>1256.203125</ele>
      </trkpt>
      <trkpt lat="44.37364" lon="6.34145">
        <ele>1261.6171875</ele>
      </trkpt>
      <trkpt lat="44.37346" lon="6.34167">
        <ele>1267.0234375</ele>
      </trkpt>
      <trkpt lat="44.37332" lon="6.34195">
        <ele>1270.4023438</ele>
      </trkpt>
      <trkpt lat="44.37323" lon="6.34222">
        <ele>1272.328125</ele>
      </trkpt>
      <trkpt lat="44.37301" lon="6.34244">
        <ele>1278.8164063</ele>
      </trkpt>
      <trkpt lat="44.37292" lon="6.34277">
        <ele>1279.640625</ele>
      </trkpt>
      <trkpt lat="44.37283" lon="6.34304">
        <ele>1280.5976563</ele>
      </trkpt>
      <trkpt lat="44.3727" lon="6.34337">
        <ele>1282.6835938</ele>
      </trkpt>
      <trkpt lat="44.37256" lon="6.34365">
        <ele>1286.0078125</ele>
      </trkpt>
      <trkpt lat="44.37256" lon="6.34326">
        <ele>1287.6015625</ele>
      </trkpt>
      <trkpt lat="44.37252" lon="6.34293">
        <ele>1290.9648438</ele>
      </trkpt>
      <trkpt lat="44.37252" lon="6.34255">
        <ele>1292.8242188</ele>
      </trkpt>
      <trkpt lat="44.37247" lon="6.34222">
        <ele>1296.1015625</ele>
      </trkpt>
      <trkpt lat="44.37225" lon="6.3425">
        <ele>1300.8320313</ele>
      </trkpt>
      <trkpt lat="44.37211" lon="6.34277">
        <ele>1303.6210938</ele>
      </trkpt>
      <trkpt lat="44.37198" lon="6.34304">
        <ele>1305.6367188</ele>
      </trkpt>
      <trkpt lat="44.37184" lon="6.34337">
        <ele>1307.2773438</ele>
      </trkpt>
      <trkpt lat="44.37175" lon="6.34365">
        <ele>1308.8789063</ele>
      </trkpt>
      <trkpt lat="44.37166" lon="6.34392">
        <ele>1310.4882813</ele>
      </trkpt>
      <trkpt lat="44.37153" lon="6.3442">
        <ele>1313.3945313</ele>
      </trkpt>
      <trkpt lat="44.37144" lon="6.34452">
        <ele>1315.3828125</ele>
      </trkpt>
      <trkpt lat="44.37139" lon="6.34496">
        <ele>1315.7617188</ele>
      </trkpt>
      <trkpt lat="44.37135" lon="6.34535">
        <ele>1315.40625</ele>
      </trkpt>
      <trkpt lat="44.37112" lon="6.34557">
        <ele>1321.0898438</ele>
      </trkpt>
      <trkpt lat="44.37099" lon="6.3459">
        <ele>1323.4257813</ele>
      </trkpt>
      <trkpt lat="44.37085" lon="6.34628">
        <ele>1324.3671875</ele>
      </trkpt>
      <trkpt lat="44.37076" lon="6.34666">
        <ele>1323.734375</ele>
      </trkpt>
      <trkpt lat="44.37058" lon="6.34688">
        <ele>1326.4375</ele>
      </trkpt>
      <trkpt lat="44.3704" lon="6.34727">
        <ele>1327.15625</ele>
      </trkpt>
      <trkpt lat="44.37027" lon="6.34754">
        <ele>1328.0234375</ele>
      </trkpt>
      <trkpt lat="44.37022" lon="6.34787">
        <ele>1325.4375</ele>
      </trkpt>
      <trkpt lat="44.37009" lon="6.34814">
        <ele>1325.8984375</ele>
      </trkpt>
      <trkpt lat="44.36996" lon="6.34847">
        <ele>1325.6757813</ele>
      </trkpt>
      <trkpt lat="44.36987" lon="6.34886">
        <ele>1323.5390625</ele>
      </trkpt>
      <trkpt lat="44.3696" lon="6.34902">
        <ele>1327.0546875</ele>
      </trkpt>
      <trkpt lat="44.36942" lon="6.34924">
        <ele>1327.2773438</ele>
      </trkpt>
      <trkpt lat="44.36924" lon="6.3494">
        <ele>1329.1132813</ele>
      </trkpt>
      <trkpt lat="44.36901" lon="6.34957">
        <ele>1331.8085938</ele>
      </trkpt>
      <trkpt lat="44.36883" lon="6.34973">
        <ele>1332.6210938</ele>
      </trkpt>
      <trkpt lat="44.36861" lon="6.34995">
        <ele>1333.6523438</ele>
      </trkpt>
      <trkpt lat="44.36847" lon="6.35023">
        <ele>1332.4648438</ele>
      </trkpt>
      <trkpt lat="44.36825" lon="6.35045">
        <ele>1333.8671875</ele>
      </trkpt>
      <trkpt lat="44.36807" lon="6.35072">
        <ele>1333.9570313</ele>
      </trkpt>
      <trkpt lat="44.36789" lon="6.35094">
        <ele>1334.1757813</ele>
      </trkpt>
      <trkpt lat="44.36775" lon="6.35121">
        <ele>1333.4570313</ele>
      </trkpt>
      <trkpt lat="44.36766" lon="6.3516">
        <ele>1331.9257813</ele>
      </trkpt>
      <trkpt lat="44.36753" lon="6.35187">
        <ele>1331.09375</ele>
      </trkpt>
      <trkpt lat="44.36731" lon="6.35209">
        <ele>1332.1445313</ele>
      </trkpt>
      <trkpt lat="44.36717" lon="6.35237">
        <ele>1331.5742188</ele>
      </trkpt>
      <trkpt lat="44.36699" lon="6.35264">
        <ele>1331.9765625</ele>
      </trkpt>
      <trkpt lat="44.36686" lon="6.35291">
        <ele>1331.7304688</ele>
      </trkpt>
      <trkpt lat="44.36672" lon="6.35319">
        <ele>1331.1210938</ele>
      </trkpt>
      <trkpt lat="44.36659" lon="6.35352">
        <ele>1330.09375</ele>
      </trkpt>
      <trkpt lat="44.36645" lon="6.3539">
        <ele>1328.8789063</ele>
      </trkpt>
      <trkpt lat="44.36645" lon="6.35396">
        <ele>1328.296875</ele>
      </trkpt>
      <trkpt lat="44.36636" lon="6.35428">
        <ele>1326.3984375</ele>
      </trkpt>
      <trkpt lat="44.36627" lon="6.35461">
        <ele>1324.6679688</ele>
      </trkpt>
      <trkpt lat="44.36618" lon="6.35494">
        <ele>1322.3984375</ele>
      </trkpt>
      <trkpt lat="44.36605" lon="6.35527">
        <ele>1320.9804688</ele>
      </trkpt>
      <trkpt lat="44.36587" lon="6.35555">
        <ele>1320.9257813</ele>
      </trkpt>
      <trkpt lat="44.36573" lon="6.35577">
        <ele>1320.0507813</ele>
      </trkpt>
      <trkpt lat="44.36564" lon="6.35604">
        <ele>1318.7421875</ele>
      </trkpt>
      <trkpt lat="44.36551" lon="6.35631">
        <ele>1318.2226563</ele>
      </trkpt>
      <trkpt lat="44.36542" lon="6.35664">
        <ele>1315.7890625</ele>
      </trkpt>
      <trkpt lat="44.36528" lon="6.35692">
        <ele>1314.640625</ele>
      </trkpt>
      <trkpt lat="44.36519" lon="6.35725">
        <ele>1311.9296875</ele>
      </trkpt>
      <trkpt lat="44.36501" lon="6.35746">
        <ele>1311.6328125</ele>
      </trkpt>
      <trkpt lat="44.36488" lon="6.35774">
        <ele>1310.5078125</ele>
      </trkpt>
      <trkpt lat="44.36475" lon="6.35801">
        <ele>1308.2226563</ele>
      </trkpt>
      <trkpt lat="44.36461" lon="6.35823">
        <ele>1306.9609375</ele>
      </trkpt>
      <trkpt lat="44.36448" lon="6.35845">
        <ele>1305.453125</ele>
      </trkpt>
      <trkpt lat="44.36425" lon="6.35862">
        <ele>1304.8710938</ele>
      </trkpt>
      <trkpt lat="44.36403" lon="6.35884">
        <ele>1304.1171875</ele>
      </trkpt>
      <trkpt lat="44.36394" lon="6.35916">
        <ele>1301.2109375</ele>
      </trkpt>
      <trkpt lat="44.36376" lon="6.35949">
        <ele>1299.0546875</ele>
      </trkpt>
      <trkpt lat="44.36358" lon="6.35966">
        <ele>1298.6015625</ele>
      </trkpt>
      <trkpt lat="44.36331" lon="6.35966">
        <ele>1300.4101563</ele>
      </trkpt>
      <trkpt lat="44.36308" lon="6.35982">
        <ele>1300.5585938</ele>
      </trkpt>
      <trkpt lat="44.3629" lon="6.3601">
        <ele>1299.8789063</ele>
      </trkpt>
      <trkpt lat="44.36277" lon="6.36037">
        <ele>1298.5859375</ele>
      </trkpt>
      <trkpt lat="44.36254" lon="6.36065">
        <ele>1297.7929688</ele>
      </trkpt>
      <trkpt lat="44.36232" lon="6.36086">
        <ele>1298.5546875</ele>
      </trkpt>
      <trkpt lat="44.36205" lon="6.36108">
        <ele>1298.9179688</ele>
      </trkpt>
      <trkpt lat="44.36178" lon="6.36114">
        <ele>1300.2304688</ele>
      </trkpt>
      <trkpt lat="44.36147" lon="6.36114">
        <ele>1301.78125</ele>
      </trkpt>
      <trkpt lat="44.36124" lon="6.36125">
        <ele>1303.0039063</ele>
      </trkpt>
      <trkpt lat="44.36102" lon="6.36136">
        <ele>1304.234375</ele>
      </trkpt>
      <trkpt lat="44.36079" lon="6.36147">
        <ele>1305.4492188</ele>
      </trkpt>
      <trkpt lat="44.36052" lon="6.36158">
        <ele>1306.4804688</ele>
      </trkpt>
      <trkpt lat="44.3603" lon="6.36169">
        <ele>1306.5976563</ele>
      </trkpt>
      <trkpt lat="44.36003" lon="6.36174">
        <ele>1307.3710938</ele>
      </trkpt>
      <trkpt lat="44.35976" lon="6.36185">
        <ele>1307.9453125</ele>
      </trkpt>
      <trkpt lat="44.35945" lon="6.36185">
        <ele>1309.078125</ele>
      </trkpt>
      <trkpt lat="44.35918" lon="6.36191">
        <ele>1309.8515625</ele>
      </trkpt>
      <trkpt lat="44.35904" lon="6.36191">
        <ele>1310.3632813</ele>
      </trkpt>
      <trkpt lat="44.35908" lon="6.36197">
        <ele>1310.5999756</ele>
        <time>2018-08-23T09:04:32Z</time>
      </trkpt>
      <trkpt lat="44.35893" lon="6.36199">
        <ele>1310.5999756</ele>
        <time>2018-08-23T09:05:21Z</time>
      </trkpt>
      <trkpt lat="44.35838" lon="6.36211">
        <ele>1312.4000244</ele>
        <time>2018-08-23T09:05:37Z</time>
      </trkpt>
      <trkpt lat="44.35796" lon="6.36253">
        <ele>1313.4000244</ele>
        <time>2018-08-23T09:05:52Z</time>
      </trkpt>
      <trkpt lat="44.35767" lon="6.36294">
        <ele>1314</ele>
        <time>2018-08-23T09:06:06Z</time>
      </trkpt>
      <trkpt lat="44.35736" lon="6.3635">
        <ele>1315</ele>
        <time>2018-08-23T09:06:23Z</time>
      </trkpt>
      <trkpt lat="44.35709" lon="6.36419">
        <ele>1315.4000244</ele>
        <time>2018-08-23T09:06:41Z</time>
      </trkpt>
      <trkpt lat="44.35678" lon="6.36456">
        <ele>1314.5999756</ele>
        <time>2018-08-23T09:06:55Z</time>
      </trkpt>
      <trkpt lat="44.3568" lon="6.36478">
        <ele>1314.5999756</ele>
        <time>2018-08-23T09:07:04Z</time>
      </trkpt>
      <trkpt lat="44.35677" lon="6.36479">
        <ele>1314.8000488</ele>
        <time>2018-08-23T09:07:12Z</time>
      </trkpt>
      <trkpt lat="44.35676" lon="6.36485">
        <ele>1315.5999756</ele>
        <time>2018-08-23T09:07:58Z</time>
      </trkpt>
      <trkpt lat="44.35678" lon="6.36486">
        <ele>1316</ele>
        <time>2018-08-23T09:08:14Z</time>
      </trkpt>
      <trkpt lat="44.35685" lon="6.36489">
        <ele>1316.4000244</ele>
        <time>2018-08-23T09:08:22Z</time>
      </trkpt>
      <trkpt lat="44.35694" lon="6.36494">
        <ele>1316.4000244</ele>
        <time>2018-08-23T09:08:25Z</time>
      </trkpt>
      <trkpt lat="44.35753" lon="6.36518">
        <ele>1317.5999756</ele>
        <time>2018-08-23T09:08:42Z</time>
      </trkpt>
      <trkpt lat="44.35803" lon="6.36535">
        <ele>1318.4000244</ele>
        <time>2018-08-23T09:08:57Z</time>
      </trkpt>
      <trkpt lat="44.35864" lon="6.36543">
        <ele>1318.4000244</ele>
        <time>2018-08-23T09:09:13Z</time>
      </trkpt>
      <trkpt lat="44.35943" lon="6.36582">
        <ele>1316.4000244</ele>
        <time>2018-08-23T09:09:27Z</time>
      </trkpt>
      <trkpt lat="44.36022" lon="6.36607">
        <ele>1316.4000244</ele>
        <time>2018-08-23T09:09:44Z</time>
      </trkpt>
      <trkpt lat="44.36047" lon="6.36621">
        <ele>1316.4000244</ele>
        <time>2018-08-23T09:09:49Z</time>
      </trkpt>
      <trkpt lat="44.36121" lon="6.36655">
        <ele>1315.5999756</ele>
        <time>2018-08-23T09:10:05Z</time>
      </trkpt>
      <trkpt lat="44.36187" lon="6.36691">
        <ele>1315.5999756</ele>
        <time>2018-08-23T09:10:20Z</time>
      </trkpt>
      <trkpt lat="44.36253" lon="6.36736">
        <ele>1316.1999512</ele>
        <time>2018-08-23T09:10:38Z</time>
      </trkpt>
      <trkpt lat="44.36275" lon="6.36742">
        <ele>1316.1999512</ele>
        <time>2018-08-23T09:10:43Z</time>
      </trkpt>
      <trkpt lat="44.36366" lon="6.36755">
        <ele>1314.8000488</ele>
        <time>2018-08-23T09:10:59Z</time>
      </trkpt>
      <trkpt lat="44.36453" lon="6.36764">
        <ele>1312</ele>
        <time>2018-08-23T09:11:12Z</time>
      </trkpt>
      <trkpt lat="44.36503" lon="6.36785">
        <ele>1312.8000488</ele>
        <time>2018-08-23T09:11:27Z</time>
      </trkpt>
      <trkpt lat="44.36535" lon="6.36812">
        <ele>1315.8000488</ele>
        <time>2018-08-23T09:11:40Z</time>
      </trkpt>
      <trkpt lat="44.3657" lon="6.36829">
        <ele>1319</ele>
        <time>2018-08-23T09:11:51Z</time>
      </trkpt>
      <trkpt lat="44.366" lon="6.36841">
        <ele>1322.4000244</ele>
        <time>2018-08-23T09:12:02Z</time>
      </trkpt>
      <trkpt lat="44.36623" lon="6.36849">
        <ele>1325.4000244</ele>
        <time>2018-08-23T09:12:11Z</time>
      </trkpt>
      <trkpt lat="44.36649" lon="6.36869">
        <ele>1328.8000488</ele>
        <time>2018-08-23T09:12:23Z</time>
      </trkpt>
      <trkpt lat="44.36666" lon="6.36888">
        <ele>1331.8000488</ele>
        <time>2018-08-23T09:12:33Z</time>
      </trkpt>
      <trkpt lat="44.36681" lon="6.3692">
        <ele>1334.8000488</ele>
        <time>2018-08-23T09:12:44Z</time>
      </trkpt>
      <trkpt lat="44.36714" lon="6.36961">
        <ele>1338</ele>
        <time>2018-08-23T09:12:59Z</time>
      </trkpt>
      <trkpt lat="44.36744" lon="6.36971">
        <ele>1341</ele>
        <time>2018-08-23T09:13:09Z</time>
      </trkpt>
      <trkpt lat="44.36769" lon="6.36968">
        <ele>1344.1999512</ele>
        <time>2018-08-23T09:13:19Z</time>
      </trkpt>
      <trkpt lat="44.36779" lon="6.36963">
        <ele>1346</ele>
        <time>2018-08-23T09:13:23Z</time>
      </trkpt>
      <trkpt lat="44.36798" lon="6.36954">
        <ele>1349</ele>
        <time>2018-08-23T09:13:32Z</time>
      </trkpt>
      <trkpt lat="44.36817" lon="6.36947">
        <ele>1352.1999512</ele>
        <time>2018-08-23T09:13:41Z</time>
      </trkpt>
      <trkpt lat="44.36833" lon="6.3694">
        <ele>1355.4000244</ele>
        <time>2018-08-23T09:13:48Z</time>
      </trkpt>
      <trkpt lat="44.36838" lon="6.36939">
        <ele>1356.1999512</ele>
        <time>2018-08-23T09:13:50Z</time>
      </trkpt>
      <trkpt lat="44.36868" lon="6.36931">
        <ele>1359.4000244</ele>
        <time>2018-08-23T09:14:02Z</time>
      </trkpt>
      <trkpt lat="44.36894" lon="6.36921">
        <ele>1362.4000244</ele>
        <time>2018-08-23T09:14:14Z</time>
      </trkpt>
      <trkpt lat="44.36929" lon="6.36919">
        <ele>1365.5999756</ele>
        <time>2018-08-23T09:14:27Z</time>
      </trkpt>
      <trkpt lat="44.3697" lon="6.36913">
        <ele>1367</ele>
        <time>2018-08-23T09:14:43Z</time>
      </trkpt>
      <trkpt lat="44.37017" lon="6.36907">
        <ele>1368</ele>
        <time>2018-08-23T09:15:01Z</time>
      </trkpt>
      <trkpt lat="44.37055" lon="6.36902">
        <ele>1368.8000488</ele>
        <time>2018-08-23T09:15:16Z</time>
      </trkpt>
      <trkpt lat="44.37097" lon="6.36899">
        <ele>1370.4000244</ele>
        <time>2018-08-23T09:15:32Z</time>
      </trkpt>
      <trkpt lat="44.37142" lon="6.36899">
        <ele>1372</ele>
        <time>2018-08-23T09:15:49Z</time>
      </trkpt>
      <trkpt lat="44.37158" lon="6.36889">
        <ele>1372.4000244</ele>
        <time>2018-08-23T09:16:00Z</time>
      </trkpt>
      <trkpt lat="44.37161" lon="6.36892">
        <ele>1372.8000488</ele>
        <time>2018-08-23T09:16:36Z</time>
      </trkpt>
      <trkpt lat="44.37162" lon="6.36889">
        <ele>1372.8000488</ele>
        <time>2018-08-23T09:16:37Z</time>
      </trkpt>
      <trkpt lat="44.37164" lon="6.36887">
        <ele>1372.8000488</ele>
        <time>2018-08-23T09:16:38Z</time>
      </trkpt>
      <trkpt lat="44.37203" lon="6.36859">
        <ele>1373.5999756</ele>
        <time>2018-08-23T09:16:53Z</time>
      </trkpt>
      <trkpt lat="44.37244" lon="6.36828">
        <ele>1375.8000488</ele>
        <time>2018-08-23T09:17:11Z</time>
      </trkpt>
      <trkpt lat="44.37271" lon="6.36823">
        <ele>1378.1999512</ele>
        <time>2018-08-23T09:17:24Z</time>
      </trkpt>
      <trkpt lat="44.37305" lon="6.36826">
        <ele>1381.4000244</ele>
        <time>2018-08-23T09:17:41Z</time>
      </trkpt>
      <trkpt lat="44.37335" lon="6.36827">
        <ele>1384.4000244</ele>
        <time>2018-08-23T09:17:57Z</time>
      </trkpt>
      <trkpt lat="44.3737" lon="6.36821">
        <ele>1387</ele>
        <time>2018-08-23T09:18:14Z</time>
      </trkpt>
      <trkpt lat="44.37394" lon="6.36801">
        <ele>1388.4000244</ele>
        <time>2018-08-23T09:18:29Z</time>
      </trkpt>
      <trkpt lat="44.37424" lon="6.36787">
        <ele>1390.8000488</ele>
        <time>2018-08-23T09:18:46Z</time>
      </trkpt>
      <trkpt lat="44.37448" lon="6.36783">
        <ele>1394</ele>
        <time>2018-08-23T09:19:00Z</time>
      </trkpt>
      <trkpt lat="44.37475" lon="6.36767">
        <ele>1396.4000244</ele>
        <time>2018-08-23T09:19:16Z</time>
      </trkpt>
      <trkpt lat="44.37494" lon="6.36743">
        <ele>1398</ele>
        <time>2018-08-23T09:19:30Z</time>
      </trkpt>
      <trkpt lat="44.37513" lon="6.36709">
        <ele>1399.5999756</ele>
        <time>2018-08-23T09:19:47Z</time>
      </trkpt>
      <trkpt lat="44.37518" lon="6.36702">
        <ele>1400.1999512</ele>
        <time>2018-08-23T09:19:54Z</time>
      </trkpt>
      <trkpt lat="44.37527" lon="6.36699">
        <ele>1401</ele>
        <time>2018-08-23T09:20:36Z</time>
      </trkpt>
      <trkpt lat="44.37544" lon="6.36696">
        <ele>1401</ele>
        <time>2018-08-23T09:20:46Z</time>
      </trkpt>
      <trkpt lat="44.37547" lon="6.36697">
        <ele>1401</ele>
        <time>2018-08-23T09:20:47Z</time>
      </trkpt>
      <trkpt lat="44.37591" lon="6.36699">
        <ele>1401.8000488</ele>
        <time>2018-08-23T09:21:04Z</time>
      </trkpt>
      <trkpt lat="44.3761" lon="6.36697">
        <ele>1402.5999756</ele>
        <time>2018-08-23T09:21:14Z</time>
      </trkpt>
      <trkpt lat="44.37625" lon="6.36708">
        <ele>1403.5999756</ele>
        <time>2018-08-23T09:21:21Z</time>
      </trkpt>
      <trkpt lat="44.37643" lon="6.36717">
        <ele>1405</ele>
        <time>2018-08-23T09:21:30Z</time>
      </trkpt>
      <trkpt lat="44.37651" lon="6.3672">
        <ele>1405.5999756</ele>
        <time>2018-08-23T09:21:34Z</time>
      </trkpt>
      <trkpt lat="44.37679" lon="6.3673">
        <ele>1406.4000244</ele>
        <time>2018-08-23T09:21:48Z</time>
      </trkpt>
      <trkpt lat="44.37685" lon="6.36734">
        <ele>1406.5999756</ele>
        <time>2018-08-23T09:21:55Z</time>
      </trkpt>
      <trkpt lat="44.37698" lon="6.36739">
        <ele>1407</ele>
        <time>2018-08-23T09:22:46Z</time>
      </trkpt>
      <trkpt lat="44.37703" lon="6.36747">
        <ele>1407</ele>
        <time>2018-08-23T09:22:50Z</time>
      </trkpt>
      <trkpt lat="44.37711" lon="6.36755">
        <ele>1407</ele>
        <time>2018-08-23T09:22:54Z</time>
      </trkpt>
      <trkpt lat="44.37726" lon="6.36767">
        <ele>1408</ele>
        <time>2018-08-23T09:23:00Z</time>
      </trkpt>
      <trkpt lat="44.37729" lon="6.36769">
        <ele>1408.1999512</ele>
        <time>2018-08-23T09:23:01Z</time>
      </trkpt>
      <trkpt lat="44.37731" lon="6.36772">
        <ele>1408.4000244</ele>
        <time>2018-08-23T09:23:02Z</time>
      </trkpt>
      <trkpt lat="44.37758" lon="6.36793">
        <ele>1411.5999756</ele>
        <time>2018-08-23T09:23:12Z</time>
      </trkpt>
      <trkpt lat="44.3777" lon="6.36803">
        <ele>1413.5999756</ele>
        <time>2018-08-23T09:23:16Z</time>
      </trkpt>
      <trkpt lat="44.37795" lon="6.36831">
        <ele>1416.5999756</ele>
        <time>2018-08-23T09:23:29Z</time>
      </trkpt>
      <trkpt lat="44.37799" lon="6.36843">
        <ele>1417.8000488</ele>
        <time>2018-08-23T09:23:32Z</time>
      </trkpt>
      <trkpt lat="44.3781" lon="6.36871">
        <ele>1421</ele>
        <time>2018-08-23T09:23:42Z</time>
      </trkpt>
      <trkpt lat="44.37821" lon="6.36895">
        <ele>1424</ele>
        <time>2018-08-23T09:23:51Z</time>
      </trkpt>
      <trkpt lat="44.37834" lon="6.36931">
        <ele>1427</ele>
        <time>2018-08-23T09:24:02Z</time>
      </trkpt>
      <trkpt lat="44.37839" lon="6.36957">
        <ele>1430.1999512</ele>
        <time>2018-08-23T09:24:11Z</time>
      </trkpt>
      <trkpt lat="44.37837" lon="6.36979">
        <ele>1433.1999512</ele>
        <time>2018-08-23T09:24:22Z</time>
      </trkpt>
      <trkpt lat="44.37842" lon="6.37029">
        <ele>1436.1999512</ele>
        <time>2018-08-23T09:24:33Z</time>
      </trkpt>
      <trkpt lat="44.37853" lon="6.3706">
        <ele>1439.4000244</ele>
        <time>2018-08-23T09:24:45Z</time>
      </trkpt>
      <trkpt lat="44.37852" lon="6.37087">
        <ele>1442.4000244</ele>
        <time>2018-08-23T09:24:58Z</time>
      </trkpt>
      <trkpt lat="44.37851" lon="6.37104">
        <ele>1443.8000488</ele>
        <time>2018-08-23T09:25:03Z</time>
      </trkpt>
      <trkpt lat="44.37852" lon="6.37107">
        <ele>1444</ele>
        <time>2018-08-23T09:25:04Z</time>
      </trkpt>
      <trkpt lat="44.37851" lon="6.37111">
        <ele>1444.4000244</ele>
        <time>2018-08-23T09:25:05Z</time>
      </trkpt>
      <trkpt lat="44.3785" lon="6.37115">
        <ele>1444.5999756</ele>
        <time>2018-08-23T09:25:06Z</time>
      </trkpt>
      <trkpt lat="44.37848" lon="6.37118">
        <ele>1444.8000488</ele>
        <time>2018-08-23T09:25:07Z</time>
      </trkpt>
      <trkpt lat="44.37855" lon="6.37154">
        <ele>1448.1999512</ele>
        <time>2018-08-23T09:25:19Z</time>
      </trkpt>
      <trkpt lat="44.37861" lon="6.3716">
        <ele>1449.4000244</ele>
        <time>2018-08-23T09:25:22Z</time>
      </trkpt>
      <trkpt lat="44.37896" lon="6.37191">
        <ele>1452.4000244</ele>
        <time>2018-08-23T09:25:32Z</time>
      </trkpt>
      <trkpt lat="44.3792" lon="6.37201">
        <ele>1456.1999512</ele>
        <time>2018-08-23T09:25:43Z</time>
      </trkpt>
      <trkpt lat="44.37937" lon="6.37207">
        <ele>1459.1999512</ele>
        <time>2018-08-23T09:25:53Z</time>
      </trkpt>
      <trkpt lat="44.37957" lon="6.37213">
        <ele>1462.1999512</ele>
        <time>2018-08-23T09:26:03Z</time>
      </trkpt>
      <trkpt lat="44.3798" lon="6.37212">
        <ele>1465.4000244</ele>
        <time>2018-08-23T09:26:17Z</time>
      </trkpt>
      <trkpt lat="44.38003" lon="6.37228">
        <ele>1468.5999756</ele>
        <time>2018-08-23T09:26:31Z</time>
      </trkpt>
      <trkpt lat="44.38005" lon="6.37239">
        <ele>1471.5999756</ele>
        <time>2018-08-23T09:26:43Z</time>
      </trkpt>
      <trkpt lat="44.38012" lon="6.37245">
        <ele>1473.5999756</ele>
        <time>2018-08-23T09:26:51Z</time>
      </trkpt>
      <trkpt lat="44.38019" lon="6.3725">
        <ele>1474.8000488</ele>
        <time>2018-08-23T09:26:56Z</time>
      </trkpt>
      <trkpt lat="44.38025" lon="6.37251">
        <ele>1475.5999756</ele>
        <time>2018-08-23T09:27:01Z</time>
      </trkpt>
      <trkpt lat="44.38043" lon="6.37256">
        <ele>1478.4000244</ele>
        <time>2018-08-23T09:27:12Z</time>
      </trkpt>
      <trkpt lat="44.38045" lon="6.37256">
        <ele>1478.5999756</ele>
        <time>2018-08-23T09:27:13Z</time>
      </trkpt>
      <trkpt lat="44.38047" lon="6.37257">
        <ele>1478.8000488</ele>
        <time>2018-08-23T09:27:14Z</time>
      </trkpt>
      <trkpt lat="44.38052" lon="6.37258">
        <ele>1479.5999756</ele>
        <time>2018-08-23T09:27:17Z</time>
      </trkpt>
      <trkpt lat="44.38069" lon="6.37259">
        <ele>1481.1999512</ele>
        <time>2018-08-23T09:27:26Z</time>
      </trkpt>
      <trkpt lat="44.38071" lon="6.37259">
        <ele>1481.1999512</ele>
        <time>2018-08-23T09:27:27Z</time>
      </trkpt>
      <trkpt lat="44.38073" lon="6.37259">
        <ele>1481.4000244</ele>
        <time>2018-08-23T09:27:28Z</time>
      </trkpt>
      <trkpt lat="44.38092" lon="6.37242">
        <ele>1484</ele>
        <time>2018-08-23T09:27:38Z</time>
      </trkpt>
      <trkpt lat="44.38106" lon="6.37232">
        <ele>1485.5999756</ele>
        <time>2018-08-23T09:27:45Z</time>
      </trkpt>
      <trkpt lat="44.38109" lon="6.37232">
        <ele>1486.1999512</ele>
        <time>2018-08-23T09:27:49Z</time>
      </trkpt>
      <trkpt lat="44.38091" lon="6.37211">
        <ele>1486.5999756</ele>
        <time>2018-08-23T09:28:38Z</time>
      </trkpt>
      <trkpt lat="44.38088" lon="6.37209">
        <ele>1487</ele>
        <time>2018-08-23T09:29:00Z</time>
      </trkpt>
      <trkpt lat="44.38086" lon="6.37207">
        <ele>1486.8000488</ele>
        <time>2018-08-23T09:29:57Z</time>
      </trkpt>
      <trkpt lat="44.38086" lon="6.37207">
        <ele>1486.8000488</ele>
        <time>2018-08-23T09:31:05Z</time>
      </trkpt>
      <trkpt lat="44.3809" lon="6.37209">
        <ele>1487</ele>
        <time>2018-08-23T09:31:25Z</time>
      </trkpt>
      <trkpt lat="44.38094" lon="6.37207">
        <ele>1487.4000244</ele>
        <time>2018-08-23T09:32:06Z</time>
      </trkpt>
      <trkpt lat="44.38095" lon="6.37203">
        <ele>1487.5999756</ele>
        <time>2018-08-23T09:32:15Z</time>
      </trkpt>
      <trkpt lat="44.38101" lon="6.37199">
        <ele>1487.5999756</ele>
        <time>2018-08-23T09:32:18Z</time>
      </trkpt>
      <trkpt lat="44.38126" lon="6.37181">
        <ele>1489</ele>
        <time>2018-08-23T09:32:32Z</time>
      </trkpt>
      <trkpt lat="44.38157" lon="6.37157">
        <ele>1491.4000244</ele>
        <time>2018-08-23T09:32:49Z</time>
      </trkpt>
      <trkpt lat="44.38179" lon="6.37141">
        <ele>1492.8000488</ele>
        <time>2018-08-23T09:33:01Z</time>
      </trkpt>
      <trkpt lat="44.38201" lon="6.37127">
        <ele>1494.5999756</ele>
        <time>2018-08-23T09:33:13Z</time>
      </trkpt>
      <trkpt lat="44.38223" lon="6.37109">
        <ele>1496.1999512</ele>
        <time>2018-08-23T09:33:26Z</time>
      </trkpt>
      <trkpt lat="44.38259" lon="6.37084">
        <ele>1498.4000244</ele>
        <time>2018-08-23T09:33:45Z</time>
      </trkpt>
      <trkpt lat="44.38286" lon="6.37048">
        <ele>1500.1999512</ele>
        <time>2018-08-23T09:34:04Z</time>
      </trkpt>
      <trkpt lat="44.38303" lon="6.37015">
        <ele>1501.8000488</ele>
        <time>2018-08-23T09:34:18Z</time>
      </trkpt>
      <trkpt lat="44.3832" lon="6.36979">
        <ele>1504</ele>
        <time>2018-08-23T09:34:34Z</time>
      </trkpt>
      <trkpt lat="44.38336" lon="6.36955">
        <ele>1505.8000488</ele>
        <time>2018-08-23T09:34:46Z</time>
      </trkpt>
      <trkpt lat="44.3835" lon="6.36932">
        <ele>1507.1999512</ele>
        <time>2018-08-23T09:34:57Z</time>
      </trkpt>
      <trkpt lat="44.38369" lon="6.36893">
        <ele>1510.4000244</ele>
        <time>2018-08-23T09:35:14Z</time>
      </trkpt>
      <trkpt lat="44.38391" lon="6.36868">
        <ele>1513.4000244</ele>
        <time>2018-08-23T09:35:28Z</time>
      </trkpt>
      <trkpt lat="44.38412" lon="6.36845">
        <ele>1515.8000488</ele>
        <time>2018-08-23T09:35:43Z</time>
      </trkpt>
      <trkpt lat="44.38436" lon="6.36825">
        <ele>1517.1999512</ele>
        <time>2018-08-23T09:35:57Z</time>
      </trkpt>
      <trkpt lat="44.38458" lon="6.36801">
        <ele>1517.5999756</ele>
        <time>2018-08-23T09:36:07Z</time>
      </trkpt>
      <trkpt lat="44.38503" lon="6.36763">
        <ele>1516</ele>
        <time>2018-08-23T09:36:23Z</time>
      </trkpt>
      <trkpt lat="44.38526" lon="6.36726">
        <ele>1514</ele>
        <time>2018-08-23T09:36:35Z</time>
      </trkpt>
      <trkpt lat="44.38554" lon="6.36694">
        <ele>1514</ele>
        <time>2018-08-23T09:36:48Z</time>
      </trkpt>
      <trkpt lat="44.3858" lon="6.36671">
        <ele>1514</ele>
        <time>2018-08-23T09:37:01Z</time>
      </trkpt>
      <trkpt lat="44.38612" lon="6.36636">
        <ele>1514.5999756</ele>
        <time>2018-08-23T09:37:17Z</time>
      </trkpt>
      <trkpt lat="44.38621" lon="6.36628">
        <ele>1514.8000488</ele>
        <time>2018-08-23T09:37:22Z</time>
      </trkpt>
      <trkpt lat="44.38646" lon="6.366">
        <ele>1515.5999756</ele>
        <time>2018-08-23T09:37:35Z</time>
      </trkpt>
      <trkpt lat="44.38679" lon="6.36581">
        <ele>1516.5999756</ele>
        <time>2018-08-23T09:37:51Z</time>
      </trkpt>
      <trkpt lat="44.38706" lon="6.36543">
        <ele>1519.5999756</ele>
        <time>2018-08-23T09:38:08Z</time>
      </trkpt>
      <trkpt lat="44.38738" lon="6.36545">
        <ele>1520.1999512</ele>
        <time>2018-08-23T09:38:22Z</time>
      </trkpt>
      <trkpt lat="44.38768" lon="6.36554">
        <ele>1519</ele>
        <time>2018-08-23T09:38:36Z</time>
      </trkpt>
      <trkpt lat="44.38798" lon="6.36548">
        <ele>1520.5999756</ele>
        <time>2018-08-23T09:38:51Z</time>
      </trkpt>
      <trkpt lat="44.38826" lon="6.36533">
        <ele>1522.8000488</ele>
        <time>2018-08-23T09:39:06Z</time>
      </trkpt>
      <trkpt lat="44.38842" lon="6.36524">
        <ele>1524.8000488</ele>
        <time>2018-08-23T09:39:15Z</time>
      </trkpt>
      <trkpt lat="44.38844" lon="6.36524">
        <ele>1524.8000488</ele>
        <time>2018-08-23T09:39:16Z</time>
      </trkpt>
      <trkpt lat="44.38871" lon="6.36499">
        <ele>1526.4000244</ele>
        <time>2018-08-23T09:39:33Z</time>
      </trkpt>
      <trkpt lat="44.38894" lon="6.36485">
        <ele>1528</ele>
        <time>2018-08-23T09:39:47Z</time>
      </trkpt>
      <trkpt lat="44.38896" lon="6.36484">
        <ele>1528.1999512</ele>
        <time>2018-08-23T09:39:48Z</time>
      </trkpt>
      <trkpt lat="44.38897" lon="6.36484">
        <ele>1528.4000244</ele>
        <time>2018-08-23T09:39:49Z</time>
      </trkpt>
      <trkpt lat="44.38899" lon="6.36483">
        <ele>1528.5999756</ele>
        <time>2018-08-23T09:39:50Z</time>
      </trkpt>
      <trkpt lat="44.38902" lon="6.36483">
        <ele>1528.5999756</ele>
        <time>2018-08-23T09:39:51Z</time>
      </trkpt>
      <trkpt lat="44.38904" lon="6.36482">
        <ele>1528.8000488</ele>
        <time>2018-08-23T09:39:52Z</time>
      </trkpt>
      <trkpt lat="44.38906" lon="6.36483">
        <ele>1529</ele>
        <time>2018-08-23T09:39:53Z</time>
      </trkpt>
      <trkpt lat="44.38928" lon="6.36474">
        <ele>1532</ele>
        <time>2018-08-23T09:40:06Z</time>
      </trkpt>
      <trkpt lat="44.3895" lon="6.36475">
        <ele>1534.8000488</ele>
        <time>2018-08-23T09:40:19Z</time>
      </trkpt>
      <trkpt lat="44.38952" lon="6.36477">
        <ele>1535.1999512</ele>
        <time>2018-08-23T09:40:21Z</time>
      </trkpt>
      <trkpt lat="44.38958" lon="6.36482">
        <ele>1537.5999756</ele>
        <time>2018-08-23T09:40:28Z</time>
      </trkpt>
      <trkpt lat="44.38975" lon="6.36491">
        <ele>1540.8000488</ele>
        <time>2018-08-23T09:40:38Z</time>
      </trkpt>
      <trkpt lat="44.3898" lon="6.36493">
        <ele>1541.1999512</ele>
        <time>2018-08-23T09:40:40Z</time>
      </trkpt>
      <trkpt lat="44.38982" lon="6.36493">
        <ele>1541.5999756</ele>
        <time>2018-08-23T09:40:41Z</time>
      </trkpt>
      <trkpt lat="44.39003" lon="6.36482">
        <ele>1544.5999756</ele>
        <time>2018-08-23T09:40:52Z</time>
      </trkpt>
      <trkpt lat="44.39023" lon="6.36449">
        <ele>1544.4000244</ele>
        <time>2018-08-23T09:41:06Z</time>
      </trkpt>
      <trkpt lat="44.39023" lon="6.36445">
        <ele>1543</ele>
        <time>2018-08-23T09:41:18Z</time>
      </trkpt>
      <trkpt lat="44.39025" lon="6.36443">
        <ele>1542.8000488</ele>
        <time>2018-08-23T09:41:51Z</time>
      </trkpt>
      <trkpt lat="44.39029" lon="6.36437">
        <ele>1542.8000488</ele>
        <time>2018-08-23T09:41:55Z</time>
      </trkpt>
      <trkpt lat="44.39031" lon="6.36435">
        <ele>1542.8000488</ele>
        <time>2018-08-23T09:41:56Z</time>
      </trkpt>
      <trkpt lat="44.39032" lon="6.36433">
        <ele>1542.8000488</ele>
        <time>2018-08-23T09:41:57Z</time>
      </trkpt>
      <trkpt lat="44.39036" lon="6.3643">
        <ele>1542.8000488</ele>
        <time>2018-08-23T09:41:59Z</time>
      </trkpt>
      <trkpt lat="44.39037" lon="6.36428">
        <ele>1542.8000488</ele>
        <time>2018-08-23T09:42:00Z</time>
      </trkpt>
      <trkpt lat="44.39039" lon="6.36427">
        <ele>1542.5999756</ele>
        <time>2018-08-23T09:42:01Z</time>
      </trkpt>
      <trkpt lat="44.3904" lon="6.36425">
        <ele>1542.5999756</ele>
        <time>2018-08-23T09:42:02Z</time>
      </trkpt>
      <trkpt lat="44.39041" lon="6.36424">
        <ele>1540.1999512</ele>
        <time>2018-08-23T09:42:15Z</time>
      </trkpt>
      <trkpt lat="44.39053" lon="6.36417">
        <ele>1539.5999756</ele>
        <time>2018-08-23T09:42:48Z</time>
      </trkpt>
      <trkpt lat="44.39075" lon="6.36405">
        <ele>1539.5999756</ele>
        <time>2018-08-23T09:42:59Z</time>
      </trkpt>
      <trkpt lat="44.39087" lon="6.364">
        <ele>1539.1999512</ele>
        <time>2018-08-23T09:43:16Z</time>
      </trkpt>
      <trkpt lat="44.39089" lon="6.36399">
        <ele>1539</ele>
        <time>2018-08-23T09:43:51Z</time>
      </trkpt>
      <trkpt lat="44.39097" lon="6.36394">
        <ele>1538.5999756</ele>
        <time>2018-08-23T09:44:10Z</time>
      </trkpt>
      <trkpt lat="44.39103" lon="6.36389">
        <ele>1538.4000244</ele>
        <time>2018-08-23T09:44:31Z</time>
      </trkpt>
      <trkpt lat="44.39104" lon="6.36388">
        <ele>1538.4000244</ele>
        <time>2018-08-23T09:44:32Z</time>
      </trkpt>
      <trkpt lat="44.39105" lon="6.36387">
        <ele>1538.4000244</ele>
        <time>2018-08-23T09:44:33Z</time>
      </trkpt>
      <trkpt lat="44.39106" lon="6.36384">
        <ele>1538.4000244</ele>
        <time>2018-08-23T09:44:34Z</time>
      </trkpt>
      <trkpt lat="44.39106" lon="6.36382">
        <ele>1538.4000244</ele>
        <time>2018-08-23T09:44:35Z</time>
      </trkpt>
      <trkpt lat="44.3911" lon="6.36379">
        <ele>1538.5999756</ele>
        <time>2018-08-23T09:44:48Z</time>
      </trkpt>
      <trkpt lat="44.39117" lon="6.36374">
        <ele>1538.4000244</ele>
        <time>2018-08-23T09:45:04Z</time>
      </trkpt>
      <trkpt lat="44.39118" lon="6.36371">
        <ele>1538.4000244</ele>
        <time>2018-08-23T09:45:05Z</time>
      </trkpt>
      <trkpt lat="44.3912" lon="6.36368">
        <ele>1538.4000244</ele>
        <time>2018-08-23T09:45:06Z</time>
      </trkpt>
      <trkpt lat="44.39122" lon="6.36365">
        <ele>1538.4000244</ele>
        <time>2018-08-23T09:45:07Z</time>
      </trkpt>
      <trkpt lat="44.39124" lon="6.36362">
        <ele>1538.5999756</ele>
        <time>2018-08-23T09:45:08Z</time>
      </trkpt>
      <trkpt lat="44.39126" lon="6.3636">
        <ele>1538.5999756</ele>
        <time>2018-08-23T09:45:09Z</time>
      </trkpt>
      <trkpt lat="44.39151" lon="6.36338">
        <ele>1540.4000244</ele>
        <time>2018-08-23T09:45:23Z</time>
      </trkpt>
      <trkpt lat="44.39157" lon="6.36334">
        <ele>1541</ele>
        <time>2018-08-23T09:45:27Z</time>
      </trkpt>
      <trkpt lat="44.39158" lon="6.36333">
        <ele>1541.1999512</ele>
        <time>2018-08-23T09:45:28Z</time>
      </trkpt>
      <trkpt lat="44.39163" lon="6.36324">
        <ele>1542</ele>
        <time>2018-08-23T09:45:32Z</time>
      </trkpt>
      <trkpt lat="44.39164" lon="6.36321">
        <ele>1542.1999512</ele>
        <time>2018-08-23T09:45:33Z</time>
      </trkpt>
      <trkpt lat="44.39166" lon="6.36318">
        <ele>1542.4000244</ele>
        <time>2018-08-23T09:45:34Z</time>
      </trkpt>
      <trkpt lat="44.39167" lon="6.36316">
        <ele>1542.5999756</ele>
        <time>2018-08-23T09:45:35Z</time>
      </trkpt>
      <trkpt lat="44.39168" lon="6.36314">
        <ele>1542.8000488</ele>
        <time>2018-08-23T09:45:36Z</time>
      </trkpt>
      <trkpt lat="44.39171" lon="6.36309">
        <ele>1542.8000488</ele>
        <time>2018-08-23T09:45:37Z</time>
      </trkpt>
      <trkpt lat="44.39172" lon="6.36305">
        <ele>1542.8000488</ele>
        <time>2018-08-23T09:45:38Z</time>
      </trkpt>
      <trkpt lat="44.39173" lon="6.36303">
        <ele>1542.8000488</ele>
        <time>2018-08-23T09:45:39Z</time>
      </trkpt>
      <trkpt lat="44.39174" lon="6.36302">
        <ele>1542.8000488</ele>
        <time>2018-08-23T09:45:40Z</time>
      </trkpt>
      <trkpt lat="44.39175" lon="6.36299">
        <ele>1542.8000488</ele>
        <time>2018-08-23T09:45:41Z</time>
      </trkpt>
      <trkpt lat="44.39176" lon="6.36297">
        <ele>1542.8000488</ele>
        <time>2018-08-23T09:45:42Z</time>
      </trkpt>
      <trkpt lat="44.39196" lon="6.36273">
        <ele>1541.5999756</ele>
        <time>2018-08-23T09:45:52Z</time>
      </trkpt>
      <trkpt lat="44.39223" lon="6.36253">
        <ele>1538.8000488</ele>
        <time>2018-08-23T09:46:04Z</time>
      </trkpt>
      <trkpt lat="44.39238" lon="6.36224">
        <ele>1537.8000488</ele>
        <time>2018-08-23T09:46:14Z</time>
      </trkpt>
      <trkpt lat="44.39253" lon="6.36187">
        <ele>1536.4000244</ele>
        <time>2018-08-23T09:46:24Z</time>
      </trkpt>
      <trkpt lat="44.39255" lon="6.36184">
        <ele>1536.1999512</ele>
        <time>2018-08-23T09:46:25Z</time>
      </trkpt>
      <trkpt lat="44.39257" lon="6.36182">
        <ele>1535.8000488</ele>
        <time>2018-08-23T09:46:26Z</time>
      </trkpt>
      <trkpt lat="44.39284" lon="6.36159">
        <ele>1535.4000244</ele>
        <time>2018-08-23T09:46:37Z</time>
      </trkpt>
      <trkpt lat="44.39313" lon="6.36138">
        <ele>1537.5999756</ele>
        <time>2018-08-23T09:46:49Z</time>
      </trkpt>
      <trkpt lat="44.39342" lon="6.36124">
        <ele>1537.8000488</ele>
        <time>2018-08-23T09:47:03Z</time>
      </trkpt>
      <trkpt lat="44.39376" lon="6.36119">
        <ele>1537.4000244</ele>
        <time>2018-08-23T09:47:14Z</time>
      </trkpt>
      <trkpt lat="44.39407" lon="6.36134">
        <ele>1535.4000244</ele>
        <time>2018-08-23T09:47:26Z</time>
      </trkpt>
      <trkpt lat="44.39429" lon="6.3612">
        <ele>1534.8000488</ele>
        <time>2018-08-23T09:47:39Z</time>
      </trkpt>
      <trkpt lat="44.3945" lon="6.36097">
        <ele>1532.1999512</ele>
        <time>2018-08-23T09:47:54Z</time>
      </trkpt>
      <trkpt lat="44.39469" lon="6.36068">
        <ele>1530.8000488</ele>
        <time>2018-08-23T09:48:05Z</time>
      </trkpt>
      <trkpt lat="44.39503" lon="6.36035">
        <ele>1530</ele>
        <time>2018-08-23T09:48:17Z</time>
      </trkpt>
      <trkpt lat="44.39514" lon="6.36022">
        <ele>1528.1999512</ele>
        <time>2018-08-23T09:48:22Z</time>
      </trkpt>
      <trkpt lat="44.39515" lon="6.3602">
        <ele>1528</ele>
        <time>2018-08-23T09:48:23Z</time>
      </trkpt>
      <trkpt lat="44.39532" lon="6.36007">
        <ele>1526.5999756</ele>
        <time>2018-08-23T09:48:36Z</time>
      </trkpt>
      <trkpt lat="44.39557" lon="6.35998">
        <ele>1524.1999512</ele>
        <time>2018-08-23T09:48:45Z</time>
      </trkpt>
      <trkpt lat="44.39579" lon="6.35989">
        <ele>1521.1999512</ele>
        <time>2018-08-23T09:48:53Z</time>
      </trkpt>
      <trkpt lat="44.39603" lon="6.35982">
        <ele>1518.1999512</ele>
        <time>2018-08-23T09:49:04Z</time>
      </trkpt>
      <trkpt lat="44.39625" lon="6.35991">
        <ele>1515.8000488</ele>
        <time>2018-08-23T09:49:15Z</time>
      </trkpt>
      <trkpt lat="44.39627" lon="6.35991">
        <ele>1515.5999756</ele>
        <time>2018-08-23T09:49:16Z</time>
      </trkpt>
      <trkpt lat="44.39629" lon="6.35992">
        <ele>1515.4000244</ele>
        <time>2018-08-23T09:49:17Z</time>
      </trkpt>
      <trkpt lat="44.39631" lon="6.35991">
        <ele>1515</ele>
        <time>2018-08-23T09:49:18Z</time>
      </trkpt>
      <trkpt lat="44.39636" lon="6.35989">
        <ele>1514</ele>
        <time>2018-08-23T09:49:22Z</time>
      </trkpt>
      <trkpt lat="44.39636" lon="6.35987">
        <ele>1513.8000488</ele>
        <time>2018-08-23T09:49:23Z</time>
      </trkpt>
      <trkpt lat="44.39636" lon="6.35984">
        <ele>1513.8000488</ele>
        <time>2018-08-23T09:49:24Z</time>
      </trkpt>
      <trkpt lat="44.39634" lon="6.35977">
        <ele>1513.8000488</ele>
        <time>2018-08-23T09:49:26Z</time>
      </trkpt>
      <trkpt lat="44.39633" lon="6.35961">
        <ele>1513.8000488</ele>
        <time>2018-08-23T09:49:32Z</time>
      </trkpt>
      <trkpt lat="44.39637" lon="6.35951">
        <ele>1514.5999756</ele>
        <time>2018-08-23T09:49:36Z</time>
      </trkpt>
      <trkpt lat="44.3964" lon="6.3594">
        <ele>1514.8000488</ele>
        <time>2018-08-23T09:49:40Z</time>
      </trkpt>
      <trkpt lat="44.39646" lon="6.35933">
        <ele>1514.8000488</ele>
        <time>2018-08-23T09:49:44Z</time>
      </trkpt>
      <trkpt lat="44.39652" lon="6.35928">
        <ele>1514</ele>
        <time>2018-08-23T09:49:48Z</time>
      </trkpt>
      <trkpt lat="44.39656" lon="6.35928">
        <ele>1513.1999512</ele>
        <time>2018-08-23T09:49:50Z</time>
      </trkpt>
      <trkpt lat="44.3968" lon="6.35932">
        <ele>1509</ele>
        <time>2018-08-23T09:50:02Z</time>
      </trkpt>
      <trkpt lat="44.39696" lon="6.35941">
        <ele>1507</ele>
        <time>2018-08-23T09:50:35Z</time>
      </trkpt>
      <trkpt lat="44.39698" lon="6.35943">
        <ele>1507</ele>
        <time>2018-08-23T09:50:36Z</time>
      </trkpt>
      <trkpt lat="44.39701" lon="6.35944">
        <ele>1507</ele>
        <time>2018-08-23T09:50:37Z</time>
      </trkpt>
      <trkpt lat="44.39703" lon="6.35945">
        <ele>1507</ele>
        <time>2018-08-23T09:50:38Z</time>
      </trkpt>
      <trkpt lat="44.39705" lon="6.35947">
        <ele>1507</ele>
        <time>2018-08-23T09:50:39Z</time>
      </trkpt>
      <trkpt lat="44.39708" lon="6.35947">
        <ele>1507</ele>
        <time>2018-08-23T09:50:40Z</time>
      </trkpt>
      <trkpt lat="44.39709" lon="6.35948">
        <ele>1507</ele>
        <time>2018-08-23T09:50:41Z</time>
      </trkpt>
      <trkpt lat="44.39712" lon="6.35949">
        <ele>1507</ele>
        <time>2018-08-23T09:50:42Z</time>
      </trkpt>
      <trkpt lat="44.39734" lon="6.3595">
        <ele>1507</ele>
        <time>2018-08-23T09:50:50Z</time>
      </trkpt>
      <trkpt lat="44.39735" lon="6.35947">
        <ele>1507</ele>
        <time>2018-08-23T09:50:51Z</time>
      </trkpt>
      <trkpt lat="44.39737" lon="6.35945">
        <ele>1507</ele>
        <time>2018-08-23T09:50:52Z</time>
      </trkpt>
      <trkpt lat="44.39739" lon="6.35942">
        <ele>1507</ele>
        <time>2018-08-23T09:50:53Z</time>
      </trkpt>
      <trkpt lat="44.3974" lon="6.35938">
        <ele>1507</ele>
        <time>2018-08-23T09:50:54Z</time>
      </trkpt>
      <trkpt lat="44.39741" lon="6.35935">
        <ele>1507</ele>
        <time>2018-08-23T09:50:55Z</time>
      </trkpt>
      <trkpt lat="44.39742" lon="6.35932">
        <ele>1507</ele>
        <time>2018-08-23T09:50:56Z</time>
      </trkpt>
      <trkpt lat="44.39744" lon="6.3593">
        <ele>1507</ele>
        <time>2018-08-23T09:50:57Z</time>
      </trkpt>
      <trkpt lat="44.39746" lon="6.35928">
        <ele>1507</ele>
        <time>2018-08-23T09:50:58Z</time>
      </trkpt>
      <trkpt lat="44.39749" lon="6.35927">
        <ele>1507</ele>
        <time>2018-08-23T09:50:59Z</time>
      </trkpt>
      <trkpt lat="44.39751" lon="6.35925">
        <ele>1507</ele>
        <time>2018-08-23T09:51:00Z</time>
      </trkpt>
      <trkpt lat="44.39754" lon="6.35923">
        <ele>1507</ele>
        <time>2018-08-23T09:51:01Z</time>
      </trkpt>
      <trkpt lat="44.39757" lon="6.35921">
        <ele>1507</ele>
        <time>2018-08-23T09:51:02Z</time>
      </trkpt>
      <trkpt lat="44.39776" lon="6.35913">
        <ele>1507</ele>
        <time>2018-08-23T09:51:09Z</time>
      </trkpt>
      <trkpt lat="44.39781" lon="6.35903">
        <ele>1506.8000488</ele>
        <time>2018-08-23T09:51:13Z</time>
      </trkpt>
      <trkpt lat="44.39785" lon="6.35887">
        <ele>1506.4000244</ele>
        <time>2018-08-23T09:51:18Z</time>
      </trkpt>
      <trkpt lat="44.39787" lon="6.35884">
        <ele>1506.4000244</ele>
        <time>2018-08-23T09:51:19Z</time>
      </trkpt>
      <trkpt lat="44.39789" lon="6.35881">
        <ele>1506.4000244</ele>
        <time>2018-08-23T09:51:20Z</time>
      </trkpt>
      <trkpt lat="44.39791" lon="6.35878">
        <ele>1506.1999512</ele>
        <time>2018-08-23T09:51:21Z</time>
      </trkpt>
      <trkpt lat="44.39793" lon="6.35875">
        <ele>1506.1999512</ele>
        <time>2018-08-23T09:51:22Z</time>
      </trkpt>
      <trkpt lat="44.39795" lon="6.35871">
        <ele>1506</ele>
        <time>2018-08-23T09:51:23Z</time>
      </trkpt>
      <trkpt lat="44.39796" lon="6.35868">
        <ele>1506</ele>
        <time>2018-08-23T09:51:24Z</time>
      </trkpt>
      <trkpt lat="44.39798" lon="6.35865">
        <ele>1505.5999756</ele>
        <time>2018-08-23T09:51:25Z</time>
      </trkpt>
      <trkpt lat="44.39806" lon="6.35825">
        <ele>1505.5999756</ele>
        <time>2018-08-23T09:51:36Z</time>
      </trkpt>
      <trkpt lat="44.39806" lon="6.35822">
        <ele>1505.5999756</ele>
        <time>2018-08-23T09:51:37Z</time>
      </trkpt>
      <trkpt lat="44.39805" lon="6.35819">
        <ele>1505.8000488</ele>
        <time>2018-08-23T09:51:38Z</time>
      </trkpt>
      <trkpt lat="44.398" lon="6.3577">
        <ele>1505.8000488</ele>
        <time>2018-08-23T09:51:49Z</time>
      </trkpt>
      <trkpt lat="44.39801" lon="6.35768">
        <ele>1505.8000488</ele>
        <time>2018-08-23T09:51:50Z</time>
      </trkpt>
      <trkpt lat="44.39802" lon="6.35765">
        <ele>1505.8000488</ele>
        <time>2018-08-23T09:51:51Z</time>
      </trkpt>
      <trkpt lat="44.39803" lon="6.35761">
        <ele>1505.8000488</ele>
        <time>2018-08-23T09:51:52Z</time>
      </trkpt>
      <trkpt lat="44.39815" lon="6.35739">
        <ele>1505.1999512</ele>
        <time>2018-08-23T09:51:58Z</time>
      </trkpt>
      <trkpt lat="44.39816" lon="6.35735">
        <ele>1505</ele>
        <time>2018-08-23T09:51:59Z</time>
      </trkpt>
      <trkpt lat="44.3984" lon="6.35709">
        <ele>1501.8000488</ele>
        <time>2018-08-23T09:52:09Z</time>
      </trkpt>
      <trkpt lat="44.39855" lon="6.35694">
        <ele>1498.8000488</ele>
        <time>2018-08-23T09:52:16Z</time>
      </trkpt>
      <trkpt lat="44.39857" lon="6.35693">
        <ele>1498.4000244</ele>
        <time>2018-08-23T09:52:17Z</time>
      </trkpt>
      <trkpt lat="44.39858" lon="6.3569">
        <ele>1498</ele>
        <time>2018-08-23T09:52:18Z</time>
      </trkpt>
      <trkpt lat="44.39861" lon="6.35688">
        <ele>1497.1999512</ele>
        <time>2018-08-23T09:52:19Z</time>
      </trkpt>
      <trkpt lat="44.39863" lon="6.35686">
        <ele>1496.8000488</ele>
        <time>2018-08-23T09:52:20Z</time>
      </trkpt>
      <trkpt lat="44.39866" lon="6.35682">
        <ele>1496.1999512</ele>
        <time>2018-08-23T09:52:21Z</time>
      </trkpt>
      <trkpt lat="44.39868" lon="6.35679">
        <ele>1496</ele>
        <time>2018-08-23T09:52:22Z</time>
      </trkpt>
      <trkpt lat="44.39887" lon="6.35653">
        <ele>1494.8000488</ele>
        <time>2018-08-23T09:52:29Z</time>
      </trkpt>
      <trkpt lat="44.39922" lon="6.35617">
        <ele>1492.8000488</ele>
        <time>2018-08-23T09:52:39Z</time>
      </trkpt>
      <trkpt lat="44.39937" lon="6.35575">
        <ele>1489.8000488</ele>
        <time>2018-08-23T09:52:48Z</time>
      </trkpt>
      <trkpt lat="44.39967" lon="6.3553">
        <ele>1486.8000488</ele>
        <time>2018-08-23T09:52:58Z</time>
      </trkpt>
      <trkpt lat="44.39984" lon="6.35507">
        <ele>1483.4000244</ele>
        <time>2018-08-23T09:53:05Z</time>
      </trkpt>
      <trkpt lat="44.39995" lon="6.35491">
        <ele>1480.1999512</ele>
        <time>2018-08-23T09:53:10Z</time>
      </trkpt>
      <trkpt lat="44.4" lon="6.35468">
        <ele>1477.5999756</ele>
        <time>2018-08-23T09:53:16Z</time>
      </trkpt>
      <trkpt lat="44.40001" lon="6.35464">
        <ele>1477.1999512</ele>
        <time>2018-08-23T09:53:17Z</time>
      </trkpt>
      <trkpt lat="44.40001" lon="6.35462">
        <ele>1476.8000488</ele>
        <time>2018-08-23T09:53:18Z</time>
      </trkpt>
      <trkpt lat="44.40001" lon="6.35459">
        <ele>1476.5999756</ele>
        <time>2018-08-23T09:53:19Z</time>
      </trkpt>
      <trkpt lat="44.40002" lon="6.35457">
        <ele>1476.1999512</ele>
        <time>2018-08-23T09:53:20Z</time>
      </trkpt>
      <trkpt lat="44.40003" lon="6.35455">
        <ele>1476</ele>
        <time>2018-08-23T09:53:21Z</time>
      </trkpt>
      <trkpt lat="44.40004" lon="6.35452">
        <ele>1475.5999756</ele>
        <time>2018-08-23T09:53:22Z</time>
      </trkpt>
      <trkpt lat="44.40005" lon="6.35447">
        <ele>1475.1999512</ele>
        <time>2018-08-23T09:53:23Z</time>
      </trkpt>
      <trkpt lat="44.40005" lon="6.35443">
        <ele>1474.8000488</ele>
        <time>2018-08-23T09:53:24Z</time>
      </trkpt>
      <trkpt lat="44.40005" lon="6.35439">
        <ele>1474.1999512</ele>
        <time>2018-08-23T09:53:25Z</time>
      </trkpt>
      <trkpt lat="44.40006" lon="6.35435">
        <ele>1474</ele>
        <time>2018-08-23T09:53:26Z</time>
      </trkpt>
      <trkpt lat="44.40007" lon="6.35431">
        <ele>1473.5999756</ele>
        <time>2018-08-23T09:53:27Z</time>
      </trkpt>
      <trkpt lat="44.40009" lon="6.35426">
        <ele>1473.1999512</ele>
        <time>2018-08-23T09:53:28Z</time>
      </trkpt>
      <trkpt lat="44.40015" lon="6.35412">
        <ele>1471</ele>
        <time>2018-08-23T09:53:32Z</time>
      </trkpt>
      <trkpt lat="44.40019" lon="6.35394">
        <ele>1467.8000488</ele>
        <time>2018-08-23T09:53:37Z</time>
      </trkpt>
      <trkpt lat="44.40017" lon="6.35379">
        <ele>1465.8000488</ele>
        <time>2018-08-23T09:53:41Z</time>
      </trkpt>
      <trkpt lat="44.40016" lon="6.35377">
        <ele>1465.4000244</ele>
        <time>2018-08-23T09:53:42Z</time>
      </trkpt>
      <trkpt lat="44.40006" lon="6.35366">
        <ele>1462.4000244</ele>
        <time>2018-08-23T09:53:49Z</time>
      </trkpt>
      <trkpt lat="44.40005" lon="6.35369">
        <ele>1461.1999512</ele>
        <time>2018-08-23T09:53:53Z</time>
      </trkpt>
      <trkpt lat="44.40005" lon="6.35369">
        <ele>1460.5999756</ele>
        <time>2018-08-23T09:53:57Z</time>
      </trkpt>
      <trkpt lat="44.40015" lon="6.35369">
        <ele>1459.8000488</ele>
        <time>2018-08-23T09:54:24Z</time>
      </trkpt>
      <trkpt lat="44.4004" lon="6.35355">
        <ele>1458.5999756</ele>
        <time>2018-08-23T09:54:49Z</time>
      </trkpt>
      <trkpt lat="44.40042" lon="6.35357">
        <ele>1459.1999512</ele>
        <time>2018-08-23T09:54:57Z</time>
      </trkpt>
      <trkpt lat="44.40066" lon="6.35379">
        <ele>1461.1999512</ele>
        <time>2018-08-23T09:55:31Z</time>
      </trkpt>
      <trkpt lat="44.40069" lon="6.3538">
        <ele>1461.1999512</ele>
        <time>2018-08-23T09:55:32Z</time>
      </trkpt>
      <trkpt lat="44.40097" lon="6.35395">
        <ele>1462.1999512</ele>
        <time>2018-08-23T09:55:45Z</time>
      </trkpt>
      <trkpt lat="44.40104" lon="6.35398">
        <ele>1462.4000244</ele>
        <time>2018-08-23T09:55:49Z</time>
      </trkpt>
      <trkpt lat="44.40131" lon="6.35409">
        <ele>1462</ele>
        <time>2018-08-23T09:56:01Z</time>
      </trkpt>
      <trkpt lat="44.40161" lon="6.35421">
        <ele>1461.4000244</ele>
        <time>2018-08-23T09:56:10Z</time>
      </trkpt>
      <trkpt lat="44.40192" lon="6.35426">
        <ele>1460.1999512</ele>
        <time>2018-08-23T09:56:22Z</time>
      </trkpt>
      <trkpt lat="44.40227" lon="6.35433">
        <ele>1461.1999512</ele>
        <time>2018-08-23T09:56:35Z</time>
      </trkpt>
      <trkpt lat="44.40262" lon="6.35439">
        <ele>1462.4000244</ele>
        <time>2018-08-23T09:56:47Z</time>
      </trkpt>
      <trkpt lat="44.40292" lon="6.35453">
        <ele>1462.8000488</ele>
        <time>2018-08-23T09:56:59Z</time>
      </trkpt>
      <trkpt lat="44.40326" lon="6.35459">
        <ele>1463</ele>
        <time>2018-08-23T09:57:08Z</time>
      </trkpt>
      <trkpt lat="44.40346" lon="6.35454">
        <ele>1462.5999756</ele>
        <time>2018-08-23T09:57:13Z</time>
      </trkpt>
      <trkpt lat="44.40379" lon="6.35444">
        <ele>1461.5999756</ele>
        <time>2018-08-23T09:57:23Z</time>
      </trkpt>
      <trkpt lat="44.40381" lon="6.35443">
        <ele>1461.4000244</ele>
        <time>2018-08-23T09:57:24Z</time>
      </trkpt>
      <trkpt lat="44.40394" lon="6.35436">
        <ele>1458.4000244</ele>
        <time>2018-08-23T09:57:37Z</time>
      </trkpt>
      <trkpt lat="44.40394" lon="6.35435">
        <ele>1458.1999512</ele>
        <time>2018-08-23T09:57:38Z</time>
      </trkpt>
      <trkpt lat="44.40399" lon="6.35435">
        <ele>1457.4000244</ele>
        <time>2018-08-23T09:57:42Z</time>
      </trkpt>
      <trkpt lat="44.40409" lon="6.35429">
        <ele>1456.5999756</ele>
        <time>2018-08-23T09:57:47Z</time>
      </trkpt>
      <trkpt lat="44.40412" lon="6.35429">
        <ele>1456.5999756</ele>
        <time>2018-08-23T09:57:48Z</time>
      </trkpt>
      <trkpt lat="44.40415" lon="6.35429">
        <ele>1456.4000244</ele>
        <time>2018-08-23T09:57:49Z</time>
      </trkpt>
      <trkpt lat="44.40418" lon="6.35428">
        <ele>1456.1999512</ele>
        <time>2018-08-23T09:57:50Z</time>
      </trkpt>
      <trkpt lat="44.40421" lon="6.35427">
        <ele>1456</ele>
        <time>2018-08-23T09:57:51Z</time>
      </trkpt>
      <trkpt lat="44.40445" lon="6.35423">
        <ele>1453</ele>
        <time>2018-08-23T09:58:00Z</time>
      </trkpt>
      <trkpt lat="44.40465" lon="6.35421">
        <ele>1449.5999756</ele>
        <time>2018-08-23T09:58:08Z</time>
      </trkpt>
      <trkpt lat="44.40467" lon="6.3542">
        <ele>1449.1999512</ele>
        <time>2018-08-23T09:58:09Z</time>
      </trkpt>
      <trkpt lat="44.40468" lon="6.35417">
        <ele>1449</ele>
        <time>2018-08-23T09:58:10Z</time>
      </trkpt>
      <trkpt lat="44.40497" lon="6.35384">
        <ele>1446.1999512</ele>
        <time>2018-08-23T09:58:24Z</time>
      </trkpt>
      <trkpt lat="44.40501" lon="6.35381">
        <ele>1444.8000488</ele>
        <time>2018-08-23T09:58:27Z</time>
      </trkpt>
      <trkpt lat="44.40503" lon="6.3538">
        <ele>1444.5999756</ele>
        <time>2018-08-23T09:58:28Z</time>
      </trkpt>
      <trkpt lat="44.40505" lon="6.35378">
        <ele>1444.1999512</ele>
        <time>2018-08-23T09:58:29Z</time>
      </trkpt>
      <trkpt lat="44.40507" lon="6.35378">
        <ele>1444</ele>
        <time>2018-08-23T09:58:30Z</time>
      </trkpt>
      <trkpt lat="44.4051" lon="6.35378">
        <ele>1443.8000488</ele>
        <time>2018-08-23T09:58:31Z</time>
      </trkpt>
      <trkpt lat="44.40512" lon="6.35378">
        <ele>1443.5999756</ele>
        <time>2018-08-23T09:58:32Z</time>
      </trkpt>
      <trkpt lat="44.40522" lon="6.35374">
        <ele>1442.1999512</ele>
        <time>2018-08-23T09:58:36Z</time>
      </trkpt>
      <trkpt lat="44.40524" lon="6.35356">
        <ele>1441.1999512</ele>
        <time>2018-08-23T09:58:43Z</time>
      </trkpt>
      <trkpt lat="44.40522" lon="6.35339">
        <ele>1439.4000244</ele>
        <time>2018-08-23T09:58:48Z</time>
      </trkpt>
      <trkpt lat="44.40524" lon="6.35334">
        <ele>1438.5999756</ele>
        <time>2018-08-23T09:58:50Z</time>
      </trkpt>
      <trkpt lat="44.40528" lon="6.35314">
        <ele>1435.8000488</ele>
        <time>2018-08-23T09:58:58Z</time>
      </trkpt>
      <trkpt lat="44.40535" lon="6.353">
        <ele>1432.5999756</ele>
        <time>2018-08-23T09:59:07Z</time>
      </trkpt>
      <trkpt lat="44.40552" lon="6.35283">
        <ele>1429.1999512</ele>
        <time>2018-08-23T09:59:19Z</time>
      </trkpt>
      <trkpt lat="44.40552" lon="6.35281">
        <ele>1428.8000488</ele>
        <time>2018-08-23T09:59:20Z</time>
      </trkpt>
      <trkpt lat="44.40549" lon="6.3525">
        <ele>1426</ele>
        <time>2018-08-23T09:59:29Z</time>
      </trkpt>
      <trkpt lat="44.40545" lon="6.35228">
        <ele>1422.1999512</ele>
        <time>2018-08-23T09:59:37Z</time>
      </trkpt>
      <trkpt lat="44.40538" lon="6.35213">
        <ele>1418.8000488</ele>
        <time>2018-08-23T09:59:44Z</time>
      </trkpt>
      <trkpt lat="44.40533" lon="6.35205">
        <ele>1417.8000488</ele>
        <time>2018-08-23T09:59:47Z</time>
      </trkpt>
      <trkpt lat="44.40529" lon="6.35194">
        <ele>1414.4000244</ele>
        <time>2018-08-23T09:59:59Z</time>
      </trkpt>
      <trkpt lat="44.40532" lon="6.35186">
        <ele>1413.5999756</ele>
        <time>2018-08-23T10:00:08Z</time>
      </trkpt>
      <trkpt lat="44.40556" lon="6.35177">
        <ele>1411.1999512</ele>
        <time>2018-08-23T10:00:19Z</time>
      </trkpt>
      <trkpt lat="44.40567" lon="6.35176">
        <ele>1408</ele>
        <time>2018-08-23T10:00:24Z</time>
      </trkpt>
      <trkpt lat="44.40577" lon="6.35175">
        <ele>1404</ele>
        <time>2018-08-23T10:00:30Z</time>
      </trkpt>
      <trkpt lat="44.40589" lon="6.35178">
        <ele>1400.8000488</ele>
        <time>2018-08-23T10:00:37Z</time>
      </trkpt>
      <trkpt lat="44.40599" lon="6.35176">
        <ele>1398.5999756</ele>
        <time>2018-08-23T10:00:43Z</time>
      </trkpt>
      <trkpt lat="44.40597" lon="6.35144">
        <ele>1395.1999512</ele>
        <time>2018-08-23T10:00:53Z</time>
      </trkpt>
      <trkpt lat="44.40599" lon="6.35127">
        <ele>1392</ele>
        <time>2018-08-23T10:00:59Z</time>
      </trkpt>
      <trkpt lat="44.40599" lon="6.35116">
        <ele>1390.1999512</ele>
        <time>2018-08-23T10:01:03Z</time>
      </trkpt>
      <trkpt lat="44.40599" lon="6.35109">
        <ele>1389.5999756</ele>
        <time>2018-08-23T10:01:05Z</time>
      </trkpt>
      <trkpt lat="44.40598" lon="6.35083">
        <ele>1385.5999756</ele>
        <time>2018-08-23T10:01:13Z</time>
      </trkpt>
      <trkpt lat="44.40595" lon="6.35063">
        <ele>1382.8000488</ele>
        <time>2018-08-23T10:01:19Z</time>
      </trkpt>
      <trkpt lat="44.40592" lon="6.35043">
        <ele>1379.4000244</ele>
        <time>2018-08-23T10:01:26Z</time>
      </trkpt>
      <trkpt lat="44.40594" lon="6.35025">
        <ele>1376.1999512</ele>
        <time>2018-08-23T10:01:36Z</time>
      </trkpt>
      <trkpt lat="44.40607" lon="6.35024">
        <ele>1372.1999512</ele>
        <time>2018-08-23T10:01:43Z</time>
      </trkpt>
      <trkpt lat="44.40624" lon="6.35014">
        <ele>1368.8000488</ele>
        <time>2018-08-23T10:01:50Z</time>
      </trkpt>
      <trkpt lat="44.40642" lon="6.35009">
        <ele>1365.5999756</ele>
        <time>2018-08-23T10:01:58Z</time>
      </trkpt>
      <trkpt lat="44.4066" lon="6.35002">
        <ele>1362.4000244</ele>
        <time>2018-08-23T10:02:05Z</time>
      </trkpt>
      <trkpt lat="44.40672" lon="6.34996">
        <ele>1359.4000244</ele>
        <time>2018-08-23T10:02:11Z</time>
      </trkpt>
      <trkpt lat="44.40689" lon="6.34988">
        <ele>1356.1999512</ele>
        <time>2018-08-23T10:02:19Z</time>
      </trkpt>
      <trkpt lat="44.40692" lon="6.34962">
        <ele>1353.4000244</ele>
        <time>2018-08-23T10:02:27Z</time>
      </trkpt>
      <trkpt lat="44.40692" lon="6.34955">
        <ele>1352.5999756</ele>
        <time>2018-08-23T10:02:29Z</time>
      </trkpt>
      <trkpt lat="44.40696" lon="6.34935">
        <ele>1351</ele>
        <time>2018-08-23T10:02:35Z</time>
      </trkpt>
      <trkpt lat="44.40699" lon="6.34934">
        <ele>1350.4000244</ele>
        <time>2018-08-23T10:02:36Z</time>
      </trkpt>
      <trkpt lat="44.40703" lon="6.34934">
        <ele>1350.1999512</ele>
        <time>2018-08-23T10:02:37Z</time>
      </trkpt>
      <trkpt lat="44.40705" lon="6.34935">
        <ele>1350</ele>
        <time>2018-08-23T10:02:38Z</time>
      </trkpt>
      <trkpt lat="44.40707" lon="6.34937">
        <ele>1349.8000488</ele>
        <time>2018-08-23T10:02:39Z</time>
      </trkpt>
      <trkpt lat="44.4071" lon="6.3494">
        <ele>1349.5999756</ele>
        <time>2018-08-23T10:02:40Z</time>
      </trkpt>
      <trkpt lat="44.40734" lon="6.34977">
        <ele>1347.4000244</ele>
        <time>2018-08-23T10:02:48Z</time>
      </trkpt>
      <trkpt lat="44.4074" lon="6.34989">
        <ele>1347.1999512</ele>
        <time>2018-08-23T10:02:50Z</time>
      </trkpt>
      <trkpt lat="44.40757" lon="6.35028">
        <ele>1346.5999756</ele>
        <time>2018-08-23T10:02:56Z</time>
      </trkpt>
      <trkpt lat="44.40761" lon="6.35034">
        <ele>1346</ele>
        <time>2018-08-23T10:02:57Z</time>
      </trkpt>
      <trkpt lat="44.40766" lon="6.3504">
        <ele>1345.8000488</ele>
        <time>2018-08-23T10:02:58Z</time>
      </trkpt>
      <trkpt lat="44.40771" lon="6.35045">
        <ele>1345.8000488</ele>
        <time>2018-08-23T10:02:59Z</time>
      </trkpt>
      <trkpt lat="44.40777" lon="6.35051">
        <ele>1345.5999756</ele>
        <time>2018-08-23T10:03:00Z</time>
      </trkpt>
      <trkpt lat="44.40811" lon="6.35083">
        <ele>1344</ele>
        <time>2018-08-23T10:03:05Z</time>
      </trkpt>
      <trkpt lat="44.40817" lon="6.3509">
        <ele>1343.5999756</ele>
        <time>2018-08-23T10:03:06Z</time>
      </trkpt>
      <trkpt lat="44.40836" lon="6.35111">
        <ele>1342.4000244</ele>
        <time>2018-08-23T10:03:09Z</time>
      </trkpt>
      <trkpt lat="44.40847" lon="6.35116">
        <ele>1342.1999512</ele>
        <time>2018-08-23T10:03:10Z</time>
      </trkpt>
      <trkpt lat="44.40858" lon="6.3512">
        <ele>1341.5999756</ele>
        <time>2018-08-23T10:03:11Z</time>
      </trkpt>
      <trkpt lat="44.40866" lon="6.35124">
        <ele>1341.4000244</ele>
        <time>2018-08-23T10:03:12Z</time>
      </trkpt>
      <trkpt lat="44.40874" lon="6.35127">
        <ele>1341.1999512</ele>
        <time>2018-08-23T10:03:13Z</time>
      </trkpt>
      <trkpt lat="44.40883" lon="6.35129">
        <ele>1340.5999756</ele>
        <time>2018-08-23T10:03:14Z</time>
      </trkpt>
      <trkpt lat="44.40918" lon="6.35136">
        <ele>1337.5999756</ele>
        <time>2018-08-23T10:03:19Z</time>
      </trkpt>
      <trkpt lat="44.40925" lon="6.35136">
        <ele>1337.5999756</ele>
        <time>2018-08-23T10:03:20Z</time>
      </trkpt>
      <trkpt lat="44.40951" lon="6.35129">
        <ele>1335.4000244</ele>
        <time>2018-08-23T10:03:25Z</time>
      </trkpt>
      <trkpt lat="44.40955" lon="6.35126">
        <ele>1335.1999512</ele>
        <time>2018-08-23T10:03:26Z</time>
      </trkpt>
      <trkpt lat="44.40959" lon="6.35121">
        <ele>1334.8000488</ele>
        <time>2018-08-23T10:03:27Z</time>
      </trkpt>
      <trkpt lat="44.40999" lon="6.35067">
        <ele>1331.4000244</ele>
        <time>2018-08-23T10:03:36Z</time>
      </trkpt>
      <trkpt lat="44.41011" lon="6.35057">
        <ele>1331</ele>
        <time>2018-08-23T10:03:38Z</time>
      </trkpt>
      <trkpt lat="44.41017" lon="6.35054">
        <ele>1330.8000488</ele>
        <time>2018-08-23T10:03:39Z</time>
      </trkpt>
      <trkpt lat="44.41023" lon="6.35052">
        <ele>1330.5999756</ele>
        <time>2018-08-23T10:03:40Z</time>
      </trkpt>
      <trkpt lat="44.41033" lon="6.35049">
        <ele>1330</ele>
        <time>2018-08-23T10:03:42Z</time>
      </trkpt>
      <trkpt lat="44.41044" lon="6.35049">
        <ele>1329.4000244</ele>
        <time>2018-08-23T10:03:44Z</time>
      </trkpt>
      <trkpt lat="44.41054" lon="6.3505">
        <ele>1328.4000244</ele>
        <time>2018-08-23T10:03:46Z</time>
      </trkpt>
      <trkpt lat="44.41071" lon="6.35056">
        <ele>1327.5999756</ele>
        <time>2018-08-23T10:03:50Z</time>
      </trkpt>
      <trkpt lat="44.41125" lon="6.35054">
        <ele>1328.4000244</ele>
        <time>2018-08-23T10:04:04Z</time>
      </trkpt>
      <trkpt lat="44.41152" lon="6.35022">
        <ele>1329.5999756</ele>
        <time>2018-08-23T10:04:16Z</time>
      </trkpt>
      <trkpt lat="44.41168" lon="6.34985">
        <ele>1331.4000244</ele>
        <time>2018-08-23T10:04:27Z</time>
      </trkpt>
      <trkpt lat="44.41185" lon="6.34937">
        <ele>1332</ele>
        <time>2018-08-23T10:04:38Z</time>
      </trkpt>
      <trkpt lat="44.41189" lon="6.34934">
        <ele>1332</ele>
        <time>2018-08-23T10:04:39Z</time>
      </trkpt>
      <trkpt lat="44.41193" lon="6.34932">
        <ele>1332</ele>
        <time>2018-08-23T10:04:40Z</time>
      </trkpt>
      <trkpt lat="44.41198" lon="6.3493">
        <ele>1332</ele>
        <time>2018-08-23T10:04:41Z</time>
      </trkpt>
      <trkpt lat="44.41203" lon="6.34929">
        <ele>1332</ele>
        <time>2018-08-23T10:04:42Z</time>
      </trkpt>
      <trkpt lat="44.41208" lon="6.34928">
        <ele>1332</ele>
        <time>2018-08-23T10:04:43Z</time>
      </trkpt>
      <trkpt lat="44.41213" lon="6.34928">
        <ele>1332</ele>
        <time>2018-08-23T10:04:44Z</time>
      </trkpt>
      <trkpt lat="44.41218" lon="6.34928">
        <ele>1331.8000488</ele>
        <time>2018-08-23T10:04:45Z</time>
      </trkpt>
      <trkpt lat="44.41293" lon="6.34961">
        <ele>1330.4000244</ele>
        <time>2018-08-23T10:04:59Z</time>
      </trkpt>
      <trkpt lat="44.41338" lon="6.34997">
        <ele>1329.4000244</ele>
        <time>2018-08-23T10:05:09Z</time>
      </trkpt>
      <trkpt lat="44.41344" lon="6.35007">
        <ele>1329.1999512</ele>
        <time>2018-08-23T10:05:11Z</time>
      </trkpt>
      <trkpt lat="44.41346" lon="6.35011">
        <ele>1329.1999512</ele>
        <time>2018-08-23T10:05:12Z</time>
      </trkpt>
      <trkpt lat="44.41347" lon="6.35017">
        <ele>1329.1999512</ele>
        <time>2018-08-23T10:05:13Z</time>
      </trkpt>
      <trkpt lat="44.41366" lon="6.35085">
        <ele>1330.5999756</ele>
        <time>2018-08-23T10:05:28Z</time>
      </trkpt>
      <trkpt lat="44.4139" lon="6.35116">
        <ele>1332.4000244</ele>
        <time>2018-08-23T10:05:38Z</time>
      </trkpt>
      <trkpt lat="44.41419" lon="6.35126">
        <ele>1334</ele>
        <time>2018-08-23T10:05:49Z</time>
      </trkpt>
      <trkpt lat="44.41465" lon="6.35132">
        <ele>1334.8000488</ele>
        <time>2018-08-23T10:06:03Z</time>
      </trkpt>
      <trkpt lat="44.41509" lon="6.35132">
        <ele>1335.8000488</ele>
        <time>2018-08-23T10:06:14Z</time>
      </trkpt>
      <trkpt lat="44.41514" lon="6.35133">
        <ele>1335.8000488</ele>
        <time>2018-08-23T10:06:15Z</time>
      </trkpt>
      <trkpt lat="44.41518" lon="6.35133">
        <ele>1335.8000488</ele>
        <time>2018-08-23T10:06:16Z</time>
      </trkpt>
      <trkpt lat="44.41544" lon="6.35138">
        <ele>1334.8000488</ele>
        <time>2018-08-23T10:06:27Z</time>
      </trkpt>
      <trkpt lat="44.41543" lon="6.35133">
        <ele>1333.8000488</ele>
        <time>2018-08-23T10:07:11Z</time>
      </trkpt>
      <trkpt lat="44.41544" lon="6.35134">
        <ele>1334</ele>
        <time>2018-08-23T10:07:51Z</time>
      </trkpt>
      <trkpt lat="44.41548" lon="6.3513">
        <ele>1334.1999512</ele>
        <time>2018-08-23T10:08:15Z</time>
      </trkpt>
      <trkpt lat="44.41547" lon="6.35127">
        <ele>1334.4000244</ele>
        <time>2018-08-23T10:08:16Z</time>
      </trkpt>
      <trkpt lat="44.41541" lon="6.35116">
        <ele>1334.4000244</ele>
        <time>2018-08-23T10:08:18Z</time>
      </trkpt>
      <trkpt lat="44.41513" lon="6.35075">
        <ele>1334.8000488</ele>
        <time>2018-08-23T10:08:30Z</time>
      </trkpt>
      <trkpt lat="44.41514" lon="6.3507">
        <ele>1335</ele>
        <time>2018-08-23T10:08:31Z</time>
      </trkpt>
      <trkpt lat="44.4153" lon="6.3502">
        <ele>1335.8000488</ele>
        <time>2018-08-23T10:08:44Z</time>
      </trkpt>
      <trkpt lat="44.41559" lon="6.34984">
        <ele>1336.4000244</ele>
        <time>2018-08-23T10:08:55Z</time>
      </trkpt>
      <trkpt lat="44.41582" lon="6.34961">
        <ele>1338.1999512</ele>
        <time>2018-08-23T10:09:04Z</time>
      </trkpt>
      <trkpt lat="44.41632" lon="6.3495">
        <ele>1341.4000244</ele>
        <time>2018-08-23T10:09:18Z</time>
      </trkpt>
      <trkpt lat="44.41643" lon="6.34944">
        <ele>1342.5999756</ele>
        <time>2018-08-23T10:09:22Z</time>
      </trkpt>
      <trkpt lat="44.41645" lon="6.34942">
        <ele>1342.8000488</ele>
        <time>2018-08-23T10:09:23Z</time>
      </trkpt>
      <trkpt lat="44.41646" lon="6.34939">
        <ele>1343</ele>
        <time>2018-08-23T10:09:24Z</time>
      </trkpt>
      <trkpt lat="44.41648" lon="6.34935">
        <ele>1343.1999512</ele>
        <time>2018-08-23T10:09:25Z</time>
      </trkpt>
      <trkpt lat="44.41649" lon="6.34932">
        <ele>1343.4000244</ele>
        <time>2018-08-23T10:09:26Z</time>
      </trkpt>
      <trkpt lat="44.4165" lon="6.34928">
        <ele>1343.8000488</ele>
        <time>2018-08-23T10:09:27Z</time>
      </trkpt>
      <trkpt lat="44.41651" lon="6.34924">
        <ele>1344</ele>
        <time>2018-08-23T10:09:28Z</time>
      </trkpt>
      <trkpt lat="44.41652" lon="6.3492">
        <ele>1344.8000488</ele>
        <time>2018-08-23T10:09:29Z</time>
      </trkpt>
      <trkpt lat="44.41657" lon="6.34905">
        <ele>1346.8000488</ele>
        <time>2018-08-23T10:09:41Z</time>
      </trkpt>
      <trkpt lat="44.41661" lon="6.34906">
        <ele>1346.8000488</ele>
        <time>2018-08-23T10:10:30Z</time>
      </trkpt>
      <trkpt lat="44.41663" lon="6.34906">
        <ele>1346.8000488</ele>
        <time>2018-08-23T10:10:31Z</time>
      </trkpt>
      <trkpt lat="44.41665" lon="6.34906">
        <ele>1347</ele>
        <time>2018-08-23T10:10:32Z</time>
      </trkpt>
      <trkpt lat="44.41668" lon="6.34907">
        <ele>1347</ele>
        <time>2018-08-23T10:10:33Z</time>
      </trkpt>
      <trkpt lat="44.41671" lon="6.34908">
        <ele>1347</ele>
        <time>2018-08-23T10:10:34Z</time>
      </trkpt>
      <trkpt lat="44.41713" lon="6.3492">
        <ele>1347.1999512</ele>
        <time>2018-08-23T10:10:45Z</time>
      </trkpt>
      <trkpt lat="44.41767" lon="6.34951">
        <ele>1346.4000244</ele>
        <time>2018-08-23T10:10:58Z</time>
      </trkpt>
      <trkpt lat="44.41792" lon="6.34949">
        <ele>1344.5999756</ele>
        <time>2018-08-23T10:11:08Z</time>
      </trkpt>
      <trkpt lat="44.41799" lon="6.34944">
        <ele>1344.4000244</ele>
        <time>2018-08-23T10:11:12Z</time>
      </trkpt>
      <trkpt lat="44.418" lon="6.34943">
        <ele>1344.4000244</ele>
        <time>2018-08-23T10:11:13Z</time>
      </trkpt>
      <trkpt lat="44.41801" lon="6.34942">
        <ele>1344.4000244</ele>
        <time>2018-08-23T10:11:14Z</time>
      </trkpt>
      <trkpt lat="44.41812" lon="6.34934">
        <ele>1342.5999756</ele>
        <time>2018-08-23T10:11:31Z</time>
      </trkpt>
      <trkpt lat="44.41827" lon="6.34926">
        <ele>1340.4000244</ele>
        <time>2018-08-23T10:11:53Z</time>
      </trkpt>
      <trkpt lat="44.41842" lon="6.34923">
        <ele>1337.8000488</ele>
        <time>2018-08-23T10:12:16Z</time>
      </trkpt>
      <trkpt lat="44.41855" lon="6.34916">
        <ele>1336</ele>
        <time>2018-08-23T10:12:39Z</time>
      </trkpt>
      <trkpt lat="44.41867" lon="6.3491">
        <ele>1334.8000488</ele>
        <time>2018-08-23T10:13:04Z</time>
      </trkpt>
      <trkpt lat="44.41884" lon="6.34899">
        <ele>1334.1999512</ele>
        <time>2018-08-23T10:13:28Z</time>
      </trkpt>
      <trkpt lat="44.41887" lon="6.34898">
        <ele>1334</ele>
        <time>2018-08-23T10:13:31Z</time>
      </trkpt>
      <trkpt lat="44.41907" lon="6.34887">
        <ele>1332.5999756</ele>
        <time>2018-08-23T10:13:59Z</time>
      </trkpt>
      <trkpt lat="44.41927" lon="6.34873">
        <ele>1331.5999756</ele>
        <time>2018-08-23T10:14:26Z</time>
      </trkpt>
      <trkpt lat="44.41956" lon="6.34865">
        <ele>1330.1999512</ele>
        <time>2018-08-23T10:14:59Z</time>
      </trkpt>
      <trkpt lat="44.41973" lon="6.34858">
        <ele>1329.1999512</ele>
        <time>2018-08-23T10:15:27Z</time>
      </trkpt>
      <trkpt lat="44.4199" lon="6.34853">
        <ele>1329.5999756</ele>
        <time>2018-08-23T10:15:49Z</time>
      </trkpt>
      <trkpt lat="44.42008" lon="6.34852">
        <ele>1330</ele>
        <time>2018-08-23T10:16:11Z</time>
      </trkpt>
      <trkpt lat="44.42017" lon="6.34849">
        <ele>1330.8000488</ele>
        <time>2018-08-23T10:16:28Z</time>
      </trkpt>
      <trkpt lat="44.42025" lon="6.34852">
        <ele>1331.4000244</ele>
        <time>2018-08-23T10:16:41Z</time>
      </trkpt>
      <trkpt lat="44.42031" lon="6.34855">
        <ele>1332.5999756</ele>
        <time>2018-08-23T10:16:57Z</time>
      </trkpt>
      <trkpt lat="44.42038" lon="6.34855">
        <ele>1333.1999512</ele>
        <time>2018-08-23T10:17:18Z</time>
      </trkpt>
      <trkpt lat="44.42046" lon="6.34857">
        <ele>1333.5999756</ele>
        <time>2018-08-23T10:17:33Z</time>
      </trkpt>
      <trkpt lat="44.42053" lon="6.3486">
        <ele>1333.5999756</ele>
        <time>2018-08-23T10:17:46Z</time>
      </trkpt>
      <trkpt lat="44.42054" lon="6.3486">
        <ele>1333.1999512</ele>
        <time>2018-08-23T10:18:08Z</time>
      </trkpt>
      <trkpt lat="44.42056" lon="6.3486">
        <ele>1333</ele>
        <time>2018-08-23T10:18:55Z</time>
      </trkpt>
      <trkpt lat="44.42056" lon="6.34856">
        <ele>1333</ele>
        <time>2018-08-23T10:19:08Z</time>
      </trkpt>
      <trkpt lat="44.42074" lon="6.34821">
        <ele>1333</ele>
        <time>2018-08-23T10:19:20Z</time>
      </trkpt>
      <trkpt lat="44.42084" lon="6.34805">
        <ele>1332.8000488</ele>
        <time>2018-08-23T10:19:24Z</time>
      </trkpt>
      <trkpt lat="44.42086" lon="6.34799">
        <ele>1332.5999756</ele>
        <time>2018-08-23T10:19:25Z</time>
      </trkpt>
      <trkpt lat="44.42111" lon="6.3476">
        <ele>1331.8000488</ele>
        <time>2018-08-23T10:19:35Z</time>
      </trkpt>
      <trkpt lat="44.42113" lon="6.34756">
        <ele>1331.4000244</ele>
        <time>2018-08-23T10:19:36Z</time>
      </trkpt>
      <trkpt lat="44.4212" lon="6.34741">
        <ele>1331</ele>
        <time>2018-08-23T10:19:39Z</time>
      </trkpt>
      <trkpt lat="44.42124" lon="6.34736">
        <ele>1330.8000488</ele>
        <time>2018-08-23T10:19:40Z</time>
      </trkpt>
      <trkpt lat="44.42138" lon="6.34718">
        <ele>1329.5999756</ele>
        <time>2018-08-23T10:19:44Z</time>
      </trkpt>
      <trkpt lat="44.42159" lon="6.34681">
        <ele>1329.4000244</ele>
        <time>2018-08-23T10:19:51Z</time>
      </trkpt>
      <trkpt lat="44.42163" lon="6.34676">
        <ele>1329.4000244</ele>
        <time>2018-08-23T10:19:52Z</time>
      </trkpt>
      <trkpt lat="44.42165" lon="6.34671">
        <ele>1329.4000244</ele>
        <time>2018-08-23T10:19:53Z</time>
      </trkpt>
      <trkpt lat="44.42195" lon="6.3462">
        <ele>1330.4000244</ele>
        <time>2018-08-23T10:20:06Z</time>
      </trkpt>
      <trkpt lat="44.42204" lon="6.34586">
        <ele>1331.8000488</ele>
        <time>2018-08-23T10:20:16Z</time>
      </trkpt>
      <trkpt lat="44.42219" lon="6.34559">
        <ele>1333.8000488</ele>
        <time>2018-08-23T10:20:26Z</time>
      </trkpt>
      <trkpt lat="44.42221" lon="6.34557">
        <ele>1334</ele>
        <time>2018-08-23T10:20:27Z</time>
      </trkpt>
      <trkpt lat="44.42223" lon="6.34555">
        <ele>1334</ele>
        <time>2018-08-23T10:20:28Z</time>
      </trkpt>
      <trkpt lat="44.42225" lon="6.34552">
        <ele>1334.1999512</ele>
        <time>2018-08-23T10:20:29Z</time>
      </trkpt>
      <trkpt lat="44.42226" lon="6.34549">
        <ele>1334.1999512</ele>
        <time>2018-08-23T10:20:30Z</time>
      </trkpt>
      <trkpt lat="44.42228" lon="6.34546">
        <ele>1334.1999512</ele>
        <time>2018-08-23T10:20:31Z</time>
      </trkpt>
      <trkpt lat="44.4223" lon="6.34543">
        <ele>1334.1999512</ele>
        <time>2018-08-23T10:20:32Z</time>
      </trkpt>
      <trkpt lat="44.42232" lon="6.3454">
        <ele>1334.4000244</ele>
        <time>2018-08-23T10:20:33Z</time>
      </trkpt>
      <trkpt lat="44.42235" lon="6.34539">
        <ele>1334.4000244</ele>
        <time>2018-08-23T10:20:34Z</time>
      </trkpt>
      <trkpt lat="44.42237" lon="6.34537">
        <ele>1334.8000488</ele>
        <time>2018-08-23T10:20:35Z</time>
      </trkpt>
      <trkpt lat="44.4227" lon="6.34514">
        <ele>1336.1999512</ele>
        <time>2018-08-23T10:20:47Z</time>
      </trkpt>
      <trkpt lat="44.42272" lon="6.34513">
        <ele>1336.1999512</ele>
        <time>2018-08-23T10:20:48Z</time>
      </trkpt>
      <trkpt lat="44.42274" lon="6.34511">
        <ele>1336.1999512</ele>
        <time>2018-08-23T10:20:49Z</time>
      </trkpt>
      <trkpt lat="44.42308" lon="6.3448">
        <ele>1336.5999756</ele>
        <time>2018-08-23T10:21:00Z</time>
      </trkpt>
      <trkpt lat="44.42345" lon="6.34457">
        <ele>1336</ele>
        <time>2018-08-23T10:21:10Z</time>
      </trkpt>
      <trkpt lat="44.42369" lon="6.34439">
        <ele>1335.8000488</ele>
        <time>2018-08-23T10:21:20Z</time>
      </trkpt>
      <trkpt lat="44.42389" lon="6.34417">
        <ele>1337.1999512</ele>
        <time>2018-08-23T10:21:30Z</time>
      </trkpt>
      <trkpt lat="44.42411" lon="6.34389">
        <ele>1338.8000488</ele>
        <time>2018-08-23T10:21:42Z</time>
      </trkpt>
      <trkpt lat="44.42419" lon="6.34377">
        <ele>1339.8000488</ele>
        <time>2018-08-23T10:21:46Z</time>
      </trkpt>
      <trkpt lat="44.42421" lon="6.34374">
        <ele>1339.8000488</ele>
        <time>2018-08-23T10:21:47Z</time>
      </trkpt>
      <trkpt lat="44.4244" lon="6.34352">
        <ele>1341.5999756</ele>
        <time>2018-08-23T10:21:58Z</time>
      </trkpt>
      <trkpt lat="44.42466" lon="6.34324">
        <ele>1344.8000488</ele>
        <time>2018-08-23T10:22:12Z</time>
      </trkpt>
      <trkpt lat="44.4249" lon="6.34301">
        <ele>1347.1999512</ele>
        <time>2018-08-23T10:22:25Z</time>
      </trkpt>
      <trkpt lat="44.42503" lon="6.34271">
        <ele>1349.1999512</ele>
        <time>2018-08-23T10:22:36Z</time>
      </trkpt>
      <trkpt lat="44.4252" lon="6.34247">
        <ele>1351.4000244</ele>
        <time>2018-08-23T10:22:47Z</time>
      </trkpt>
      <trkpt lat="44.42532" lon="6.34227">
        <ele>1352.1999512</ele>
        <time>2018-08-23T10:22:54Z</time>
      </trkpt>
      <trkpt lat="44.42535" lon="6.34222">
        <ele>1352.4000244</ele>
        <time>2018-08-23T10:22:55Z</time>
      </trkpt>
      <trkpt lat="44.42536" lon="6.34218">
        <ele>1352.5999756</ele>
        <time>2018-08-23T10:22:56Z</time>
      </trkpt>
      <trkpt lat="44.42538" lon="6.34215">
        <ele>1353</ele>
        <time>2018-08-23T10:22:57Z</time>
      </trkpt>
      <trkpt lat="44.4254" lon="6.34212">
        <ele>1353.4000244</ele>
        <time>2018-08-23T10:22:58Z</time>
      </trkpt>
      <trkpt lat="44.42544" lon="6.34205">
        <ele>1354.4000244</ele>
        <time>2018-08-23T10:23:01Z</time>
      </trkpt>
      <trkpt lat="44.42547" lon="6.34201">
        <ele>1355</ele>
        <time>2018-08-23T10:23:03Z</time>
      </trkpt>
      <trkpt lat="44.42567" lon="6.34168">
        <ele>1356.4000244</ele>
        <time>2018-08-23T10:23:17Z</time>
      </trkpt>
      <trkpt lat="44.42567" lon="6.34163">
        <ele>1356.4000244</ele>
        <time>2018-08-23T10:23:18Z</time>
      </trkpt>
      <trkpt lat="44.42567" lon="6.34158">
        <ele>1356.4000244</ele>
        <time>2018-08-23T10:23:19Z</time>
      </trkpt>
      <trkpt lat="44.42567" lon="6.34152">
        <ele>1356.4000244</ele>
        <time>2018-08-23T10:23:20Z</time>
      </trkpt>
      <trkpt lat="44.42565" lon="6.3415">
        <ele>1356.1999512</ele>
        <time>2018-08-23T10:23:21Z</time>
      </trkpt>
      <trkpt lat="44.42564" lon="6.34148">
        <ele>1355.8000488</ele>
        <time>2018-08-23T10:23:22Z</time>
      </trkpt>
      <trkpt lat="44.42562" lon="6.34147">
        <ele>1355.5999756</ele>
        <time>2018-08-23T10:23:23Z</time>
      </trkpt>
      <trkpt lat="44.42538" lon="6.34125">
        <ele>1352.8000488</ele>
        <time>2018-08-23T10:23:34Z</time>
      </trkpt>
      <trkpt lat="44.42523" lon="6.34105">
        <ele>1350</ele>
        <time>2018-08-23T10:23:43Z</time>
      </trkpt>
      <trkpt lat="44.42508" lon="6.34069">
        <ele>1347.5999756</ele>
        <time>2018-08-23T10:23:54Z</time>
      </trkpt>
      <trkpt lat="44.42495" lon="6.34038">
        <ele>1344.8000488</ele>
        <time>2018-08-23T10:24:04Z</time>
      </trkpt>
      <trkpt lat="44.42477" lon="6.34013">
        <ele>1341.5999756</ele>
        <time>2018-08-23T10:24:12Z</time>
      </trkpt>
      <trkpt lat="44.42451" lon="6.33999">
        <ele>1339</ele>
        <time>2018-08-23T10:24:22Z</time>
      </trkpt>
      <trkpt lat="44.42419" lon="6.33983">
        <ele>1339.4000244</ele>
        <time>2018-08-23T10:24:33Z</time>
      </trkpt>
      <trkpt lat="44.42394" lon="6.33953">
        <ele>1337.1999512</ele>
        <time>2018-08-23T10:24:42Z</time>
      </trkpt>
      <trkpt lat="44.42382" lon="6.33943">
        <ele>1333.8000488</ele>
        <time>2018-08-23T10:24:47Z</time>
      </trkpt>
      <trkpt lat="44.42356" lon="6.33921">
        <ele>1331</ele>
        <time>2018-08-23T10:24:57Z</time>
      </trkpt>
      <trkpt lat="44.42332" lon="6.33869">
        <ele>1330.5999756</ele>
        <time>2018-08-23T10:25:07Z</time>
      </trkpt>
      <trkpt lat="44.4233" lon="6.33863">
        <ele>1330.5999756</ele>
        <time>2018-08-23T10:25:08Z</time>
      </trkpt>
      <trkpt lat="44.42327" lon="6.33856">
        <ele>1330.4000244</ele>
        <time>2018-08-23T10:25:09Z</time>
      </trkpt>
      <trkpt lat="44.42325" lon="6.33849">
        <ele>1330.1999512</ele>
        <time>2018-08-23T10:25:10Z</time>
      </trkpt>
      <trkpt lat="44.42324" lon="6.33842">
        <ele>1329.8000488</ele>
        <time>2018-08-23T10:25:11Z</time>
      </trkpt>
      <trkpt lat="44.42323" lon="6.33835">
        <ele>1329.5999756</ele>
        <time>2018-08-23T10:25:12Z</time>
      </trkpt>
      <trkpt lat="44.42312" lon="6.3378">
        <ele>1327</ele>
        <time>2018-08-23T10:25:22Z</time>
      </trkpt>
      <trkpt lat="44.42306" lon="6.3376">
        <ele>1326.1999512</ele>
        <time>2018-08-23T10:25:27Z</time>
      </trkpt>
      <trkpt lat="44.42303" lon="6.33757">
        <ele>1326.1999512</ele>
        <time>2018-08-23T10:25:28Z</time>
      </trkpt>
      <trkpt lat="44.42302" lon="6.33754">
        <ele>1326.1999512</ele>
        <time>2018-08-23T10:25:29Z</time>
      </trkpt>
      <trkpt lat="44.423" lon="6.33751">
        <ele>1326.1999512</ele>
        <time>2018-08-23T10:25:30Z</time>
      </trkpt>
      <trkpt lat="44.42298" lon="6.33748">
        <ele>1326.1999512</ele>
        <time>2018-08-23T10:25:31Z</time>
      </trkpt>
      <trkpt lat="44.42295" lon="6.33745">
        <ele>1326</ele>
        <time>2018-08-23T10:25:32Z</time>
      </trkpt>
      <trkpt lat="44.42293" lon="6.33742">
        <ele>1325.8000488</ele>
        <time>2018-08-23T10:25:33Z</time>
      </trkpt>
      <trkpt lat="44.42291" lon="6.33739">
        <ele>1325.5999756</ele>
        <time>2018-08-23T10:25:34Z</time>
      </trkpt>
      <trkpt lat="44.42263" lon="6.33714">
        <ele>1323.5999756</ele>
        <time>2018-08-23T10:25:44Z</time>
      </trkpt>
      <trkpt lat="44.42227" lon="6.33705">
        <ele>1322.5999756</ele>
        <time>2018-08-23T10:25:55Z</time>
      </trkpt>
      <trkpt lat="44.42219" lon="6.33706">
        <ele>1320.4000244</ele>
        <time>2018-08-23T10:26:18Z</time>
      </trkpt>
      <trkpt lat="44.42216" lon="6.33702">
        <ele>1320.5999756</ele>
        <time>2018-08-23T10:26:41Z</time>
      </trkpt>
      <trkpt lat="44.42216" lon="6.33705">
        <ele>1320.1999512</ele>
        <time>2018-08-23T10:27:00Z</time>
      </trkpt>
      <trkpt lat="44.42217" lon="6.33707">
        <ele>1320.5999756</ele>
        <time>2018-08-23T10:27:09Z</time>
      </trkpt>
      <trkpt lat="44.42222" lon="6.33707">
        <ele>1320.5999756</ele>
        <time>2018-08-23T10:27:12Z</time>
      </trkpt>
      <trkpt lat="44.42229" lon="6.33705">
        <ele>1320.5999756</ele>
        <time>2018-08-23T10:27:14Z</time>
      </trkpt>
      <trkpt lat="44.42233" lon="6.33704">
        <ele>1320.5999756</ele>
        <time>2018-08-23T10:27:15Z</time>
      </trkpt>
      <trkpt lat="44.42268" lon="6.33689">
        <ele>1319.1999512</ele>
        <time>2018-08-23T10:27:28Z</time>
      </trkpt>
      <trkpt lat="44.42276" lon="6.33685">
        <ele>1318.1999512</ele>
        <time>2018-08-23T10:27:33Z</time>
      </trkpt>
      <trkpt lat="44.42275" lon="6.3368">
        <ele>1315.5999756</ele>
        <time>2018-08-23T10:27:47Z</time>
      </trkpt>
      <trkpt lat="44.42276" lon="6.3368">
        <ele>1315.5999756</ele>
        <time>2018-08-23T10:27:48Z</time>
      </trkpt>
      <trkpt lat="44.42277" lon="6.33679">
        <ele>1315.4000244</ele>
        <time>2018-08-23T10:27:49Z</time>
      </trkpt>
      <trkpt lat="44.42288" lon="6.33679">
        <ele>1315.4000244</ele>
        <time>2018-08-23T10:28:17Z</time>
      </trkpt>
      <trkpt lat="44.42291" lon="6.33684">
        <ele>1316.1999512</ele>
        <time>2018-08-23T10:29:03Z</time>
      </trkpt>
      <trkpt lat="44.42289" lon="6.33689">
        <ele>1316.4000244</ele>
        <time>2018-08-23T10:29:45Z</time>
      </trkpt>
      <trkpt lat="44.42291" lon="6.33683">
        <ele>1315.4000244</ele>
        <time>2018-08-23T10:30:14Z</time>
      </trkpt>
      <trkpt lat="44.42275" lon="6.33683">
        <ele>1316.1999512</ele>
        <time>2018-08-23T10:30:35Z</time>
      </trkpt>
      <trkpt lat="44.42265" lon="6.33675">
        <ele>1316.4000244</ele>
        <time>2018-08-23T10:30:51Z</time>
      </trkpt>
      <trkpt lat="44.42263" lon="6.33672">
        <ele>1316.4000244</ele>
        <time>2018-08-23T10:30:52Z</time>
      </trkpt>
      <trkpt lat="44.42259" lon="6.33668">
        <ele>1316.4000244</ele>
        <time>2018-08-23T10:30:53Z</time>
      </trkpt>
      <trkpt lat="44.42233" lon="6.33637">
        <ele>1315.5999756</ele>
        <time>2018-08-23T10:31:05Z</time>
      </trkpt>
      <trkpt lat="44.42231" lon="6.33618">
        <ele>1312.4000244</ele>
        <time>2018-08-23T10:31:18Z</time>
      </trkpt>
      <trkpt lat="44.42236" lon="6.33613">
        <ele>1311.5999756</ele>
        <time>2018-08-23T10:31:25Z</time>
      </trkpt>
      <trkpt lat="44.4224" lon="6.33609">
        <ele>1311.4000244</ele>
        <time>2018-08-23T10:31:28Z</time>
      </trkpt>
      <trkpt lat="44.42244" lon="6.33606">
        <ele>1311.1999512</ele>
        <time>2018-08-23T10:31:32Z</time>
      </trkpt>
      <trkpt lat="44.42246" lon="6.33606">
        <ele>1311.1999512</ele>
        <time>2018-08-23T10:31:33Z</time>
      </trkpt>
      <trkpt lat="44.42272" lon="6.33617">
        <ele>1310.1999512</ele>
        <time>2018-08-23T10:31:45Z</time>
      </trkpt>
      <trkpt lat="44.42285" lon="6.33625">
        <ele>1309</ele>
        <time>2018-08-23T10:31:51Z</time>
      </trkpt>
      <trkpt lat="44.42287" lon="6.33626">
        <ele>1308.8000488</ele>
        <time>2018-08-23T10:31:52Z</time>
      </trkpt>
      <trkpt lat="44.42308" lon="6.33648">
        <ele>1305.5999756</ele>
        <time>2018-08-23T10:32:02Z</time>
      </trkpt>
      <trkpt lat="44.42331" lon="6.33681">
        <ele>1303.4000244</ele>
        <time>2018-08-23T10:32:12Z</time>
      </trkpt>
      <trkpt lat="44.42351" lon="6.33716">
        <ele>1300</ele>
        <time>2018-08-23T10:32:22Z</time>
      </trkpt>
      <trkpt lat="44.4236" lon="6.33731">
        <ele>1297</ele>
        <time>2018-08-23T10:32:30Z</time>
      </trkpt>
      <trkpt lat="44.42381" lon="6.33752">
        <ele>1294</ele>
        <time>2018-08-23T10:32:40Z</time>
      </trkpt>
      <trkpt lat="44.42405" lon="6.3376">
        <ele>1291</ele>
        <time>2018-08-23T10:32:51Z</time>
      </trkpt>
      <trkpt lat="44.42425" lon="6.33779">
        <ele>1288</ele>
        <time>2018-08-23T10:33:01Z</time>
      </trkpt>
      <trkpt lat="44.42446" lon="6.33782">
        <ele>1285</ele>
        <time>2018-08-23T10:33:10Z</time>
      </trkpt>
      <trkpt lat="44.42461" lon="6.33766">
        <ele>1281.5999756</ele>
        <time>2018-08-23T10:33:19Z</time>
      </trkpt>
      <trkpt lat="44.42475" lon="6.33755">
        <ele>1279</ele>
        <time>2018-08-23T10:33:29Z</time>
      </trkpt>
      <trkpt lat="44.42489" lon="6.3375">
        <ele>1275.8000488</ele>
        <time>2018-08-23T10:33:39Z</time>
      </trkpt>
      <trkpt lat="44.42519" lon="6.3374">
        <ele>1272.1999512</ele>
        <time>2018-08-23T10:33:49Z</time>
      </trkpt>
      <trkpt lat="44.42522" lon="6.33738">
        <ele>1272.1999512</ele>
        <time>2018-08-23T10:33:50Z</time>
      </trkpt>
      <trkpt lat="44.42539" lon="6.33737">
        <ele>1269.1999512</ele>
        <time>2018-08-23T10:33:55Z</time>
      </trkpt>
      <trkpt lat="44.42566" lon="6.33736">
        <ele>1266</ele>
        <time>2018-08-23T10:34:03Z</time>
      </trkpt>
      <trkpt lat="44.42571" lon="6.33735">
        <ele>1265.4000244</ele>
        <time>2018-08-23T10:34:04Z</time>
      </trkpt>
      <trkpt lat="44.42575" lon="6.33734">
        <ele>1264.5999756</ele>
        <time>2018-08-23T10:34:05Z</time>
      </trkpt>
      <trkpt lat="44.42579" lon="6.33733">
        <ele>1264.1999512</ele>
        <time>2018-08-23T10:34:06Z</time>
      </trkpt>
      <trkpt lat="44.42583" lon="6.33733">
        <ele>1263.8000488</ele>
        <time>2018-08-23T10:34:07Z</time>
      </trkpt>
      <trkpt lat="44.42587" lon="6.33733">
        <ele>1263.4000244</ele>
        <time>2018-08-23T10:34:08Z</time>
      </trkpt>
      <trkpt lat="44.4259" lon="6.33732">
        <ele>1263.1999512</ele>
        <time>2018-08-23T10:34:09Z</time>
      </trkpt>
      <trkpt lat="44.42593" lon="6.3373">
        <ele>1262.8000488</ele>
        <time>2018-08-23T10:34:10Z</time>
      </trkpt>
      <trkpt lat="44.42596" lon="6.33728">
        <ele>1262.5999756</ele>
        <time>2018-08-23T10:34:11Z</time>
      </trkpt>
      <trkpt lat="44.42633" lon="6.33719">
        <ele>1260.8000488</ele>
        <time>2018-08-23T10:34:23Z</time>
      </trkpt>
      <trkpt lat="44.42658" lon="6.33714">
        <ele>1257.8000488</ele>
        <time>2018-08-23T10:34:36Z</time>
      </trkpt>
      <trkpt lat="44.42661" lon="6.33714">
        <ele>1256.8000488</ele>
        <time>2018-08-23T10:34:38Z</time>
      </trkpt>
      <trkpt lat="44.42662" lon="6.33713">
        <ele>1256</ele>
        <time>2018-08-23T10:34:39Z</time>
      </trkpt>
      <trkpt lat="44.42664" lon="6.33712">
        <ele>1255.5999756</ele>
        <time>2018-08-23T10:34:40Z</time>
      </trkpt>
      <trkpt lat="44.42676" lon="6.33706">
        <ele>1253.4000244</ele>
        <time>2018-08-23T10:34:45Z</time>
      </trkpt>
      <trkpt lat="44.42678" lon="6.33705">
        <ele>1253</ele>
        <time>2018-08-23T10:34:46Z</time>
      </trkpt>
      <trkpt lat="44.4268" lon="6.33704">
        <ele>1252.4000244</ele>
        <time>2018-08-23T10:34:47Z</time>
      </trkpt>
      <trkpt lat="44.42682" lon="6.33703">
        <ele>1252</ele>
        <time>2018-08-23T10:34:48Z</time>
      </trkpt>
      <trkpt lat="44.42684" lon="6.337">
        <ele>1251.4000244</ele>
        <time>2018-08-23T10:34:49Z</time>
      </trkpt>
      <trkpt lat="44.42697" lon="6.33696">
        <ele>1248.4000244</ele>
        <time>2018-08-23T10:34:55Z</time>
      </trkpt>
      <trkpt lat="44.42716" lon="6.33695">
        <ele>1245.4000244</ele>
        <time>2018-08-23T10:35:01Z</time>
      </trkpt>
      <trkpt lat="44.42721" lon="6.33694">
        <ele>1244.1999512</ele>
        <time>2018-08-23T10:35:03Z</time>
      </trkpt>
      <trkpt lat="44.42724" lon="6.33694">
        <ele>1244</ele>
        <time>2018-08-23T10:35:04Z</time>
      </trkpt>
      <trkpt lat="44.42727" lon="6.33693">
        <ele>1243.8000488</ele>
        <time>2018-08-23T10:35:05Z</time>
      </trkpt>
      <trkpt lat="44.4273" lon="6.33693">
        <ele>1243.5999756</ele>
        <time>2018-08-23T10:35:06Z</time>
      </trkpt>
      <trkpt lat="44.42732" lon="6.33692">
        <ele>1243.5999756</ele>
        <time>2018-08-23T10:35:07Z</time>
      </trkpt>
      <trkpt lat="44.42734" lon="6.33692">
        <ele>1243.4000244</ele>
        <time>2018-08-23T10:35:08Z</time>
      </trkpt>
      <trkpt lat="44.42736" lon="6.3369">
        <ele>1243</ele>
        <time>2018-08-23T10:35:09Z</time>
      </trkpt>
      <trkpt lat="44.42738" lon="6.33688">
        <ele>1242.8000488</ele>
        <time>2018-08-23T10:35:10Z</time>
      </trkpt>
      <trkpt lat="44.4274" lon="6.33688">
        <ele>1242.5999756</ele>
        <time>2018-08-23T10:35:11Z</time>
      </trkpt>
      <trkpt lat="44.42744" lon="6.33689">
        <ele>1242.1999512</ele>
        <time>2018-08-23T10:35:12Z</time>
      </trkpt>
      <trkpt lat="44.42747" lon="6.33691">
        <ele>1242</ele>
        <time>2018-08-23T10:35:13Z</time>
      </trkpt>
      <trkpt lat="44.4275" lon="6.33691">
        <ele>1241.5999756</ele>
        <time>2018-08-23T10:35:14Z</time>
      </trkpt>
      <trkpt lat="44.42755" lon="6.33688">
        <ele>1241.1999512</ele>
        <time>2018-08-23T10:35:15Z</time>
      </trkpt>
      <trkpt lat="44.42757" lon="6.33687">
        <ele>1240.8000488</ele>
        <time>2018-08-23T10:35:16Z</time>
      </trkpt>
      <trkpt lat="44.4276" lon="6.33686">
        <ele>1240.5999756</ele>
        <time>2018-08-23T10:35:17Z</time>
      </trkpt>
      <trkpt lat="44.42763" lon="6.33683">
        <ele>1240.1999512</ele>
        <time>2018-08-23T10:35:18Z</time>
      </trkpt>
      <trkpt lat="44.42765" lon="6.33683">
        <ele>1240</ele>
        <time>2018-08-23T10:35:19Z</time>
      </trkpt>
      <trkpt lat="44.42767" lon="6.33683">
        <ele>1239.8000488</ele>
        <time>2018-08-23T10:35:20Z</time>
      </trkpt>
      <trkpt lat="44.42788" lon="6.33678">
        <ele>1238.5999756</ele>
        <time>2018-08-23T10:35:27Z</time>
      </trkpt>
      <trkpt lat="44.42791" lon="6.33678">
        <ele>1238.5999756</ele>
        <time>2018-08-23T10:35:28Z</time>
      </trkpt>
      <trkpt lat="44.42794" lon="6.33677">
        <ele>1238.1999512</ele>
        <time>2018-08-23T10:35:29Z</time>
      </trkpt>
      <trkpt lat="44.42819" lon="6.33674">
        <ele>1234.8000488</ele>
        <time>2018-08-23T10:35:39Z</time>
      </trkpt>
      <trkpt lat="44.42821" lon="6.33674">
        <ele>1234.5999756</ele>
        <time>2018-08-23T10:35:40Z</time>
      </trkpt>
      <trkpt lat="44.42823" lon="6.33674">
        <ele>1234.4000244</ele>
        <time>2018-08-23T10:35:41Z</time>
      </trkpt>
      <trkpt lat="44.42825" lon="6.33673">
        <ele>1234.1999512</ele>
        <time>2018-08-23T10:35:42Z</time>
      </trkpt>
      <trkpt lat="44.42827" lon="6.33672">
        <ele>1234</ele>
        <time>2018-08-23T10:35:43Z</time>
      </trkpt>
      <trkpt lat="44.42829" lon="6.3367">
        <ele>1233.8000488</ele>
        <time>2018-08-23T10:35:44Z</time>
      </trkpt>
      <trkpt lat="44.42831" lon="6.3367">
        <ele>1233.8000488</ele>
        <time>2018-08-23T10:35:45Z</time>
      </trkpt>
      <trkpt lat="44.42852" lon="6.33666">
        <ele>1230.5999756</ele>
        <time>2018-08-23T10:35:54Z</time>
      </trkpt>
      <trkpt lat="44.42874" lon="6.33653">
        <ele>1227.5999756</ele>
        <time>2018-08-23T10:36:02Z</time>
      </trkpt>
      <trkpt lat="44.4289" lon="6.33654">
        <ele>1224.4000244</ele>
        <time>2018-08-23T10:36:07Z</time>
      </trkpt>
      <trkpt lat="44.42906" lon="6.33659">
        <ele>1221.4000244</ele>
        <time>2018-08-23T10:36:12Z</time>
      </trkpt>
      <trkpt lat="44.42918" lon="6.33663">
        <ele>1219</ele>
        <time>2018-08-23T10:36:17Z</time>
      </trkpt>
      <trkpt lat="44.42923" lon="6.33664">
        <ele>1217.4000244</ele>
        <time>2018-08-23T10:36:20Z</time>
      </trkpt>
      <trkpt lat="44.42938" lon="6.33669">
        <ele>1214.1999512</ele>
        <time>2018-08-23T10:36:27Z</time>
      </trkpt>
      <trkpt lat="44.4294" lon="6.33671">
        <ele>1210.8000488</ele>
        <time>2018-08-23T10:36:35Z</time>
      </trkpt>
      <trkpt lat="44.42946" lon="6.3367">
        <ele>1209.4000244</ele>
        <time>2018-08-23T10:37:03Z</time>
      </trkpt>
      <trkpt lat="44.42947" lon="6.33671">
        <ele>1209.4000244</ele>
        <time>2018-08-23T10:37:04Z</time>
      </trkpt>
      <trkpt lat="44.4295" lon="6.33673">
        <ele>1209.4000244</ele>
        <time>2018-08-23T10:37:05Z</time>
      </trkpt>
      <trkpt lat="44.42951" lon="6.33674">
        <ele>1209.4000244</ele>
        <time>2018-08-23T10:37:06Z</time>
      </trkpt>
      <trkpt lat="44.42953" lon="6.33675">
        <ele>1209.1999512</ele>
        <time>2018-08-23T10:37:07Z</time>
      </trkpt>
      <trkpt lat="44.42962" lon="6.33674">
        <ele>1208.8000488</ele>
        <time>2018-08-23T10:37:13Z</time>
      </trkpt>
      <trkpt lat="44.42963" lon="6.33673">
        <ele>1208.5999756</ele>
        <time>2018-08-23T10:37:14Z</time>
      </trkpt>
      <trkpt lat="44.42964" lon="6.33667">
        <ele>1207.4000244</ele>
        <time>2018-08-23T10:37:17Z</time>
      </trkpt>
      <trkpt lat="44.42964" lon="6.33665">
        <ele>1204</ele>
        <time>2018-08-23T10:37:27Z</time>
      </trkpt>
      <trkpt lat="44.42962" lon="6.3367">
        <ele>1202.8000488</ele>
        <time>2018-08-23T10:38:21Z</time>
      </trkpt>
      <trkpt lat="44.42964" lon="6.33666">
        <ele>1202.5999756</ele>
        <time>2018-08-23T10:38:38Z</time>
      </trkpt>
      <trkpt lat="44.42957" lon="6.33654">
        <ele>1202.5999756</ele>
        <time>2018-08-23T10:38:42Z</time>
      </trkpt>
      <trkpt lat="44.42939" lon="6.33629">
        <ele>1202.8000488</ele>
        <time>2018-08-23T10:38:54Z</time>
      </trkpt>
      <trkpt lat="44.42932" lon="6.33623">
        <ele>1202.1999512</ele>
        <time>2018-08-23T10:39:00Z</time>
      </trkpt>
      <trkpt lat="44.42927" lon="6.33619">
        <ele>1201.8000488</ele>
        <time>2018-08-23T10:39:02Z</time>
      </trkpt>
      <trkpt lat="44.42922" lon="6.33613">
        <ele>1201.1999512</ele>
        <time>2018-08-23T10:39:04Z</time>
      </trkpt>
      <trkpt lat="44.4292" lon="6.33611">
        <ele>1200.8000488</ele>
        <time>2018-08-23T10:39:05Z</time>
      </trkpt>
      <trkpt lat="44.42917" lon="6.33609">
        <ele>1200.4000244</ele>
        <time>2018-08-23T10:39:06Z</time>
      </trkpt>
      <trkpt lat="44.42915" lon="6.33607">
        <ele>1200.1999512</ele>
        <time>2018-08-23T10:39:07Z</time>
      </trkpt>
      <trkpt lat="44.42913" lon="6.33606">
        <ele>1199.8000488</ele>
        <time>2018-08-23T10:39:08Z</time>
      </trkpt>
      <trkpt lat="44.42889" lon="6.33602">
        <ele>1196.5999756</ele>
        <time>2018-08-23T10:39:16Z</time>
      </trkpt>
      <trkpt lat="44.42886" lon="6.33601">
        <ele>1196.4000244</ele>
        <time>2018-08-23T10:39:17Z</time>
      </trkpt>
      <trkpt lat="44.42882" lon="6.336">
        <ele>1196</ele>
        <time>2018-08-23T10:39:18Z</time>
      </trkpt>
      <trkpt lat="44.42879" lon="6.33599">
        <ele>1195.8000488</ele>
        <time>2018-08-23T10:39:19Z</time>
      </trkpt>
      <trkpt lat="44.42875" lon="6.33598">
        <ele>1195.5999756</ele>
        <time>2018-08-23T10:39:20Z</time>
      </trkpt>
      <trkpt lat="44.42873" lon="6.33596">
        <ele>1195.4000244</ele>
        <time>2018-08-23T10:39:21Z</time>
      </trkpt>
      <trkpt lat="44.42871" lon="6.33594">
        <ele>1195.1999512</ele>
        <time>2018-08-23T10:39:22Z</time>
      </trkpt>
      <trkpt lat="44.42869" lon="6.33593">
        <ele>1195</ele>
        <time>2018-08-23T10:39:23Z</time>
      </trkpt>
      <trkpt lat="44.42867" lon="6.33591">
        <ele>1195</ele>
        <time>2018-08-23T10:39:24Z</time>
      </trkpt>
      <trkpt lat="44.42865" lon="6.3359">
        <ele>1195</ele>
        <time>2018-08-23T10:39:25Z</time>
      </trkpt>
      <trkpt lat="44.42862" lon="6.33589">
        <ele>1194.8000488</ele>
        <time>2018-08-23T10:39:26Z</time>
      </trkpt>
      <trkpt lat="44.42855" lon="6.33586">
        <ele>1193.5999756</ele>
        <time>2018-08-23T10:39:29Z</time>
      </trkpt>
      <trkpt lat="44.42853" lon="6.33584">
        <ele>1193.4000244</ele>
        <time>2018-08-23T10:39:30Z</time>
      </trkpt>
      <trkpt lat="44.42842" lon="6.3358">
        <ele>1191.4000244</ele>
        <time>2018-08-23T10:39:36Z</time>
      </trkpt>
      <trkpt lat="44.42818" lon="6.3357">
        <ele>1188.4000244</ele>
        <time>2018-08-23T10:39:47Z</time>
      </trkpt>
      <trkpt lat="44.42801" lon="6.33557">
        <ele>1186.1999512</ele>
        <time>2018-08-23T10:39:56Z</time>
      </trkpt>
      <trkpt lat="44.42799" lon="6.33556">
        <ele>1186</ele>
        <time>2018-08-23T10:39:57Z</time>
      </trkpt>
      <trkpt lat="44.42782" lon="6.33543">
        <ele>1182.8000488</ele>
        <time>2018-08-23T10:40:04Z</time>
      </trkpt>
      <trkpt lat="44.42761" lon="6.33514">
        <ele>1179.8000488</ele>
        <time>2018-08-23T10:40:11Z</time>
      </trkpt>
      <trkpt lat="44.42731" lon="6.3348">
        <ele>1176.8000488</ele>
        <time>2018-08-23T10:40:20Z</time>
      </trkpt>
      <trkpt lat="44.42719" lon="6.33457">
        <ele>1174.1999512</ele>
        <time>2018-08-23T10:40:28Z</time>
      </trkpt>
      <trkpt lat="44.42718" lon="6.33454">
        <ele>1173.5999756</ele>
        <time>2018-08-23T10:40:29Z</time>
      </trkpt>
      <trkpt lat="44.42717" lon="6.33451">
        <ele>1173.1999512</ele>
        <time>2018-08-23T10:40:30Z</time>
      </trkpt>
      <trkpt lat="44.42703" lon="6.33426">
        <ele>1170.4000244</ele>
        <time>2018-08-23T10:40:39Z</time>
      </trkpt>
      <trkpt lat="44.42689" lon="6.33405">
        <ele>1168</ele>
        <time>2018-08-23T10:40:49Z</time>
      </trkpt>
      <trkpt lat="44.42682" lon="6.33395">
        <ele>1165</ele>
        <time>2018-08-23T10:41:00Z</time>
      </trkpt>
      <trkpt lat="44.42687" lon="6.33388">
        <ele>1164.1999512</ele>
        <time>2018-08-23T10:41:08Z</time>
      </trkpt>
      <trkpt lat="44.42689" lon="6.33388">
        <ele>1164</ele>
        <time>2018-08-23T10:41:09Z</time>
      </trkpt>
      <trkpt lat="44.42694" lon="6.33388">
        <ele>1163.1999512</ele>
        <time>2018-08-23T10:41:11Z</time>
      </trkpt>
      <trkpt lat="44.42712" lon="6.33384">
        <ele>1159.5999756</ele>
        <time>2018-08-23T10:41:20Z</time>
      </trkpt>
      <trkpt lat="44.42715" lon="6.33387">
        <ele>1156.4000244</ele>
        <time>2018-08-23T10:41:33Z</time>
      </trkpt>
      <trkpt lat="44.42719" lon="6.33388">
        <ele>1156</ele>
        <time>2018-08-23T10:41:43Z</time>
      </trkpt>
      <trkpt lat="44.42725" lon="6.33388">
        <ele>1156</ele>
        <time>2018-08-23T10:41:46Z</time>
      </trkpt>
      <trkpt lat="44.42732" lon="6.33385">
        <ele>1155.8000488</ele>
        <time>2018-08-23T10:41:48Z</time>
      </trkpt>
      <trkpt lat="44.4274" lon="6.33381">
        <ele>1155.8000488</ele>
        <time>2018-08-23T10:41:50Z</time>
      </trkpt>
      <trkpt lat="44.42744" lon="6.3338">
        <ele>1155.8000488</ele>
        <time>2018-08-23T10:41:51Z</time>
      </trkpt>
      <trkpt lat="44.42749" lon="6.33382">
        <ele>1155.8000488</ele>
        <time>2018-08-23T10:41:52Z</time>
      </trkpt>
      <trkpt lat="44.42753" lon="6.33382">
        <ele>1155.5999756</ele>
        <time>2018-08-23T10:41:53Z</time>
      </trkpt>
      <trkpt lat="44.42756" lon="6.33383">
        <ele>1155.4000244</ele>
        <time>2018-08-23T10:41:54Z</time>
      </trkpt>
      <trkpt lat="44.42759" lon="6.33383">
        <ele>1155.1999512</ele>
        <time>2018-08-23T10:41:55Z</time>
      </trkpt>
      <trkpt lat="44.42767" lon="6.33383">
        <ele>1151.8000488</ele>
        <time>2018-08-23T10:42:04Z</time>
      </trkpt>
      <trkpt lat="44.42765" lon="6.33376">
        <ele>1150.8000488</ele>
        <time>2018-08-23T10:42:58Z</time>
      </trkpt>
      <trkpt lat="44.42767" lon="6.33374">
        <ele>1150.5999756</ele>
        <time>2018-08-23T10:43:40Z</time>
      </trkpt>
      <trkpt lat="44.42765" lon="6.33374">
        <ele>1150.8000488</ele>
        <time>2018-08-23T10:44:50Z</time>
      </trkpt>
      <trkpt lat="44.42765" lon="6.33376">
        <ele>1151</ele>
        <time>2018-08-23T10:45:48Z</time>
      </trkpt>
      <trkpt lat="44.42767" lon="6.33369">
        <ele>1151.1999512</ele>
        <time>2018-08-23T10:45:51Z</time>
      </trkpt>
      <trkpt lat="44.4277" lon="6.33359">
        <ele>1151.1999512</ele>
        <time>2018-08-23T10:45:53Z</time>
      </trkpt>
      <trkpt lat="44.42773" lon="6.33348">
        <ele>1151.1999512</ele>
        <time>2018-08-23T10:45:55Z</time>
      </trkpt>
      <trkpt lat="44.42775" lon="6.33342">
        <ele>1151.1999512</ele>
        <time>2018-08-23T10:45:56Z</time>
      </trkpt>
      <trkpt lat="44.42776" lon="6.33337">
        <ele>1151.1999512</ele>
        <time>2018-08-23T10:45:57Z</time>
      </trkpt>
      <trkpt lat="44.42775" lon="6.33316">
        <ele>1150.8000488</ele>
        <time>2018-08-23T10:46:01Z</time>
      </trkpt>
      <trkpt lat="44.42774" lon="6.3331">
        <ele>1150.5999756</ele>
        <time>2018-08-23T10:46:02Z</time>
      </trkpt>
      <trkpt lat="44.42771" lon="6.33304">
        <ele>1150.4000244</ele>
        <time>2018-08-23T10:46:03Z</time>
      </trkpt>
      <trkpt lat="44.42769" lon="6.33298">
        <ele>1150.1999512</ele>
        <time>2018-08-23T10:46:04Z</time>
      </trkpt>
      <trkpt lat="44.42767" lon="6.33292">
        <ele>1149.8000488</ele>
        <time>2018-08-23T10:46:05Z</time>
      </trkpt>
      <trkpt lat="44.42766" lon="6.33287">
        <ele>1149.5999756</ele>
        <time>2018-08-23T10:46:06Z</time>
      </trkpt>
      <trkpt lat="44.42765" lon="6.33282">
        <ele>1149.4000244</ele>
        <time>2018-08-23T10:46:07Z</time>
      </trkpt>
      <trkpt lat="44.42764" lon="6.33278">
        <ele>1149</ele>
        <time>2018-08-23T10:46:08Z</time>
      </trkpt>
      <trkpt lat="44.42763" lon="6.33274">
        <ele>1148.8000488</ele>
        <time>2018-08-23T10:46:09Z</time>
      </trkpt>
      <trkpt lat="44.42762" lon="6.3327">
        <ele>1148.5999756</ele>
        <time>2018-08-23T10:46:10Z</time>
      </trkpt>
      <trkpt lat="44.42761" lon="6.33266">
        <ele>1148.4000244</ele>
        <time>2018-08-23T10:46:11Z</time>
      </trkpt>
      <trkpt lat="44.42746" lon="6.3323">
        <ele>1148.4000244</ele>
        <time>2018-08-23T10:46:20Z</time>
      </trkpt>
      <trkpt lat="44.42743" lon="6.33201">
        <ele>1149.5999756</ele>
        <time>2018-08-23T10:46:27Z</time>
      </trkpt>
      <trkpt lat="44.42743" lon="6.33198">
        <ele>1149.8000488</ele>
        <time>2018-08-23T10:46:28Z</time>
      </trkpt>
      <trkpt lat="44.42743" lon="6.33195">
        <ele>1149.8000488</ele>
        <time>2018-08-23T10:46:29Z</time>
      </trkpt>
      <trkpt lat="44.42743" lon="6.33192">
        <ele>1149.8000488</ele>
        <time>2018-08-23T10:46:30Z</time>
      </trkpt>
      <trkpt lat="44.42743" lon="6.33188">
        <ele>1149.8000488</ele>
        <time>2018-08-23T10:46:31Z</time>
      </trkpt>
      <trkpt lat="44.42751" lon="6.33144">
        <ele>1150.8000488</ele>
        <time>2018-08-23T10:46:42Z</time>
      </trkpt>
      <trkpt lat="44.42756" lon="6.33107">
        <ele>1151.5999756</ele>
        <time>2018-08-23T10:46:52Z</time>
      </trkpt>
      <trkpt lat="44.42759" lon="6.33066">
        <ele>1153.5999756</ele>
        <time>2018-08-23T10:47:03Z</time>
      </trkpt>
      <trkpt lat="44.42761" lon="6.33063">
        <ele>1153.8000488</ele>
        <time>2018-08-23T10:47:04Z</time>
      </trkpt>
      <trkpt lat="44.42763" lon="6.33062">
        <ele>1153.8000488</ele>
        <time>2018-08-23T10:47:05Z</time>
      </trkpt>
      <trkpt lat="44.42765" lon="6.33061">
        <ele>1154</ele>
        <time>2018-08-23T10:47:06Z</time>
      </trkpt>
      <trkpt lat="44.42766" lon="6.3306">
        <ele>1154.1999512</ele>
        <time>2018-08-23T10:47:07Z</time>
      </trkpt>
      <trkpt lat="44.42769" lon="6.33057">
        <ele>1154.5999756</ele>
        <time>2018-08-23T10:47:09Z</time>
      </trkpt>
      <trkpt lat="44.4277" lon="6.33056">
        <ele>1155</ele>
        <time>2018-08-23T10:47:10Z</time>
      </trkpt>
      <trkpt lat="44.42772" lon="6.33054">
        <ele>1155.4000244</ele>
        <time>2018-08-23T10:47:11Z</time>
      </trkpt>
      <trkpt lat="44.42774" lon="6.33051">
        <ele>1155.8000488</ele>
        <time>2018-08-23T10:47:12Z</time>
      </trkpt>
      <trkpt lat="44.42776" lon="6.33049">
        <ele>1156.5999756</ele>
        <time>2018-08-23T10:47:13Z</time>
      </trkpt>
      <trkpt lat="44.42778" lon="6.33047">
        <ele>1156.5999756</ele>
        <time>2018-08-23T10:47:14Z</time>
      </trkpt>
      <trkpt lat="44.4279" lon="6.33041">
        <ele>1159</ele>
        <time>2018-08-23T10:47:20Z</time>
      </trkpt>
      <trkpt lat="44.42792" lon="6.33039">
        <ele>1159.4000244</ele>
        <time>2018-08-23T10:47:21Z</time>
      </trkpt>
      <trkpt lat="44.42794" lon="6.33039">
        <ele>1159.8000488</ele>
        <time>2018-08-23T10:47:22Z</time>
      </trkpt>
      <trkpt lat="44.42796" lon="6.33038">
        <ele>1160.1999512</ele>
        <time>2018-08-23T10:47:23Z</time>
      </trkpt>
      <trkpt lat="44.42798" lon="6.33038">
        <ele>1160.4000244</ele>
        <time>2018-08-23T10:47:24Z</time>
      </trkpt>
      <trkpt lat="44.42827" lon="6.33019">
        <ele>1163</ele>
        <time>2018-08-23T10:47:35Z</time>
      </trkpt>
      <trkpt lat="44.42856" lon="6.32999">
        <ele>1161.4000244</ele>
        <time>2018-08-23T10:47:45Z</time>
      </trkpt>
      <trkpt lat="44.42879" lon="6.3299">
        <ele>1160.8000488</ele>
        <time>2018-08-23T10:47:54Z</time>
      </trkpt>
      <trkpt lat="44.42882" lon="6.32988">
        <ele>1160.8000488</ele>
        <time>2018-08-23T10:47:55Z</time>
      </trkpt>
      <trkpt lat="44.42885" lon="6.32985">
        <ele>1160.8000488</ele>
        <time>2018-08-23T10:47:56Z</time>
      </trkpt>
      <trkpt lat="44.42887" lon="6.32985">
        <ele>1160.8000488</ele>
        <time>2018-08-23T10:47:57Z</time>
      </trkpt>
      <trkpt lat="44.42888" lon="6.32985">
        <ele>1161</ele>
        <time>2018-08-23T10:47:58Z</time>
      </trkpt>
      <trkpt lat="44.42891" lon="6.32984">
        <ele>1161</ele>
        <time>2018-08-23T10:47:59Z</time>
      </trkpt>
      <trkpt lat="44.42894" lon="6.32981">
        <ele>1161.1999512</ele>
        <time>2018-08-23T10:48:01Z</time>
      </trkpt>
      <trkpt lat="44.42899" lon="6.32978">
        <ele>1161.5999756</ele>
        <time>2018-08-23T10:48:04Z</time>
      </trkpt>
      <trkpt lat="44.42901" lon="6.32978">
        <ele>1161.8000488</ele>
        <time>2018-08-23T10:48:05Z</time>
      </trkpt>
      <trkpt lat="44.42903" lon="6.32977">
        <ele>1162.1999512</ele>
        <time>2018-08-23T10:48:06Z</time>
      </trkpt>
      <trkpt lat="44.42906" lon="6.32976">
        <ele>1162.8000488</ele>
        <time>2018-08-23T10:48:07Z</time>
      </trkpt>
      <trkpt lat="44.42908" lon="6.32975">
        <ele>1162.8000488</ele>
        <time>2018-08-23T10:48:08Z</time>
      </trkpt>
      <trkpt lat="44.4291" lon="6.32974">
        <ele>1162.8000488</ele>
        <time>2018-08-23T10:48:09Z</time>
      </trkpt>
      <trkpt lat="44.42912" lon="6.32973">
        <ele>1163</ele>
        <time>2018-08-23T10:48:10Z</time>
      </trkpt>
      <trkpt lat="44.42913" lon="6.32973">
        <ele>1163</ele>
        <time>2018-08-23T10:48:11Z</time>
      </trkpt>
      <trkpt lat="44.42934" lon="6.32963">
        <ele>1164.1999512</ele>
        <time>2018-08-23T10:48:20Z</time>
      </trkpt>
      <trkpt lat="44.4296" lon="6.32941">
        <ele>1165.8000488</ele>
        <time>2018-08-23T10:48:31Z</time>
      </trkpt>
      <trkpt lat="44.42979" lon="6.32922">
        <ele>1168.4000244</ele>
        <time>2018-08-23T10:48:41Z</time>
      </trkpt>
      <trkpt lat="44.42999" lon="6.32899">
        <ele>1169.4000244</ele>
        <time>2018-08-23T10:48:52Z</time>
      </trkpt>
      <trkpt lat="44.43019" lon="6.32892">
        <ele>1170.8000488</ele>
        <time>2018-08-23T10:49:02Z</time>
      </trkpt>
      <trkpt lat="44.43021" lon="6.3289">
        <ele>1171</ele>
        <time>2018-08-23T10:49:03Z</time>
      </trkpt>
      <trkpt lat="44.43024" lon="6.32888">
        <ele>1171.1999512</ele>
        <time>2018-08-23T10:49:04Z</time>
      </trkpt>
      <trkpt lat="44.43027" lon="6.32886">
        <ele>1171.4000244</ele>
        <time>2018-08-23T10:49:05Z</time>
      </trkpt>
      <trkpt lat="44.4303" lon="6.32884">
        <ele>1171.5999756</ele>
        <time>2018-08-23T10:49:06Z</time>
      </trkpt>
      <trkpt lat="44.43033" lon="6.32882">
        <ele>1171.8000488</ele>
        <time>2018-08-23T10:49:07Z</time>
      </trkpt>
      <trkpt lat="44.43052" lon="6.32863">
        <ele>1173</ele>
        <time>2018-08-23T10:49:16Z</time>
      </trkpt>
      <trkpt lat="44.43054" lon="6.32861">
        <ele>1173</ele>
        <time>2018-08-23T10:49:17Z</time>
      </trkpt>
      <trkpt lat="44.43084" lon="6.32846">
        <ele>1174</ele>
        <time>2018-08-23T10:49:28Z</time>
      </trkpt>
      <trkpt lat="44.43086" lon="6.32845">
        <ele>1174.1999512</ele>
        <time>2018-08-23T10:49:29Z</time>
      </trkpt>
      <trkpt lat="44.43089" lon="6.32843">
        <ele>1174.1999512</ele>
        <time>2018-08-23T10:49:30Z</time>
      </trkpt>
      <trkpt lat="44.4312" lon="6.32825">
        <ele>1176.4000244</ele>
        <time>2018-08-23T10:49:41Z</time>
      </trkpt>
      <trkpt lat="44.43143" lon="6.32798">
        <ele>1178.4000244</ele>
        <time>2018-08-23T10:49:52Z</time>
      </trkpt>
      <trkpt lat="44.43163" lon="6.3276">
        <ele>1179.1999512</ele>
        <time>2018-08-23T10:50:01Z</time>
      </trkpt>
      <trkpt lat="44.4318" lon="6.32733">
        <ele>1180.4000244</ele>
        <time>2018-08-23T10:50:10Z</time>
      </trkpt>
      <trkpt lat="44.43195" lon="6.32718">
        <ele>1182.1999512</ele>
        <time>2018-08-23T10:50:17Z</time>
      </trkpt>
      <trkpt lat="44.43213" lon="6.32697">
        <ele>1182.5999756</ele>
        <time>2018-08-23T10:50:25Z</time>
      </trkpt>
      <trkpt lat="44.43215" lon="6.32695">
        <ele>1182.5999756</ele>
        <time>2018-08-23T10:50:26Z</time>
      </trkpt>
      <trkpt lat="44.43218" lon="6.32692">
        <ele>1182.5999756</ele>
        <time>2018-08-23T10:50:27Z</time>
      </trkpt>
      <trkpt lat="44.4322" lon="6.32689">
        <ele>1182.4000244</ele>
        <time>2018-08-23T10:50:28Z</time>
      </trkpt>
      <trkpt lat="44.43223" lon="6.32686">
        <ele>1182.4000244</ele>
        <time>2018-08-23T10:50:29Z</time>
      </trkpt>
      <trkpt lat="44.43224" lon="6.32682">
        <ele>1182.4000244</ele>
        <time>2018-08-23T10:50:30Z</time>
      </trkpt>
      <trkpt lat="44.43227" lon="6.32679">
        <ele>1182.4000244</ele>
        <time>2018-08-23T10:50:31Z</time>
      </trkpt>
      <trkpt lat="44.43231" lon="6.32675">
        <ele>1182.4000244</ele>
        <time>2018-08-23T10:50:32Z</time>
      </trkpt>
      <trkpt lat="44.43234" lon="6.32672">
        <ele>1182.1999512</ele>
        <time>2018-08-23T10:50:33Z</time>
      </trkpt>
      <trkpt lat="44.43255" lon="6.32653">
        <ele>1180.1999512</ele>
        <time>2018-08-23T10:50:40Z</time>
      </trkpt>
      <trkpt lat="44.4328" lon="6.32614">
        <ele>1180</ele>
        <time>2018-08-23T10:50:52Z</time>
      </trkpt>
      <trkpt lat="44.43301" lon="6.32573">
        <ele>1182</ele>
        <time>2018-08-23T10:51:03Z</time>
      </trkpt>
      <trkpt lat="44.43307" lon="6.32556">
        <ele>1185</ele>
        <time>2018-08-23T10:51:09Z</time>
      </trkpt>
      <trkpt lat="44.43307" lon="6.32553">
        <ele>1185.4000244</ele>
        <time>2018-08-23T10:51:10Z</time>
      </trkpt>
      <trkpt lat="44.43307" lon="6.3255">
        <ele>1185.8000488</ele>
        <time>2018-08-23T10:51:11Z</time>
      </trkpt>
      <trkpt lat="44.43307" lon="6.32546">
        <ele>1185.8000488</ele>
        <time>2018-08-23T10:51:12Z</time>
      </trkpt>
      <trkpt lat="44.43308" lon="6.32543">
        <ele>1186</ele>
        <time>2018-08-23T10:51:13Z</time>
      </trkpt>
      <trkpt lat="44.43307" lon="6.32539">
        <ele>1186.1999512</ele>
        <time>2018-08-23T10:51:14Z</time>
      </trkpt>
      <trkpt lat="44.43313" lon="6.3251">
        <ele>1189.5999756</ele>
        <time>2018-08-23T10:51:23Z</time>
      </trkpt>
      <trkpt lat="44.43315" lon="6.32508">
        <ele>1190</ele>
        <time>2018-08-23T10:51:24Z</time>
      </trkpt>
      <trkpt lat="44.43317" lon="6.32506">
        <ele>1190.4000244</ele>
        <time>2018-08-23T10:51:25Z</time>
      </trkpt>
      <trkpt lat="44.43318" lon="6.32504">
        <ele>1190.8000488</ele>
        <time>2018-08-23T10:51:26Z</time>
      </trkpt>
      <trkpt lat="44.4332" lon="6.32502">
        <ele>1191.1999512</ele>
        <time>2018-08-23T10:51:27Z</time>
      </trkpt>
      <trkpt lat="44.43341" lon="6.32495">
        <ele>1194.1999512</ele>
        <time>2018-08-23T10:51:37Z</time>
      </trkpt>
      <trkpt lat="44.43351" lon="6.32488">
        <ele>1195.8000488</ele>
        <time>2018-08-23T10:51:42Z</time>
      </trkpt>
      <trkpt lat="44.43352" lon="6.32485">
        <ele>1196</ele>
        <time>2018-08-23T10:51:43Z</time>
      </trkpt>
      <trkpt lat="44.43356" lon="6.3248">
        <ele>1196.5999756</ele>
        <time>2018-08-23T10:51:45Z</time>
      </trkpt>
      <trkpt lat="44.43358" lon="6.32479">
        <ele>1196.8000488</ele>
        <time>2018-08-23T10:51:46Z</time>
      </trkpt>
      <trkpt lat="44.4338" lon="6.32454">
        <ele>1198.1999512</ele>
        <time>2018-08-23T10:51:57Z</time>
      </trkpt>
      <trkpt lat="44.43387" lon="6.32441">
        <ele>1199</ele>
        <time>2018-08-23T10:52:01Z</time>
      </trkpt>
      <trkpt lat="44.43389" lon="6.32438">
        <ele>1199.1999512</ele>
        <time>2018-08-23T10:52:02Z</time>
      </trkpt>
      <trkpt lat="44.43391" lon="6.32435">
        <ele>1199.1999512</ele>
        <time>2018-08-23T10:52:03Z</time>
      </trkpt>
      <trkpt lat="44.43392" lon="6.32431">
        <ele>1199.4000244</ele>
        <time>2018-08-23T10:52:04Z</time>
      </trkpt>
      <trkpt lat="44.43394" lon="6.32429">
        <ele>1199.4000244</ele>
        <time>2018-08-23T10:52:05Z</time>
      </trkpt>
      <trkpt lat="44.43395" lon="6.32427">
        <ele>1199.5999756</ele>
        <time>2018-08-23T10:52:06Z</time>
      </trkpt>
      <trkpt lat="44.43397" lon="6.32426">
        <ele>1199.8000488</ele>
        <time>2018-08-23T10:52:07Z</time>
      </trkpt>
      <trkpt lat="44.43415" lon="6.32397">
        <ele>1201.4000244</ele>
        <time>2018-08-23T10:52:18Z</time>
      </trkpt>
      <trkpt lat="44.43441" lon="6.32382">
        <ele>1203</ele>
        <time>2018-08-23T10:52:26Z</time>
      </trkpt>
      <trkpt lat="44.43473" lon="6.32357">
        <ele>1202.8000488</ele>
        <time>2018-08-23T10:52:37Z</time>
      </trkpt>
      <trkpt lat="44.43503" lon="6.32334">
        <ele>1202.8000488</ele>
        <time>2018-08-23T10:52:48Z</time>
      </trkpt>
      <trkpt lat="44.43529" lon="6.32296">
        <ele>1202.8000488</ele>
        <time>2018-08-23T10:52:58Z</time>
      </trkpt>
      <trkpt lat="44.43543" lon="6.32269">
        <ele>1202.5999756</ele>
        <time>2018-08-23T10:53:04Z</time>
      </trkpt>
      <trkpt lat="44.43548" lon="6.32265">
        <ele>1202.5999756</ele>
        <time>2018-08-23T10:53:05Z</time>
      </trkpt>
      <trkpt lat="44.4355" lon="6.32261">
        <ele>1202.4000244</ele>
        <time>2018-08-23T10:53:06Z</time>
      </trkpt>
      <trkpt lat="44.43553" lon="6.32258">
        <ele>1202.4000244</ele>
        <time>2018-08-23T10:53:07Z</time>
      </trkpt>
      <trkpt lat="44.43555" lon="6.32254">
        <ele>1202.4000244</ele>
        <time>2018-08-23T10:53:08Z</time>
      </trkpt>
      <trkpt lat="44.43584" lon="6.32214">
        <ele>1202.5999756</ele>
        <time>2018-08-23T10:53:20Z</time>
      </trkpt>
      <trkpt lat="44.43587" lon="6.32211">
        <ele>1202.5999756</ele>
        <time>2018-08-23T10:53:21Z</time>
      </trkpt>
      <trkpt lat="44.4359" lon="6.32209">
        <ele>1202.5999756</ele>
        <time>2018-08-23T10:53:22Z</time>
      </trkpt>
      <trkpt lat="44.43593" lon="6.32206">
        <ele>1202.5999756</ele>
        <time>2018-08-23T10:53:23Z</time>
      </trkpt>
      <trkpt lat="44.43596" lon="6.32204">
        <ele>1202.5999756</ele>
        <time>2018-08-23T10:53:24Z</time>
      </trkpt>
      <trkpt lat="44.43601" lon="6.32203">
        <ele>1202.5999756</ele>
        <time>2018-08-23T10:53:25Z</time>
      </trkpt>
      <trkpt lat="44.43606" lon="6.32201">
        <ele>1202.5999756</ele>
        <time>2018-08-23T10:53:26Z</time>
      </trkpt>
      <trkpt lat="44.4361" lon="6.32199">
        <ele>1202.5999756</ele>
        <time>2018-08-23T10:53:27Z</time>
      </trkpt>
      <trkpt lat="44.43639" lon="6.32186">
        <ele>1201.4000244</ele>
        <time>2018-08-23T10:53:34Z</time>
      </trkpt>
      <trkpt lat="44.43673" lon="6.32176">
        <ele>1200.1999512</ele>
        <time>2018-08-23T10:53:41Z</time>
      </trkpt>
      <trkpt lat="44.43703" lon="6.32158">
        <ele>1198.8000488</ele>
        <time>2018-08-23T10:53:48Z</time>
      </trkpt>
      <trkpt lat="44.43728" lon="6.32142">
        <ele>1197.1999512</ele>
        <time>2018-08-23T10:53:56Z</time>
      </trkpt>
      <trkpt lat="44.43752" lon="6.32117">
        <ele>1196.4000244</ele>
        <time>2018-08-23T10:54:03Z</time>
      </trkpt>
      <trkpt lat="44.43755" lon="6.32113">
        <ele>1196.1999512</ele>
        <time>2018-08-23T10:54:04Z</time>
      </trkpt>
      <trkpt lat="44.43771" lon="6.32096">
        <ele>1196.1999512</ele>
        <time>2018-08-23T10:54:08Z</time>
      </trkpt>
      <trkpt lat="44.43782" lon="6.32083">
        <ele>1196</ele>
        <time>2018-08-23T10:54:11Z</time>
      </trkpt>
      <trkpt lat="44.43785" lon="6.32079">
        <ele>1195.8000488</ele>
        <time>2018-08-23T10:54:12Z</time>
      </trkpt>
      <trkpt lat="44.43794" lon="6.32068">
        <ele>1195.4000244</ele>
        <time>2018-08-23T10:54:15Z</time>
      </trkpt>
      <trkpt lat="44.43798" lon="6.32064">
        <ele>1195.1999512</ele>
        <time>2018-08-23T10:54:16Z</time>
      </trkpt>
      <trkpt lat="44.43851" lon="6.32019">
        <ele>1194.1999512</ele>
        <time>2018-08-23T10:54:27Z</time>
      </trkpt>
      <trkpt lat="44.43884" lon="6.31992">
        <ele>1192.4000244</ele>
        <time>2018-08-23T10:54:37Z</time>
      </trkpt>
      <trkpt lat="44.43923" lon="6.31956">
        <ele>1192.8000488</ele>
        <time>2018-08-23T10:54:50Z</time>
      </trkpt>
      <trkpt lat="44.43967" lon="6.31927">
        <ele>1193.5999756</ele>
        <time>2018-08-23T10:55:03Z</time>
      </trkpt>
      <trkpt lat="44.43994" lon="6.31911">
        <ele>1193.8000488</ele>
        <time>2018-08-23T10:55:11Z</time>
      </trkpt>
      <trkpt lat="44.44027" lon="6.31885">
        <ele>1193.4000244</ele>
        <time>2018-08-23T10:55:23Z</time>
      </trkpt>
      <trkpt lat="44.44054" lon="6.31871">
        <ele>1190.1999512</ele>
        <time>2018-08-23T10:55:34Z</time>
      </trkpt>
      <trkpt lat="44.44062" lon="6.31869">
        <ele>1188.4000244</ele>
        <time>2018-08-23T10:55:38Z</time>
      </trkpt>
      <trkpt lat="44.44074" lon="6.31862">
        <ele>1186.5999756</ele>
        <time>2018-08-23T10:55:44Z</time>
      </trkpt>
      <trkpt lat="44.44084" lon="6.31853">
        <ele>1184.4000244</ele>
        <time>2018-08-23T10:55:50Z</time>
      </trkpt>
      <trkpt lat="44.441" lon="6.31824">
        <ele>1181</ele>
        <time>2018-08-23T10:55:59Z</time>
      </trkpt>
      <trkpt lat="44.44117" lon="6.31804">
        <ele>1177.8000488</ele>
        <time>2018-08-23T10:56:07Z</time>
      </trkpt>
      <trkpt lat="44.44128" lon="6.31792">
        <ele>1174</ele>
        <time>2018-08-23T10:56:13Z</time>
      </trkpt>
      <trkpt lat="44.44144" lon="6.31768">
        <ele>1170.8000488</ele>
        <time>2018-08-23T10:56:22Z</time>
      </trkpt>
      <trkpt lat="44.44154" lon="6.31754">
        <ele>1168.4000244</ele>
        <time>2018-08-23T10:56:28Z</time>
      </trkpt>
      <trkpt lat="44.44162" lon="6.31745">
        <ele>1166.8000488</ele>
        <time>2018-08-23T10:56:32Z</time>
      </trkpt>
      <trkpt lat="44.44165" lon="6.31745">
        <ele>1166.4000244</ele>
        <time>2018-08-23T10:56:33Z</time>
      </trkpt>
      <trkpt lat="44.44189" lon="6.31741">
        <ele>1163.4000244</ele>
        <time>2018-08-23T10:56:42Z</time>
      </trkpt>
      <trkpt lat="44.44206" lon="6.31734">
        <ele>1160</ele>
        <time>2018-08-23T10:56:49Z</time>
      </trkpt>
      <trkpt lat="44.4423" lon="6.31717">
        <ele>1156.8000488</ele>
        <time>2018-08-23T10:56:59Z</time>
      </trkpt>
      <trkpt lat="44.44247" lon="6.31701">
        <ele>1153.8000488</ele>
        <time>2018-08-23T10:57:06Z</time>
      </trkpt>
      <trkpt lat="44.44275" lon="6.3167">
        <ele>1150.8000488</ele>
        <time>2018-08-23T10:57:17Z</time>
      </trkpt>
      <trkpt lat="44.44294" lon="6.31636">
        <ele>1148.1999512</ele>
        <time>2018-08-23T10:57:27Z</time>
      </trkpt>
      <trkpt lat="44.44298" lon="6.31599">
        <ele>1145.8000488</ele>
        <time>2018-08-23T10:57:36Z</time>
      </trkpt>
      <trkpt lat="44.44304" lon="6.31593">
        <ele>1145.5999756</ele>
        <time>2018-08-23T10:57:55Z</time>
      </trkpt>
      <trkpt lat="44.44305" lon="6.3159">
        <ele>1145.8000488</ele>
        <time>2018-08-23T10:58:08Z</time>
      </trkpt>
      <trkpt lat="44.44305" lon="6.31588">
        <ele>1145.8000488</ele>
        <time>2018-08-23T10:58:09Z</time>
      </trkpt>
      <trkpt lat="44.44306" lon="6.31585">
        <ele>1145.8000488</ele>
        <time>2018-08-23T10:58:10Z</time>
      </trkpt>
      <trkpt lat="44.44308" lon="6.31583">
        <ele>1145.8000488</ele>
        <time>2018-08-23T10:58:11Z</time>
      </trkpt>
      <trkpt lat="44.44309" lon="6.3158">
        <ele>1145.8000488</ele>
        <time>2018-08-23T10:58:12Z</time>
      </trkpt>
      <trkpt lat="44.44311" lon="6.31577">
        <ele>1145.8000488</ele>
        <time>2018-08-23T10:58:13Z</time>
      </trkpt>
      <trkpt lat="44.44312" lon="6.31575">
        <ele>1145.8000488</ele>
        <time>2018-08-23T10:58:14Z</time>
      </trkpt>
      <trkpt lat="44.44313" lon="6.31571">
        <ele>1145.8000488</ele>
        <time>2018-08-23T10:58:15Z</time>
      </trkpt>
      <trkpt lat="44.44313" lon="6.31569">
        <ele>1145.8000488</ele>
        <time>2018-08-23T10:58:16Z</time>
      </trkpt>
      <trkpt lat="44.44314" lon="6.31564">
        <ele>1145.5999756</ele>
        <time>2018-08-23T10:58:30Z</time>
      </trkpt>
      <trkpt lat="44.4431" lon="6.31566">
        <ele>1145.4000244</ele>
        <time>2018-08-23T10:58:35Z</time>
      </trkpt>
      <trkpt lat="44.44309" lon="6.31569">
        <ele>1145.4000244</ele>
        <time>2018-08-23T10:58:36Z</time>
      </trkpt>
      <trkpt lat="44.44308" lon="6.31572">
        <ele>1145.4000244</ele>
        <time>2018-08-23T10:58:37Z</time>
      </trkpt>
      <trkpt lat="44.44306" lon="6.31574">
        <ele>1145.4000244</ele>
        <time>2018-08-23T10:58:38Z</time>
      </trkpt>
      <trkpt lat="44.44304" lon="6.31577">
        <ele>1145.4000244</ele>
        <time>2018-08-23T10:58:39Z</time>
      </trkpt>
      <trkpt lat="44.44303" lon="6.3158">
        <ele>1145.4000244</ele>
        <time>2018-08-23T10:58:40Z</time>
      </trkpt>
      <trkpt lat="44.44301" lon="6.31582">
        <ele>1145.4000244</ele>
        <time>2018-08-23T10:58:41Z</time>
      </trkpt>
      <trkpt lat="44.44299" lon="6.31584">
        <ele>1145.4000244</ele>
        <time>2018-08-23T10:58:42Z</time>
      </trkpt>
      <trkpt lat="44.44298" lon="6.31586">
        <ele>1145.4000244</ele>
        <time>2018-08-23T10:58:43Z</time>
      </trkpt>
      <trkpt lat="44.44297" lon="6.31588">
        <ele>1145.5999756</ele>
        <time>2018-08-23T10:58:44Z</time>
      </trkpt>
      <trkpt lat="44.44296" lon="6.3159">
        <ele>1145.5999756</ele>
        <time>2018-08-23T10:58:45Z</time>
      </trkpt>
      <trkpt lat="44.44299" lon="6.31591">
        <ele>1145.8000488</ele>
        <time>2018-08-23T10:59:00Z</time>
      </trkpt>
      <trkpt lat="44.44303" lon="6.31592">
        <ele>1145.5999756</ele>
        <time>2018-08-23T10:59:18Z</time>
      </trkpt>
      <trkpt lat="44.44309" lon="6.31594">
        <ele>1145.4000244</ele>
        <time>2018-08-23T11:00:00Z</time>
      </trkpt>
      <trkpt lat="44.44303" lon="6.31595">
        <ele>1145.1999512</ele>
        <time>2018-08-23T11:00:25Z</time>
      </trkpt>
      <trkpt lat="44.44307" lon="6.31596">
        <ele>1144.8000488</ele>
        <time>2018-08-23T11:01:23Z</time>
      </trkpt>
      <trkpt lat="44.4431" lon="6.31595">
        <ele>1145</ele>
        <time>2018-08-23T11:02:05Z</time>
      </trkpt>
      <trkpt lat="44.44306" lon="6.31596">
        <ele>1145</ele>
        <time>2018-08-23T11:03:26Z</time>
      </trkpt>
      <trkpt lat="44.44302" lon="6.31598">
        <ele>1145.1999512</ele>
        <time>2018-08-23T11:04:04Z</time>
      </trkpt>
      <trkpt lat="44.44304" lon="6.31597">
        <ele>1145.1999512</ele>
        <time>2018-08-23T11:05:05Z</time>
      </trkpt>
      <trkpt lat="44.44299" lon="6.31598">
        <ele>1145.4000244</ele>
        <time>2018-08-23T11:06:05Z</time>
      </trkpt>
      <trkpt lat="44.44297" lon="6.31596">
        <ele>1145</ele>
        <time>2018-08-23T11:06:31Z</time>
      </trkpt>
      <trkpt lat="44.44296" lon="6.31595">
        <ele>1145.4000244</ele>
        <time>2018-08-23T11:06:47Z</time>
      </trkpt>
      <trkpt lat="44.443" lon="6.31595">
        <ele>1145.4000244</ele>
        <time>2018-08-23T11:07:25Z</time>
      </trkpt>
      <trkpt lat="44.44303" lon="6.31593">
        <ele>1145</ele>
        <time>2018-08-23T11:07:58Z</time>
      </trkpt>
      <trkpt lat="44.44299" lon="6.31599">
        <ele>1145</ele>
        <time>2018-08-23T11:08:58Z</time>
      </trkpt>
      <trkpt lat="44.44298" lon="6.31598">
        <ele>1145.1999512</ele>
        <time>2018-08-23T11:10:28Z</time>
      </trkpt>
      <trkpt lat="44.44296" lon="6.31598">
        <ele>1146.1999512</ele>
        <time>2018-08-23T11:10:51Z</time>
      </trkpt>
      <trkpt lat="44.44294" lon="6.31597">
        <ele>1146.1999512</ele>
        <time>2018-08-23T11:11:07Z</time>
      </trkpt>
      <trkpt lat="44.44288" lon="6.31602">
        <ele>1146.1999512</ele>
        <time>2018-08-23T11:11:11Z</time>
      </trkpt>
      <trkpt lat="44.44283" lon="6.31619">
        <ele>1146.1999512</ele>
        <time>2018-08-23T11:11:17Z</time>
      </trkpt>
      <trkpt lat="44.44288" lon="6.31617">
        <ele>1146</ele>
        <time>2018-08-23T11:11:24Z</time>
      </trkpt>
      <trkpt lat="44.44289" lon="6.31615">
        <ele>1145.8000488</ele>
        <time>2018-08-23T11:11:25Z</time>
      </trkpt>
      <trkpt lat="44.44289" lon="6.31613">
        <ele>1145.8000488</ele>
        <time>2018-08-23T11:11:26Z</time>
      </trkpt>
      <trkpt lat="44.44291" lon="6.3161">
        <ele>1145.8000488</ele>
        <time>2018-08-23T11:11:27Z</time>
      </trkpt>
      <trkpt lat="44.44291" lon="6.31608">
        <ele>1145.8000488</ele>
        <time>2018-08-23T11:11:28Z</time>
      </trkpt>
      <trkpt lat="44.44291" lon="6.31605">
        <ele>1145.8000488</ele>
        <time>2018-08-23T11:11:29Z</time>
      </trkpt>
      <trkpt lat="44.44292" lon="6.31602">
        <ele>1145.8000488</ele>
        <time>2018-08-23T11:11:30Z</time>
      </trkpt>
      <trkpt lat="44.44292" lon="6.31597">
        <ele>1145.8000488</ele>
        <time>2018-08-23T11:11:31Z</time>
      </trkpt>
      <trkpt lat="44.44294" lon="6.31542">
        <ele>1146.8000488</ele>
        <time>2018-08-23T11:11:41Z</time>
      </trkpt>
      <trkpt lat="44.44297" lon="6.31507">
        <ele>1149.8000488</ele>
        <time>2018-08-23T11:11:50Z</time>
      </trkpt>
      <trkpt lat="44.44304" lon="6.31467">
        <ele>1151</ele>
        <time>2018-08-23T11:12:00Z</time>
      </trkpt>
      <trkpt lat="44.44309" lon="6.31429">
        <ele>1149.5999756</ele>
        <time>2018-08-23T11:12:12Z</time>
      </trkpt>
      <trkpt lat="44.44314" lon="6.31392">
        <ele>1146.4000244</ele>
        <time>2018-08-23T11:12:23Z</time>
      </trkpt>
      <trkpt lat="44.44317" lon="6.31382">
        <ele>1145.5999756</ele>
        <time>2018-08-23T11:12:27Z</time>
      </trkpt>
      <trkpt lat="44.44318" lon="6.31378">
        <ele>1145.4000244</ele>
        <time>2018-08-23T11:12:28Z</time>
      </trkpt>
      <trkpt lat="44.44318" lon="6.31375">
        <ele>1145.1999512</ele>
        <time>2018-08-23T11:12:29Z</time>
      </trkpt>
      <trkpt lat="44.4432" lon="6.31338">
        <ele>1143</ele>
        <time>2018-08-23T11:12:41Z</time>
      </trkpt>
      <trkpt lat="44.44319" lon="6.31304">
        <ele>1143.4000244</ele>
        <time>2018-08-23T11:12:49Z</time>
      </trkpt>
      <trkpt lat="44.44316" lon="6.313">
        <ele>1143.5999756</ele>
        <time>2018-08-23T11:12:50Z</time>
      </trkpt>
      <trkpt lat="44.44304" lon="6.31261">
        <ele>1146.4000244</ele>
        <time>2018-08-23T11:13:01Z</time>
      </trkpt>
      <trkpt lat="44.44292" lon="6.31237">
        <ele>1148.5999756</ele>
        <time>2018-08-23T11:13:09Z</time>
      </trkpt>
      <trkpt lat="44.44277" lon="6.31216">
        <ele>1150.8000488</ele>
        <time>2018-08-23T11:13:16Z</time>
      </trkpt>
      <trkpt lat="44.44273" lon="6.31206">
        <ele>1152.4000244</ele>
        <time>2018-08-23T11:13:20Z</time>
      </trkpt>
      <trkpt lat="44.44269" lon="6.31197">
        <ele>1154.1999512</ele>
        <time>2018-08-23T11:13:24Z</time>
      </trkpt>
      <trkpt lat="44.44258" lon="6.31179">
        <ele>1156.1999512</ele>
        <time>2018-08-23T11:13:31Z</time>
      </trkpt>
      <trkpt lat="44.44248" lon="6.31174">
        <ele>1157.1999512</ele>
        <time>2018-08-23T11:13:35Z</time>
      </trkpt>
      <trkpt lat="44.44246" lon="6.31173">
        <ele>1157.5999756</ele>
        <time>2018-08-23T11:13:36Z</time>
      </trkpt>
      <trkpt lat="44.44244" lon="6.31172">
        <ele>1158</ele>
        <time>2018-08-23T11:13:37Z</time>
      </trkpt>
      <trkpt lat="44.44224" lon="6.3115">
        <ele>1161.4000244</ele>
        <time>2018-08-23T11:13:47Z</time>
      </trkpt>
      <trkpt lat="44.44222" lon="6.31148">
        <ele>1161.8000488</ele>
        <time>2018-08-23T11:13:48Z</time>
      </trkpt>
      <trkpt lat="44.44209" lon="6.31139">
        <ele>1163.5999756</ele>
        <time>2018-08-23T11:13:53Z</time>
      </trkpt>
      <trkpt lat="44.44206" lon="6.31137">
        <ele>1163.8000488</ele>
        <time>2018-08-23T11:13:54Z</time>
      </trkpt>
      <trkpt lat="44.44177" lon="6.31118">
        <ele>1167.1999512</ele>
        <time>2018-08-23T11:14:05Z</time>
      </trkpt>
      <trkpt lat="44.44163" lon="6.31108">
        <ele>1170.4000244</ele>
        <time>2018-08-23T11:14:12Z</time>
      </trkpt>
      <trkpt lat="44.44122" lon="6.31082">
        <ele>1172.1999512</ele>
        <time>2018-08-23T11:14:25Z</time>
      </trkpt>
      <trkpt lat="44.44111" lon="6.31079">
        <ele>1172.1999512</ele>
        <time>2018-08-23T11:14:29Z</time>
      </trkpt>
      <trkpt lat="44.44108" lon="6.31079">
        <ele>1172.1999512</ele>
        <time>2018-08-23T11:14:30Z</time>
      </trkpt>
      <trkpt lat="44.44105" lon="6.31079">
        <ele>1172.1999512</ele>
        <time>2018-08-23T11:14:31Z</time>
      </trkpt>
      <trkpt lat="44.44103" lon="6.31079">
        <ele>1172.1999512</ele>
        <time>2018-08-23T11:14:32Z</time>
      </trkpt>
      <trkpt lat="44.44099" lon="6.31077">
        <ele>1172.1999512</ele>
        <time>2018-08-23T11:14:34Z</time>
      </trkpt>
      <trkpt lat="44.44096" lon="6.31077">
        <ele>1172</ele>
        <time>2018-08-23T11:14:35Z</time>
      </trkpt>
      <trkpt lat="44.44092" lon="6.31076">
        <ele>1171.5999756</ele>
        <time>2018-08-23T11:14:36Z</time>
      </trkpt>
      <trkpt lat="44.44089" lon="6.31075">
        <ele>1171.1999512</ele>
        <time>2018-08-23T11:14:37Z</time>
      </trkpt>
      <trkpt lat="44.44087" lon="6.31074">
        <ele>1171</ele>
        <time>2018-08-23T11:14:38Z</time>
      </trkpt>
      <trkpt lat="44.44083" lon="6.31074">
        <ele>1170.5999756</ele>
        <time>2018-08-23T11:14:39Z</time>
      </trkpt>
      <trkpt lat="44.44079" lon="6.31073">
        <ele>1170.1999512</ele>
        <time>2018-08-23T11:14:40Z</time>
      </trkpt>
      <trkpt lat="44.44039" lon="6.3107">
        <ele>1168.5999756</ele>
        <time>2018-08-23T11:14:49Z</time>
      </trkpt>
      <trkpt lat="44.43997" lon="6.3106">
        <ele>1166.8000488</ele>
        <time>2018-08-23T11:14:59Z</time>
      </trkpt>
      <trkpt lat="44.43969" lon="6.31057">
        <ele>1166.4000244</ele>
        <time>2018-08-23T11:15:08Z</time>
      </trkpt>
      <trkpt lat="44.43938" lon="6.31055">
        <ele>1167.4000244</ele>
        <time>2018-08-23T11:15:18Z</time>
      </trkpt>
      <trkpt lat="44.43909" lon="6.31065">
        <ele>1168.5999756</ele>
        <time>2018-08-23T11:15:29Z</time>
      </trkpt>
      <trkpt lat="44.43901" lon="6.31069">
        <ele>1169.4000244</ele>
        <time>2018-08-23T11:15:33Z</time>
      </trkpt>
      <trkpt lat="44.43898" lon="6.3107">
        <ele>1169.4000244</ele>
        <time>2018-08-23T11:15:34Z</time>
      </trkpt>
      <trkpt lat="44.43895" lon="6.31071">
        <ele>1169.4000244</ele>
        <time>2018-08-23T11:15:35Z</time>
      </trkpt>
      <trkpt lat="44.43874" lon="6.31079">
        <ele>1170</ele>
        <time>2018-08-23T11:15:44Z</time>
      </trkpt>
      <trkpt lat="44.43849" lon="6.31086">
        <ele>1170.5999756</ele>
        <time>2018-08-23T11:15:53Z</time>
      </trkpt>
      <trkpt lat="44.43844" lon="6.31084">
        <ele>1170.8000488</ele>
        <time>2018-08-23T11:15:55Z</time>
      </trkpt>
      <trkpt lat="44.43828" lon="6.31063">
        <ele>1173</ele>
        <time>2018-08-23T11:16:06Z</time>
      </trkpt>
      <trkpt lat="44.43811" lon="6.31025">
        <ele>1173.1999512</ele>
        <time>2018-08-23T11:16:17Z</time>
      </trkpt>
      <trkpt lat="44.43773" lon="6.3099">
        <ele>1174</ele>
        <time>2018-08-23T11:16:29Z</time>
      </trkpt>
      <trkpt lat="44.43739" lon="6.30973">
        <ele>1175.8000488</ele>
        <time>2018-08-23T11:16:41Z</time>
      </trkpt>
      <trkpt lat="44.43707" lon="6.30964">
        <ele>1176.1999512</ele>
        <time>2018-08-23T11:16:52Z</time>
      </trkpt>
      <trkpt lat="44.4368" lon="6.3096">
        <ele>1176.4000244</ele>
        <time>2018-08-23T11:17:05Z</time>
      </trkpt>
      <trkpt lat="44.43676" lon="6.30958">
        <ele>1175.1999512</ele>
        <time>2018-08-23T11:17:18Z</time>
      </trkpt>
      <trkpt lat="44.43674" lon="6.30958">
        <ele>1175.1999512</ele>
        <time>2018-08-23T11:17:44Z</time>
      </trkpt>
      <trkpt lat="44.43673" lon="6.30955">
        <ele>1175.1999512</ele>
        <time>2018-08-23T11:18:17Z</time>
      </trkpt>
      <trkpt lat="44.43672" lon="6.30953">
        <ele>1175.1999512</ele>
        <time>2018-08-23T11:19:52Z</time>
      </trkpt>
      <trkpt lat="44.4367" lon="6.30952">
        <ele>1175.1999512</ele>
        <time>2018-08-23T11:19:53Z</time>
      </trkpt>
      <trkpt lat="44.43669" lon="6.30951">
        <ele>1175.1999512</ele>
        <time>2018-08-23T11:19:54Z</time>
      </trkpt>
      <trkpt lat="44.43666" lon="6.30951">
        <ele>1175.1999512</ele>
        <time>2018-08-23T11:19:55Z</time>
      </trkpt>
      <trkpt lat="44.43663" lon="6.30951">
        <ele>1175.1999512</ele>
        <time>2018-08-23T11:19:56Z</time>
      </trkpt>
      <trkpt lat="44.4366" lon="6.30952">
        <ele>1175.1999512</ele>
        <time>2018-08-23T11:19:57Z</time>
      </trkpt>
      <trkpt lat="44.4362" lon="6.30947">
        <ele>1176.5999756</ele>
        <time>2018-08-23T11:20:10Z</time>
      </trkpt>
      <trkpt lat="44.43607" lon="6.30941">
        <ele>1177</ele>
        <time>2018-08-23T11:20:13Z</time>
      </trkpt>
      <trkpt lat="44.43571" lon="6.3092">
        <ele>1177</ele>
        <time>2018-08-23T11:20:20Z</time>
      </trkpt>
      <trkpt lat="44.43535" lon="6.30905">
        <ele>1175.5999756</ele>
        <time>2018-08-23T11:20:27Z</time>
      </trkpt>
      <trkpt lat="44.43526" lon="6.30904">
        <ele>1175.4000244</ele>
        <time>2018-08-23T11:20:29Z</time>
      </trkpt>
      <trkpt lat="44.43477" lon="6.30913">
        <ele>1175.8000488</ele>
        <time>2018-08-23T11:20:40Z</time>
      </trkpt>
      <trkpt lat="44.43458" lon="6.30918">
        <ele>1176.5999756</ele>
        <time>2018-08-23T11:20:45Z</time>
      </trkpt>
      <trkpt lat="44.43454" lon="6.30918">
        <ele>1176.8000488</ele>
        <time>2018-08-23T11:20:46Z</time>
      </trkpt>
      <trkpt lat="44.43422" lon="6.30913">
        <ele>1177.4000244</ele>
        <time>2018-08-23T11:20:53Z</time>
      </trkpt>
      <trkpt lat="44.43389" lon="6.30882">
        <ele>1177.4000244</ele>
        <time>2018-08-23T11:21:03Z</time>
      </trkpt>
      <trkpt lat="44.43356" lon="6.30842">
        <ele>1177.1999512</ele>
        <time>2018-08-23T11:21:15Z</time>
      </trkpt>
      <trkpt lat="44.43348" lon="6.30831">
        <ele>1177.1999512</ele>
        <time>2018-08-23T11:21:19Z</time>
      </trkpt>
      <trkpt lat="44.43345" lon="6.30828">
        <ele>1177</ele>
        <time>2018-08-23T11:21:20Z</time>
      </trkpt>
      <trkpt lat="44.43342" lon="6.30827">
        <ele>1177</ele>
        <time>2018-08-23T11:21:21Z</time>
      </trkpt>
      <trkpt lat="44.43339" lon="6.30826">
        <ele>1177</ele>
        <time>2018-08-23T11:21:22Z</time>
      </trkpt>
      <trkpt lat="44.43335" lon="6.30824">
        <ele>1177</ele>
        <time>2018-08-23T11:21:23Z</time>
      </trkpt>
      <trkpt lat="44.43306" lon="6.30806">
        <ele>1176.5999756</ele>
        <time>2018-08-23T11:21:33Z</time>
      </trkpt>
      <trkpt lat="44.43273" lon="6.30793">
        <ele>1176.8000488</ele>
        <time>2018-08-23T11:21:46Z</time>
      </trkpt>
      <trkpt lat="44.43252" lon="6.30786">
        <ele>1178</ele>
        <time>2018-08-23T11:21:54Z</time>
      </trkpt>
      <trkpt lat="44.43244" lon="6.30778">
        <ele>1178.4000244</ele>
        <time>2018-08-23T11:21:59Z</time>
      </trkpt>
      <trkpt lat="44.43211" lon="6.30743">
        <ele>1179.4000244</ele>
        <time>2018-08-23T11:22:12Z</time>
      </trkpt>
      <trkpt lat="44.43212" lon="6.30725">
        <ele>1181.1999512</ele>
        <time>2018-08-23T11:22:42Z</time>
      </trkpt>
      <trkpt lat="44.43214" lon="6.30721">
        <ele>1181.4000244</ele>
        <time>2018-08-23T11:23:12Z</time>
      </trkpt>
      <trkpt lat="44.43214" lon="6.30718">
        <ele>1181.4000244</ele>
        <time>2018-08-23T11:23:13Z</time>
      </trkpt>
      <trkpt lat="44.43214" lon="6.30715">
        <ele>1181.5999756</ele>
        <time>2018-08-23T11:23:14Z</time>
      </trkpt>
      <trkpt lat="44.43214" lon="6.30711">
        <ele>1181.5999756</ele>
        <time>2018-08-23T11:23:15Z</time>
      </trkpt>
      <trkpt lat="44.43214" lon="6.30708">
        <ele>1181.5999756</ele>
        <time>2018-08-23T11:23:16Z</time>
      </trkpt>
      <trkpt lat="44.43213" lon="6.30705">
        <ele>1181.5999756</ele>
        <time>2018-08-23T11:23:17Z</time>
      </trkpt>
      <trkpt lat="44.43211" lon="6.30702">
        <ele>1181.8000488</ele>
        <time>2018-08-23T11:23:18Z</time>
      </trkpt>
      <trkpt lat="44.43203" lon="6.30686">
        <ele>1182.4000244</ele>
        <time>2018-08-23T11:23:24Z</time>
      </trkpt>
      <trkpt lat="44.43182" lon="6.30645">
        <ele>1183.5999756</ele>
        <time>2018-08-23T11:23:35Z</time>
      </trkpt>
      <trkpt lat="44.43167" lon="6.30586">
        <ele>1184.8000488</ele>
        <time>2018-08-23T11:23:48Z</time>
      </trkpt>
      <trkpt lat="44.43159" lon="6.30534">
        <ele>1187</ele>
        <time>2018-08-23T11:24:01Z</time>
      </trkpt>
      <trkpt lat="44.4316" lon="6.30497">
        <ele>1188.4000244</ele>
        <time>2018-08-23T11:24:11Z</time>
      </trkpt>
      <trkpt lat="44.43166" lon="6.30453">
        <ele>1190</ele>
        <time>2018-08-23T11:24:23Z</time>
      </trkpt>
      <trkpt lat="44.43172" lon="6.30433">
        <ele>1191.8000488</ele>
        <time>2018-08-23T11:24:31Z</time>
      </trkpt>
      <trkpt lat="44.43173" lon="6.30432">
        <ele>1191.8000488</ele>
        <time>2018-08-23T11:24:32Z</time>
      </trkpt>
      <trkpt lat="44.43174" lon="6.3043">
        <ele>1192</ele>
        <time>2018-08-23T11:24:33Z</time>
      </trkpt>
      <trkpt lat="44.43175" lon="6.30428">
        <ele>1192.1999512</ele>
        <time>2018-08-23T11:24:34Z</time>
      </trkpt>
      <trkpt lat="44.43177" lon="6.30425">
        <ele>1192.4000244</ele>
        <time>2018-08-23T11:24:35Z</time>
      </trkpt>
      <trkpt lat="44.43177" lon="6.30423">
        <ele>1192.5999756</ele>
        <time>2018-08-23T11:24:36Z</time>
      </trkpt>
      <trkpt lat="44.43189" lon="6.30395">
        <ele>1194.1999512</ele>
        <time>2018-08-23T11:24:47Z</time>
      </trkpt>
      <trkpt lat="44.432" lon="6.30368">
        <ele>1195.4000244</ele>
        <time>2018-08-23T11:24:57Z</time>
      </trkpt>
      <trkpt lat="44.43213" lon="6.30328">
        <ele>1195.8000488</ele>
        <time>2018-08-23T11:25:10Z</time>
      </trkpt>
      <trkpt lat="44.43238" lon="6.30276">
        <ele>1196.5999756</ele>
        <time>2018-08-23T11:25:23Z</time>
      </trkpt>
      <trkpt lat="44.43269" lon="6.30231">
        <ele>1196.5999756</ele>
        <time>2018-08-23T11:25:36Z</time>
      </trkpt>
      <trkpt lat="44.43287" lon="6.30174">
        <ele>1194.5999756</ele>
        <time>2018-08-23T11:25:48Z</time>
      </trkpt>
      <trkpt lat="44.43287" lon="6.30158">
        <ele>1191.8000488</ele>
        <time>2018-08-23T11:25:57Z</time>
      </trkpt>
      <trkpt lat="44.43282" lon="6.30149">
        <ele>1191.4000244</ele>
        <time>2018-08-23T11:26:55Z</time>
      </trkpt>
      <trkpt lat="44.43285" lon="6.3015">
        <ele>1191</ele>
        <time>2018-08-23T11:27:33Z</time>
      </trkpt>
      <trkpt lat="44.43281" lon="6.30151">
        <ele>1191.1999512</ele>
        <time>2018-08-23T11:27:39Z</time>
      </trkpt>
      <trkpt lat="44.43279" lon="6.30155">
        <ele>1191.1999512</ele>
        <time>2018-08-23T11:27:40Z</time>
      </trkpt>
      <trkpt lat="44.43276" lon="6.30159">
        <ele>1191.1999512</ele>
        <time>2018-08-23T11:27:41Z</time>
      </trkpt>
      <trkpt lat="44.43273" lon="6.30163">
        <ele>1191.1999512</ele>
        <time>2018-08-23T11:27:42Z</time>
      </trkpt>
      <trkpt lat="44.4327" lon="6.30165">
        <ele>1191.4000244</ele>
        <time>2018-08-23T11:27:43Z</time>
      </trkpt>
      <trkpt lat="44.43267" lon="6.30168">
        <ele>1191.5999756</ele>
        <time>2018-08-23T11:27:44Z</time>
      </trkpt>
      <trkpt lat="44.43264" lon="6.30171">
        <ele>1191.5999756</ele>
        <time>2018-08-23T11:27:45Z</time>
      </trkpt>
      <trkpt lat="44.43237" lon="6.30193">
        <ele>1194.8000488</ele>
        <time>2018-08-23T11:27:55Z</time>
      </trkpt>
      <trkpt lat="44.43213" lon="6.30205">
        <ele>1198.1999512</ele>
        <time>2018-08-23T11:28:03Z</time>
      </trkpt>
      <trkpt lat="44.43191" lon="6.30213">
        <ele>1201.4000244</ele>
        <time>2018-08-23T11:28:12Z</time>
      </trkpt>
      <trkpt lat="44.43167" lon="6.30217">
        <ele>1204</ele>
        <time>2018-08-23T11:28:21Z</time>
      </trkpt>
      <trkpt lat="44.43146" lon="6.30225">
        <ele>1207</ele>
        <time>2018-08-23T11:28:30Z</time>
      </trkpt>
      <trkpt lat="44.4312" lon="6.30238">
        <ele>1209.8000488</ele>
        <time>2018-08-23T11:28:41Z</time>
      </trkpt>
      <trkpt lat="44.43105" lon="6.30266">
        <ele>1213.1999512</ele>
        <time>2018-08-23T11:28:51Z</time>
      </trkpt>
      <trkpt lat="44.43084" lon="6.30275">
        <ele>1216.4000244</ele>
        <time>2018-08-23T11:29:00Z</time>
      </trkpt>
      <trkpt lat="44.43068" lon="6.30286">
        <ele>1219.5999756</ele>
        <time>2018-08-23T11:29:09Z</time>
      </trkpt>
      <trkpt lat="44.4305" lon="6.30296">
        <ele>1223.4000244</ele>
        <time>2018-08-23T11:29:17Z</time>
      </trkpt>
      <trkpt lat="44.43029" lon="6.30301">
        <ele>1226.5999756</ele>
        <time>2018-08-23T11:29:26Z</time>
      </trkpt>
      <trkpt lat="44.43009" lon="6.30298">
        <ele>1229.8000488</ele>
        <time>2018-08-23T11:29:35Z</time>
      </trkpt>
      <trkpt lat="44.42984" lon="6.30316">
        <ele>1232.8000488</ele>
        <time>2018-08-23T11:29:47Z</time>
      </trkpt>
      <trkpt lat="44.42962" lon="6.30338">
        <ele>1235</ele>
        <time>2018-08-23T11:30:00Z</time>
      </trkpt>
      <trkpt lat="44.42939" lon="6.3035">
        <ele>1238.1999512</ele>
        <time>2018-08-23T11:30:11Z</time>
      </trkpt>
      <trkpt lat="44.42916" lon="6.3037">
        <ele>1241.1999512</ele>
        <time>2018-08-23T11:30:24Z</time>
      </trkpt>
      <trkpt lat="44.42893" lon="6.30386">
        <ele>1244.5999756</ele>
        <time>2018-08-23T11:30:36Z</time>
      </trkpt>
      <trkpt lat="44.42876" lon="6.30404">
        <ele>1247.5999756</ele>
        <time>2018-08-23T11:30:47Z</time>
      </trkpt>
      <trkpt lat="44.42866" lon="6.30401">
        <ele>1250.1999512</ele>
        <time>2018-08-23T11:30:57Z</time>
      </trkpt>
      <trkpt lat="44.42866" lon="6.30399">
        <ele>1251.5999756</ele>
        <time>2018-08-23T11:31:49Z</time>
      </trkpt>
      <trkpt lat="44.4287" lon="6.30389">
        <ele>1251.8000488</ele>
        <time>2018-08-23T11:31:54Z</time>
      </trkpt>
      <trkpt lat="44.42872" lon="6.30385">
        <ele>1252</ele>
        <time>2018-08-23T11:31:55Z</time>
      </trkpt>
      <trkpt lat="44.42878" lon="6.30349">
        <ele>1253</ele>
        <time>2018-08-23T11:32:05Z</time>
      </trkpt>
      <trkpt lat="44.42876" lon="6.30347">
        <ele>1253.1999512</ele>
        <time>2018-08-23T11:32:06Z</time>
      </trkpt>
      <trkpt lat="44.42873" lon="6.30346">
        <ele>1253.4000244</ele>
        <time>2018-08-23T11:32:07Z</time>
      </trkpt>
      <trkpt lat="44.42843" lon="6.30341">
        <ele>1256.4000244</ele>
        <time>2018-08-23T11:32:19Z</time>
      </trkpt>
      <trkpt lat="44.42811" lon="6.30345">
        <ele>1259.5999756</ele>
        <time>2018-08-23T11:32:30Z</time>
      </trkpt>
      <trkpt lat="44.4277" lon="6.30353">
        <ele>1262.8000488</ele>
        <time>2018-08-23T11:32:45Z</time>
      </trkpt>
      <trkpt lat="44.42723" lon="6.30353">
        <ele>1265.8000488</ele>
        <time>2018-08-23T11:33:03Z</time>
      </trkpt>
      <trkpt lat="44.42711" lon="6.30359">
        <ele>1268</ele>
        <time>2018-08-23T11:33:18Z</time>
      </trkpt>
      <trkpt lat="44.42704" lon="6.30357">
        <ele>1268</ele>
        <time>2018-08-23T11:34:15Z</time>
      </trkpt>
      <trkpt lat="44.42703" lon="6.30358">
        <ele>1268</ele>
        <time>2018-08-23T11:34:16Z</time>
      </trkpt>
      <trkpt lat="44.42701" lon="6.30359">
        <ele>1268</ele>
        <time>2018-08-23T11:34:17Z</time>
      </trkpt>
      <trkpt lat="44.42669" lon="6.30376">
        <ele>1269.4000244</ele>
        <time>2018-08-23T11:34:29Z</time>
      </trkpt>
      <trkpt lat="44.42647" lon="6.3039">
        <ele>1272.1999512</ele>
        <time>2018-08-23T11:34:38Z</time>
      </trkpt>
      <trkpt lat="44.42617" lon="6.30412">
        <ele>1274.8000488</ele>
        <time>2018-08-23T11:34:50Z</time>
      </trkpt>
      <trkpt lat="44.42607" lon="6.3042">
        <ele>1275.4000244</ele>
        <time>2018-08-23T11:34:54Z</time>
      </trkpt>
      <trkpt lat="44.42604" lon="6.30421">
        <ele>1275.5999756</ele>
        <time>2018-08-23T11:34:55Z</time>
      </trkpt>
      <trkpt lat="44.42563" lon="6.30447">
        <ele>1278</ele>
        <time>2018-08-23T11:35:10Z</time>
      </trkpt>
      <trkpt lat="44.42542" lon="6.30463">
        <ele>1281</ele>
        <time>2018-08-23T11:35:19Z</time>
      </trkpt>
      <trkpt lat="44.4251" lon="6.30468">
        <ele>1283.1999512</ele>
        <time>2018-08-23T11:35:32Z</time>
      </trkpt>
      <trkpt lat="44.42463" lon="6.30455">
        <ele>1284.5999756</ele>
        <time>2018-08-23T11:35:43Z</time>
      </trkpt>
      <trkpt lat="44.42449" lon="6.30452">
        <ele>1284.5999756</ele>
        <time>2018-08-23T11:35:46Z</time>
      </trkpt>
      <trkpt lat="44.42444" lon="6.30452">
        <ele>1284.5999756</ele>
        <time>2018-08-23T11:35:47Z</time>
      </trkpt>
      <trkpt lat="44.42439" lon="6.30451">
        <ele>1284.4000244</ele>
        <time>2018-08-23T11:35:48Z</time>
      </trkpt>
      <trkpt lat="44.42435" lon="6.30451">
        <ele>1284</ele>
        <time>2018-08-23T11:35:49Z</time>
      </trkpt>
      <trkpt lat="44.4243" lon="6.30451">
        <ele>1283.5999756</ele>
        <time>2018-08-23T11:35:50Z</time>
      </trkpt>
      <trkpt lat="44.42401" lon="6.30456">
        <ele>1282.8000488</ele>
        <time>2018-08-23T11:36:00Z</time>
      </trkpt>
      <trkpt lat="44.42372" lon="6.30471">
        <ele>1284.4000244</ele>
        <time>2018-08-23T11:36:09Z</time>
      </trkpt>
      <trkpt lat="44.42345" lon="6.30484">
        <ele>1286</ele>
        <time>2018-08-23T11:36:18Z</time>
      </trkpt>
      <trkpt lat="44.42308" lon="6.30498">
        <ele>1286.5999756</ele>
        <time>2018-08-23T11:36:30Z</time>
      </trkpt>
      <trkpt lat="44.42288" lon="6.30506">
        <ele>1287.5999756</ele>
        <time>2018-08-23T11:36:38Z</time>
      </trkpt>
      <trkpt lat="44.42263" lon="6.30523">
        <ele>1289</ele>
        <time>2018-08-23T11:36:48Z</time>
      </trkpt>
      <trkpt lat="44.42224" lon="6.30543">
        <ele>1289.4000244</ele>
        <time>2018-08-23T11:36:58Z</time>
      </trkpt>
      <trkpt lat="44.42178" lon="6.30566">
        <ele>1288.1999512</ele>
        <time>2018-08-23T11:37:13Z</time>
      </trkpt>
      <trkpt lat="44.42139" lon="6.30591">
        <ele>1287.5999756</ele>
        <time>2018-08-23T11:37:27Z</time>
      </trkpt>
      <trkpt lat="44.421" lon="6.30625">
        <ele>1288.4000244</ele>
        <time>2018-08-23T11:37:42Z</time>
      </trkpt>
      <trkpt lat="44.42075" lon="6.30658">
        <ele>1290.1999512</ele>
        <time>2018-08-23T11:37:57Z</time>
      </trkpt>
      <trkpt lat="44.42066" lon="6.3068">
        <ele>1291.1999512</ele>
        <time>2018-08-23T11:38:05Z</time>
      </trkpt>
      <trkpt lat="44.42063" lon="6.30691">
        <ele>1291.8000488</ele>
        <time>2018-08-23T11:38:09Z</time>
      </trkpt>
      <trkpt lat="44.42047" lon="6.30735">
        <ele>1293.5999756</ele>
        <time>2018-08-23T11:38:24Z</time>
      </trkpt>
      <trkpt lat="44.42034" lon="6.30767">
        <ele>1295.1999512</ele>
        <time>2018-08-23T11:38:36Z</time>
      </trkpt>
      <trkpt lat="44.42027" lon="6.30789">
        <ele>1297.8000488</ele>
        <time>2018-08-23T11:38:43Z</time>
      </trkpt>
      <trkpt lat="44.42006" lon="6.30814">
        <ele>1300.8000488</ele>
        <time>2018-08-23T11:38:57Z</time>
      </trkpt>
      <trkpt lat="44.41986" lon="6.30823">
        <ele>1303.8000488</ele>
        <time>2018-08-23T11:39:06Z</time>
      </trkpt>
      <trkpt lat="44.41982" lon="6.30825">
        <ele>1304.4000244</ele>
        <time>2018-08-23T11:39:08Z</time>
      </trkpt>
      <trkpt lat="44.41968" lon="6.3083">
        <ele>1307.5999756</ele>
        <time>2018-08-23T11:39:16Z</time>
      </trkpt>
      <trkpt lat="44.41956" lon="6.3084">
        <ele>1310.8000488</ele>
        <time>2018-08-23T11:39:24Z</time>
      </trkpt>
      <trkpt lat="44.41949" lon="6.30853">
        <ele>1314.1999512</ele>
        <time>2018-08-23T11:39:31Z</time>
      </trkpt>
      <trkpt lat="44.41942" lon="6.30871">
        <ele>1317.1999512</ele>
        <time>2018-08-23T11:39:38Z</time>
      </trkpt>
      <trkpt lat="44.41929" lon="6.30885">
        <ele>1320.4000244</ele>
        <time>2018-08-23T11:39:46Z</time>
      </trkpt>
      <trkpt lat="44.41922" lon="6.30906">
        <ele>1323.5999756</ele>
        <time>2018-08-23T11:39:55Z</time>
      </trkpt>
      <trkpt lat="44.41914" lon="6.30922">
        <ele>1326.5999756</ele>
        <time>2018-08-23T11:40:03Z</time>
      </trkpt>
      <trkpt lat="44.41923" lon="6.30935">
        <ele>1329.8000488</ele>
        <time>2018-08-23T11:40:12Z</time>
      </trkpt>
      <trkpt lat="44.41927" lon="6.3094">
        <ele>1330.5999756</ele>
        <time>2018-08-23T11:40:44Z</time>
      </trkpt>
      <trkpt lat="44.41926" lon="6.30942">
        <ele>1330.8000488</ele>
        <time>2018-08-23T11:40:47Z</time>
      </trkpt>
      <trkpt lat="44.41913" lon="6.3095">
        <ele>1333.8000488</ele>
        <time>2018-08-23T11:41:09Z</time>
      </trkpt>
      <trkpt lat="44.41909" lon="6.30955">
        <ele>1334.5999756</ele>
        <time>2018-08-23T11:41:17Z</time>
      </trkpt>
      <trkpt lat="44.41891" lon="6.30965">
        <ele>1337</ele>
        <time>2018-08-23T11:41:47Z</time>
      </trkpt>
      <trkpt lat="44.41887" lon="6.30966">
        <ele>1337</ele>
        <time>2018-08-23T11:41:52Z</time>
      </trkpt>
      <trkpt lat="44.41884" lon="6.30958">
        <ele>1337.1999512</ele>
        <time>2018-08-23T11:42:12Z</time>
      </trkpt>
      <trkpt lat="44.41893" lon="6.30952">
        <ele>1337.1999512</ele>
        <time>2018-08-23T11:42:19Z</time>
      </trkpt>
      <trkpt lat="44.41909" lon="6.30933">
        <ele>1339.4000244</ele>
        <time>2018-08-23T11:42:36Z</time>
      </trkpt>
      <trkpt lat="44.41908" lon="6.3093">
        <ele>1340</ele>
        <time>2018-08-23T11:42:40Z</time>
      </trkpt>
      <trkpt lat="44.4191" lon="6.30907">
        <ele>1343.4000244</ele>
        <time>2018-08-23T11:43:02Z</time>
      </trkpt>
      <trkpt lat="44.41909" lon="6.30899">
        <ele>1345</ele>
        <time>2018-08-23T11:43:14Z</time>
      </trkpt>
      <trkpt lat="44.41898" lon="6.30882">
        <ele>1347.4000244</ele>
        <time>2018-08-23T11:43:47Z</time>
      </trkpt>
      <trkpt lat="44.41892" lon="6.30878">
        <ele>1348.4000244</ele>
        <time>2018-08-23T11:44:13Z</time>
      </trkpt>
      <trkpt lat="44.41882" lon="6.30884">
        <ele>1351.5999756</ele>
        <time>2018-08-23T11:44:32Z</time>
      </trkpt>
      <trkpt lat="44.4187" lon="6.30899">
        <ele>1354.4000244</ele>
        <time>2018-08-23T11:44:54Z</time>
      </trkpt>
      <trkpt lat="44.41856" lon="6.30914">
        <ele>1356.4000244</ele>
        <time>2018-08-23T11:45:17Z</time>
      </trkpt>
      <trkpt lat="44.41849" lon="6.30938">
        <ele>1358.5999756</ele>
        <time>2018-08-23T11:45:43Z</time>
      </trkpt>
      <trkpt lat="44.41835" lon="6.30956">
        <ele>1361.5999756</ele>
        <time>2018-08-23T11:46:06Z</time>
      </trkpt>
      <trkpt lat="44.41824" lon="6.30962">
        <ele>1363</ele>
        <time>2018-08-23T11:46:31Z</time>
      </trkpt>
      <trkpt lat="44.41823" lon="6.30962">
        <ele>1363.1999512</ele>
        <time>2018-08-23T11:46:37Z</time>
      </trkpt>
      <trkpt lat="44.41815" lon="6.3096">
        <ele>1363.4000244</ele>
        <time>2018-08-23T11:47:05Z</time>
      </trkpt>
      <trkpt lat="44.41813" lon="6.30966">
        <ele>1363.5999756</ele>
        <time>2018-08-23T11:47:27Z</time>
      </trkpt>
      <trkpt lat="44.41813" lon="6.30967">
        <ele>1363.5999756</ele>
        <time>2018-08-23T11:47:33Z</time>
      </trkpt>
      <trkpt lat="44.41809" lon="6.30969">
        <ele>1363.5999756</ele>
        <time>2018-08-23T11:47:36Z</time>
      </trkpt>
      <trkpt lat="44.41786" lon="6.30984">
        <ele>1364.4000244</ele>
        <time>2018-08-23T11:47:49Z</time>
      </trkpt>
      <trkpt lat="44.41764" lon="6.31009">
        <ele>1365.5999756</ele>
        <time>2018-08-23T11:48:04Z</time>
      </trkpt>
      <trkpt lat="44.41743" lon="6.31037">
        <ele>1367.4000244</ele>
        <time>2018-08-23T11:48:17Z</time>
      </trkpt>
      <trkpt lat="44.41729" lon="6.31061">
        <ele>1368.4000244</ele>
        <time>2018-08-23T11:48:29Z</time>
      </trkpt>
      <trkpt lat="44.4172" lon="6.31076">
        <ele>1370.4000244</ele>
        <time>2018-08-23T11:48:41Z</time>
      </trkpt>
      <trkpt lat="44.41712" lon="6.31079">
        <ele>1370.4000244</ele>
        <time>2018-08-23T11:48:44Z</time>
      </trkpt>
      <trkpt lat="44.41701" lon="6.31079">
        <ele>1370</ele>
        <time>2018-08-23T11:49:03Z</time>
      </trkpt>
      <trkpt lat="44.41698" lon="6.3108">
        <ele>1370</ele>
        <time>2018-08-23T11:49:05Z</time>
      </trkpt>
      <trkpt lat="44.41696" lon="6.31081">
        <ele>1370</ele>
        <time>2018-08-23T11:49:07Z</time>
      </trkpt>
      <trkpt lat="44.41668" lon="6.31088">
        <ele>1367.4000244</ele>
        <time>2018-08-23T11:49:24Z</time>
      </trkpt>
      <trkpt lat="44.4166" lon="6.31089">
        <ele>1365.1999512</ele>
        <time>2018-08-23T11:49:50Z</time>
      </trkpt>
      <trkpt lat="44.41649" lon="6.31089">
        <ele>1365</ele>
        <time>2018-08-23T11:49:54Z</time>
      </trkpt>
      <trkpt lat="44.41615" lon="6.3109">
        <ele>1362.1999512</ele>
        <time>2018-08-23T11:50:11Z</time>
      </trkpt>
      <trkpt lat="44.41604" lon="6.31091">
        <ele>1360.5999756</ele>
        <time>2018-08-23T11:50:17Z</time>
      </trkpt>
      <trkpt lat="44.41579" lon="6.31098">
        <ele>1358.4000244</ele>
        <time>2018-08-23T11:50:28Z</time>
      </trkpt>
      <trkpt lat="44.41558" lon="6.31127">
        <ele>1355.4000244</ele>
        <time>2018-08-23T11:50:42Z</time>
      </trkpt>
      <trkpt lat="44.41527" lon="6.31145">
        <ele>1354</ele>
        <time>2018-08-23T11:50:54Z</time>
      </trkpt>
      <trkpt lat="44.41491" lon="6.31145">
        <ele>1351.8000488</ele>
        <time>2018-08-23T11:51:08Z</time>
      </trkpt>
      <trkpt lat="44.41471" lon="6.31133">
        <ele>1349.8000488</ele>
        <time>2018-08-23T11:51:19Z</time>
      </trkpt>
      <trkpt lat="44.4144" lon="6.31118">
        <ele>1346.8000488</ele>
        <time>2018-08-23T11:51:34Z</time>
      </trkpt>
      <trkpt lat="44.41421" lon="6.31112">
        <ele>1345.4000244</ele>
        <time>2018-08-23T11:51:43Z</time>
      </trkpt>
      <trkpt lat="44.41391" lon="6.31098">
        <ele>1342.5999756</ele>
        <time>2018-08-23T11:51:56Z</time>
      </trkpt>
      <trkpt lat="44.41356" lon="6.31075">
        <ele>1339.5999756</ele>
        <time>2018-08-23T11:52:10Z</time>
      </trkpt>
      <trkpt lat="44.41347" lon="6.31067">
        <ele>1338.4000244</ele>
        <time>2018-08-23T11:52:16Z</time>
      </trkpt>
      <trkpt lat="44.41346" lon="6.31066">
        <ele>1338.1999512</ele>
        <time>2018-08-23T11:52:17Z</time>
      </trkpt>
      <trkpt lat="44.41345" lon="6.31064">
        <ele>1338</ele>
        <time>2018-08-23T11:52:18Z</time>
      </trkpt>
      <trkpt lat="44.41343" lon="6.31063">
        <ele>1337.8000488</ele>
        <time>2018-08-23T11:52:19Z</time>
      </trkpt>
      <trkpt lat="44.41341" lon="6.31061">
        <ele>1337.4000244</ele>
        <time>2018-08-23T11:52:20Z</time>
      </trkpt>
      <trkpt lat="44.4134" lon="6.3106">
        <ele>1337.1999512</ele>
        <time>2018-08-23T11:52:21Z</time>
      </trkpt>
      <trkpt lat="44.41338" lon="6.31059">
        <ele>1337.1999512</ele>
        <time>2018-08-23T11:52:22Z</time>
      </trkpt>
      <trkpt lat="44.41326" lon="6.31047">
        <ele>1334</ele>
        <time>2018-08-23T11:52:34Z</time>
      </trkpt>
      <trkpt lat="44.41298" lon="6.31036">
        <ele>1331.5999756</ele>
        <time>2018-08-23T11:52:47Z</time>
      </trkpt>
      <trkpt lat="44.41297" lon="6.31035">
        <ele>1331.4000244</ele>
        <time>2018-08-23T11:52:48Z</time>
      </trkpt>
      <trkpt lat="44.41295" lon="6.31034">
        <ele>1331.1999512</ele>
        <time>2018-08-23T11:52:49Z</time>
      </trkpt>
      <trkpt lat="44.41293" lon="6.31033">
        <ele>1330.8000488</ele>
        <time>2018-08-23T11:52:50Z</time>
      </trkpt>
      <trkpt lat="44.41291" lon="6.31032">
        <ele>1330.5999756</ele>
        <time>2018-08-23T11:52:51Z</time>
      </trkpt>
      <trkpt lat="44.41289" lon="6.31031">
        <ele>1330.4000244</ele>
        <time>2018-08-23T11:52:52Z</time>
      </trkpt>
      <trkpt lat="44.41287" lon="6.31031">
        <ele>1330.1999512</ele>
        <time>2018-08-23T11:52:53Z</time>
      </trkpt>
      <trkpt lat="44.41269" lon="6.31023">
        <ele>1328</ele>
        <time>2018-08-23T11:53:04Z</time>
      </trkpt>
      <trkpt lat="44.41247" lon="6.31028">
        <ele>1325</ele>
        <time>2018-08-23T11:53:16Z</time>
      </trkpt>
      <trkpt lat="44.41231" lon="6.3103">
        <ele>1322.8000488</ele>
        <time>2018-08-23T11:53:29Z</time>
      </trkpt>
      <trkpt lat="44.41202" lon="6.31028">
        <ele>1320.5999756</ele>
        <time>2018-08-23T11:53:45Z</time>
      </trkpt>
      <trkpt lat="44.41171" lon="6.31027">
        <ele>1317.4000244</ele>
        <time>2018-08-23T11:53:59Z</time>
      </trkpt>
      <trkpt lat="44.41143" lon="6.31035">
        <ele>1314.4000244</ele>
        <time>2018-08-23T11:54:11Z</time>
      </trkpt>
      <trkpt lat="44.4114" lon="6.31035">
        <ele>1311.4000244</ele>
        <time>2018-08-23T11:54:23Z</time>
      </trkpt>
      <trkpt lat="44.41138" lon="6.31045">
        <ele>1311.1999512</ele>
        <time>2018-08-23T11:54:39Z</time>
      </trkpt>
      <trkpt lat="44.41136" lon="6.31047">
        <ele>1311.1999512</ele>
        <time>2018-08-23T11:54:40Z</time>
      </trkpt>
      <trkpt lat="44.41134" lon="6.3105">
        <ele>1311.1999512</ele>
        <time>2018-08-23T11:54:41Z</time>
      </trkpt>
      <trkpt lat="44.41132" lon="6.31053">
        <ele>1311.1999512</ele>
        <time>2018-08-23T11:54:42Z</time>
      </trkpt>
      <trkpt lat="44.4113" lon="6.31055">
        <ele>1311.1999512</ele>
        <time>2018-08-23T11:54:43Z</time>
      </trkpt>
      <trkpt lat="44.41106" lon="6.31085">
        <ele>1308</ele>
        <time>2018-08-23T11:54:54Z</time>
      </trkpt>
      <trkpt lat="44.41095" lon="6.31104">
        <ele>1304.8000488</ele>
        <time>2018-08-23T11:55:01Z</time>
      </trkpt>
      <trkpt lat="44.41072" lon="6.31128">
        <ele>1302</ele>
        <time>2018-08-23T11:55:14Z</time>
      </trkpt>
      <trkpt lat="44.41048" lon="6.31143">
        <ele>1299.1999512</ele>
        <time>2018-08-23T11:55:27Z</time>
      </trkpt>
      <trkpt lat="44.41032" lon="6.31154">
        <ele>1296.1999512</ele>
        <time>2018-08-23T11:55:35Z</time>
      </trkpt>
      <trkpt lat="44.41028" lon="6.31157">
        <ele>1293</ele>
        <time>2018-08-23T11:55:44Z</time>
      </trkpt>
      <trkpt lat="44.41027" lon="6.31159">
        <ele>1292.4000244</ele>
        <time>2018-08-23T11:55:49Z</time>
      </trkpt>
      <trkpt lat="44.41028" lon="6.31161">
        <ele>1292.4000244</ele>
        <time>2018-08-23T11:55:50Z</time>
      </trkpt>
      <trkpt lat="44.41028" lon="6.31164">
        <ele>1292.4000244</ele>
        <time>2018-08-23T11:55:51Z</time>
      </trkpt>
      <trkpt lat="44.41028" lon="6.31168">
        <ele>1292.4000244</ele>
        <time>2018-08-23T11:55:52Z</time>
      </trkpt>
      <trkpt lat="44.41028" lon="6.31171">
        <ele>1292.1999512</ele>
        <time>2018-08-23T11:55:53Z</time>
      </trkpt>
      <trkpt lat="44.41028" lon="6.31173">
        <ele>1292.1999512</ele>
        <time>2018-08-23T11:55:54Z</time>
      </trkpt>
      <trkpt lat="44.41029" lon="6.31177">
        <ele>1292.1999512</ele>
        <time>2018-08-23T11:55:55Z</time>
      </trkpt>
      <trkpt lat="44.41029" lon="6.3118">
        <ele>1292.1999512</ele>
        <time>2018-08-23T11:55:56Z</time>
      </trkpt>
      <trkpt lat="44.41029" lon="6.31185">
        <ele>1291.5999756</ele>
        <time>2018-08-23T11:56:06Z</time>
      </trkpt>
      <trkpt lat="44.41029" lon="6.3119">
        <ele>1291.1999512</ele>
        <time>2018-08-23T11:56:37Z</time>
      </trkpt>
      <trkpt lat="44.41031" lon="6.31195">
        <ele>1291.1999512</ele>
        <time>2018-08-23T11:56:39Z</time>
      </trkpt>
      <trkpt lat="44.41033" lon="6.31198">
        <ele>1291.1999512</ele>
        <time>2018-08-23T11:56:40Z</time>
      </trkpt>
      <trkpt lat="44.41043" lon="6.31237">
        <ele>1291</ele>
        <time>2018-08-23T11:56:47Z</time>
      </trkpt>
      <trkpt lat="44.41045" lon="6.31242">
        <ele>1291</ele>
        <time>2018-08-23T11:56:48Z</time>
      </trkpt>
      <trkpt lat="44.41048" lon="6.31246">
        <ele>1291</ele>
        <time>2018-08-23T11:56:49Z</time>
      </trkpt>
      <trkpt lat="44.41051" lon="6.31249">
        <ele>1291</ele>
        <time>2018-08-23T11:56:50Z</time>
      </trkpt>
      <trkpt lat="44.41054" lon="6.31252">
        <ele>1290.8000488</ele>
        <time>2018-08-23T11:56:51Z</time>
      </trkpt>
      <trkpt lat="44.41058" lon="6.31254">
        <ele>1290.5999756</ele>
        <time>2018-08-23T11:56:52Z</time>
      </trkpt>
      <trkpt lat="44.41061" lon="6.31256">
        <ele>1290.5999756</ele>
        <time>2018-08-23T11:56:53Z</time>
      </trkpt>
      <trkpt lat="44.41066" lon="6.31257">
        <ele>1290.4000244</ele>
        <time>2018-08-23T11:56:54Z</time>
      </trkpt>
      <trkpt lat="44.41084" lon="6.31274">
        <ele>1288.8000488</ele>
        <time>2018-08-23T11:57:01Z</time>
      </trkpt>
      <trkpt lat="44.41083" lon="6.31279">
        <ele>1288.4000244</ele>
        <time>2018-08-23T11:57:02Z</time>
      </trkpt>
      <trkpt lat="44.4108" lon="6.31283">
        <ele>1288</ele>
        <time>2018-08-23T11:57:03Z</time>
      </trkpt>
      <trkpt lat="44.41076" lon="6.31285">
        <ele>1287.4000244</ele>
        <time>2018-08-23T11:57:04Z</time>
      </trkpt>
      <trkpt lat="44.41071" lon="6.31287">
        <ele>1286.1999512</ele>
        <time>2018-08-23T11:57:05Z</time>
      </trkpt>
      <trkpt lat="44.41066" lon="6.31289">
        <ele>1285.5999756</ele>
        <time>2018-08-23T11:57:06Z</time>
      </trkpt>
      <trkpt lat="44.4106" lon="6.31291">
        <ele>1285.1999512</ele>
        <time>2018-08-23T11:57:07Z</time>
      </trkpt>
      <trkpt lat="44.41002" lon="6.31316">
        <ele>1282.8000488</ele>
        <time>2018-08-23T11:57:16Z</time>
      </trkpt>
      <trkpt lat="44.40974" lon="6.31331">
        <ele>1278.8000488</ele>
        <time>2018-08-23T11:57:21Z</time>
      </trkpt>
      <trkpt lat="44.40946" lon="6.31352">
        <ele>1275.8000488</ele>
        <time>2018-08-23T11:57:26Z</time>
      </trkpt>
      <trkpt lat="44.40922" lon="6.31377">
        <ele>1274</ele>
        <time>2018-08-23T11:57:30Z</time>
      </trkpt>
      <trkpt lat="44.40915" lon="6.31382">
        <ele>1273.5999756</ele>
        <time>2018-08-23T11:57:31Z</time>
      </trkpt>
      <trkpt lat="44.40909" lon="6.31384">
        <ele>1273.1999512</ele>
        <time>2018-08-23T11:57:32Z</time>
      </trkpt>
      <trkpt lat="44.40901" lon="6.31385">
        <ele>1272.5999756</ele>
        <time>2018-08-23T11:57:33Z</time>
      </trkpt>
      <trkpt lat="44.40894" lon="6.31384">
        <ele>1272.1999512</ele>
        <time>2018-08-23T11:57:34Z</time>
      </trkpt>
      <trkpt lat="44.40887" lon="6.31383">
        <ele>1271.8000488</ele>
        <time>2018-08-23T11:57:35Z</time>
      </trkpt>
      <trkpt lat="44.40874" lon="6.31383">
        <ele>1270.8000488</ele>
        <time>2018-08-23T11:57:37Z</time>
      </trkpt>
      <trkpt lat="44.40867" lon="6.31385">
        <ele>1269.8000488</ele>
        <time>2018-08-23T11:57:38Z</time>
      </trkpt>
      <trkpt lat="44.40838" lon="6.314">
        <ele>1266.8000488</ele>
        <time>2018-08-23T11:57:42Z</time>
      </trkpt>
      <trkpt lat="44.4078" lon="6.31432">
        <ele>1263.5999756</ele>
        <time>2018-08-23T11:57:49Z</time>
      </trkpt>
      <trkpt lat="44.40717" lon="6.31481">
        <ele>1260.4000244</ele>
        <time>2018-08-23T11:57:57Z</time>
      </trkpt>
      <trkpt lat="44.4071" lon="6.31484">
        <ele>1260</ele>
        <time>2018-08-23T11:57:58Z</time>
      </trkpt>
      <trkpt lat="44.40703" lon="6.31486">
        <ele>1259.4000244</ele>
        <time>2018-08-23T11:57:59Z</time>
      </trkpt>
      <trkpt lat="44.40695" lon="6.31488">
        <ele>1258.8000488</ele>
        <time>2018-08-23T11:58:00Z</time>
      </trkpt>
      <trkpt lat="44.4068" lon="6.3149">
        <ele>1257.8000488</ele>
        <time>2018-08-23T11:58:02Z</time>
      </trkpt>
      <trkpt lat="44.4066" lon="6.31493">
        <ele>1257</ele>
        <time>2018-08-23T11:58:05Z</time>
      </trkpt>
      <trkpt lat="44.40653" lon="6.31496">
        <ele>1256.8000488</ele>
        <time>2018-08-23T11:58:06Z</time>
      </trkpt>
      <trkpt lat="44.40647" lon="6.315">
        <ele>1256.5999756</ele>
        <time>2018-08-23T11:58:07Z</time>
      </trkpt>
      <trkpt lat="44.40642" lon="6.31505">
        <ele>1256.4000244</ele>
        <time>2018-08-23T11:58:08Z</time>
      </trkpt>
      <trkpt lat="44.40636" lon="6.31509">
        <ele>1256.1999512</ele>
        <time>2018-08-23T11:58:09Z</time>
      </trkpt>
      <trkpt lat="44.40627" lon="6.31518">
        <ele>1255</ele>
        <time>2018-08-23T11:58:11Z</time>
      </trkpt>
      <trkpt lat="44.40623" lon="6.31524">
        <ele>1254.1999512</ele>
        <time>2018-08-23T11:58:12Z</time>
      </trkpt>
      <trkpt lat="44.40619" lon="6.3153">
        <ele>1253.4000244</ele>
        <time>2018-08-23T11:58:13Z</time>
      </trkpt>
      <trkpt lat="44.40616" lon="6.31537">
        <ele>1253</ele>
        <time>2018-08-23T11:58:14Z</time>
      </trkpt>
      <trkpt lat="44.40613" lon="6.31543">
        <ele>1252.5999756</ele>
        <time>2018-08-23T11:58:15Z</time>
      </trkpt>
      <trkpt lat="44.40577" lon="6.31625">
        <ele>1250.5999756</ele>
        <time>2018-08-23T11:58:29Z</time>
      </trkpt>
      <trkpt lat="44.40573" lon="6.31637">
        <ele>1250.5999756</ele>
        <time>2018-08-23T11:58:31Z</time>
      </trkpt>
      <trkpt lat="44.4057" lon="6.31643">
        <ele>1250.4000244</ele>
        <time>2018-08-23T11:58:32Z</time>
      </trkpt>
      <trkpt lat="44.4056" lon="6.31658">
        <ele>1250.4000244</ele>
        <time>2018-08-23T11:58:35Z</time>
      </trkpt>
      <trkpt lat="44.40555" lon="6.31661">
        <ele>1250.4000244</ele>
        <time>2018-08-23T11:58:36Z</time>
      </trkpt>
      <trkpt lat="44.4055" lon="6.31664">
        <ele>1250.1999512</ele>
        <time>2018-08-23T11:58:37Z</time>
      </trkpt>
      <trkpt lat="44.40542" lon="6.3167">
        <ele>1249.8000488</ele>
        <time>2018-08-23T11:58:44Z</time>
      </trkpt>
      <trkpt lat="44.40542" lon="6.31669">
        <ele>1248.5999756</ele>
        <time>2018-08-23T11:58:54Z</time>
      </trkpt>
      <trkpt lat="44.4054" lon="6.31669">
        <ele>1248.5999756</ele>
        <time>2018-08-23T11:58:55Z</time>
      </trkpt>
      <trkpt lat="44.40536" lon="6.3167">
        <ele>1248.4000244</ele>
        <time>2018-08-23T11:58:57Z</time>
      </trkpt>
      <trkpt lat="44.40504" lon="6.31672">
        <ele>1248.4000244</ele>
        <time>2018-08-23T11:59:04Z</time>
      </trkpt>
      <trkpt lat="44.40498" lon="6.31674">
        <ele>1248.4000244</ele>
        <time>2018-08-23T11:59:05Z</time>
      </trkpt>
      <trkpt lat="44.40492" lon="6.31677">
        <ele>1248.4000244</ele>
        <time>2018-08-23T11:59:06Z</time>
      </trkpt>
      <trkpt lat="44.40481" lon="6.31686">
        <ele>1248.4000244</ele>
        <time>2018-08-23T11:59:08Z</time>
      </trkpt>
      <trkpt lat="44.40475" lon="6.31691">
        <ele>1248.1999512</ele>
        <time>2018-08-23T11:59:09Z</time>
      </trkpt>
      <trkpt lat="44.40471" lon="6.31696">
        <ele>1247.8000488</ele>
        <time>2018-08-23T11:59:10Z</time>
      </trkpt>
      <trkpt lat="44.40462" lon="6.31707">
        <ele>1247</ele>
        <time>2018-08-23T11:59:12Z</time>
      </trkpt>
      <trkpt lat="44.40459" lon="6.31713">
        <ele>1246.4000244</ele>
        <time>2018-08-23T11:59:13Z</time>
      </trkpt>
      <trkpt lat="44.40453" lon="6.31734">
        <ele>1245</ele>
        <time>2018-08-23T11:59:16Z</time>
      </trkpt>
      <trkpt lat="44.40452" lon="6.31741">
        <ele>1244</ele>
        <time>2018-08-23T11:59:17Z</time>
      </trkpt>
      <trkpt lat="44.40452" lon="6.31748">
        <ele>1243.1999512</ele>
        <time>2018-08-23T11:59:18Z</time>
      </trkpt>
      <trkpt lat="44.40453" lon="6.31756">
        <ele>1242.4000244</ele>
        <time>2018-08-23T11:59:19Z</time>
      </trkpt>
      <trkpt lat="44.40454" lon="6.31763">
        <ele>1241.5999756</ele>
        <time>2018-08-23T11:59:20Z</time>
      </trkpt>
      <trkpt lat="44.40456" lon="6.31771">
        <ele>1241.1999512</ele>
        <time>2018-08-23T11:59:21Z</time>
      </trkpt>
      <trkpt lat="44.40457" lon="6.31779">
        <ele>1240.8000488</ele>
        <time>2018-08-23T11:59:22Z</time>
      </trkpt>
      <trkpt lat="44.40459" lon="6.31787">
        <ele>1240.4000244</ele>
        <time>2018-08-23T11:59:23Z</time>
      </trkpt>
      <trkpt lat="44.4046" lon="6.31796">
        <ele>1239.8000488</ele>
        <time>2018-08-23T11:59:24Z</time>
      </trkpt>
      <trkpt lat="44.40461" lon="6.31805">
        <ele>1239.4000244</ele>
        <time>2018-08-23T11:59:25Z</time>
      </trkpt>
      <trkpt lat="44.40461" lon="6.31815">
        <ele>1239</ele>
        <time>2018-08-23T11:59:26Z</time>
      </trkpt>
      <trkpt lat="44.40464" lon="6.31843">
        <ele>1238</ele>
        <time>2018-08-23T11:59:29Z</time>
      </trkpt>
      <trkpt lat="44.40466" lon="6.31852">
        <ele>1237.5999756</ele>
        <time>2018-08-23T11:59:30Z</time>
      </trkpt>
      <trkpt lat="44.40469" lon="6.31859">
        <ele>1237.1999512</ele>
        <time>2018-08-23T11:59:31Z</time>
      </trkpt>
      <trkpt lat="44.40472" lon="6.31866">
        <ele>1236.4000244</ele>
        <time>2018-08-23T11:59:32Z</time>
      </trkpt>
      <trkpt lat="44.40475" lon="6.31872">
        <ele>1235.5999756</ele>
        <time>2018-08-23T11:59:33Z</time>
      </trkpt>
      <trkpt lat="44.40477" lon="6.31878">
        <ele>1235</ele>
        <time>2018-08-23T11:59:34Z</time>
      </trkpt>
      <trkpt lat="44.40479" lon="6.31883">
        <ele>1234.1999512</ele>
        <time>2018-08-23T11:59:35Z</time>
      </trkpt>
      <trkpt lat="44.40478" lon="6.31888">
        <ele>1233.4000244</ele>
        <time>2018-08-23T11:59:36Z</time>
      </trkpt>
      <trkpt lat="44.40476" lon="6.31893">
        <ele>1232.8000488</ele>
        <time>2018-08-23T11:59:37Z</time>
      </trkpt>
      <trkpt lat="44.40474" lon="6.31897">
        <ele>1232.1999512</ele>
        <time>2018-08-23T11:59:38Z</time>
      </trkpt>
      <trkpt lat="44.40471" lon="6.319">
        <ele>1231.5999756</ele>
        <time>2018-08-23T11:59:39Z</time>
      </trkpt>
      <trkpt lat="44.40468" lon="6.319">
        <ele>1231</ele>
        <time>2018-08-23T11:59:40Z</time>
      </trkpt>
      <trkpt lat="44.40464" lon="6.31899">
        <ele>1230.4000244</ele>
        <time>2018-08-23T11:59:41Z</time>
      </trkpt>
      <trkpt lat="44.40461" lon="6.31897">
        <ele>1229.8000488</ele>
        <time>2018-08-23T11:59:42Z</time>
      </trkpt>
      <trkpt lat="44.40458" lon="6.31894">
        <ele>1229.4000244</ele>
        <time>2018-08-23T11:59:43Z</time>
      </trkpt>
      <trkpt lat="44.4043" lon="6.31868">
        <ele>1228.8000488</ele>
        <time>2018-08-23T11:59:53Z</time>
      </trkpt>
      <trkpt lat="44.40396" lon="6.3185">
        <ele>1231</ele>
        <time>2018-08-23T12:00:04Z</time>
      </trkpt>
      <trkpt lat="44.40366" lon="6.31873">
        <ele>1232.8000488</ele>
        <time>2018-08-23T12:00:14Z</time>
      </trkpt>
      <trkpt lat="44.40337" lon="6.31895">
        <ele>1233.5999756</ele>
        <time>2018-08-23T12:00:26Z</time>
      </trkpt>
      <trkpt lat="44.40315" lon="6.31923">
        <ele>1236.8000488</ele>
        <time>2018-08-23T12:00:39Z</time>
      </trkpt>
      <trkpt lat="44.40285" lon="6.31946">
        <ele>1240</ele>
        <time>2018-08-23T12:00:54Z</time>
      </trkpt>
      <trkpt lat="44.40259" lon="6.31976">
        <ele>1243</ele>
        <time>2018-08-23T12:01:09Z</time>
      </trkpt>
      <trkpt lat="44.40231" lon="6.32038">
        <ele>1243.1999512</ele>
        <time>2018-08-23T12:01:23Z</time>
      </trkpt>
      <trkpt lat="44.40228" lon="6.32055">
        <ele>1243.1999512</ele>
        <time>2018-08-23T12:01:26Z</time>
      </trkpt>
      <trkpt lat="44.40226" lon="6.32059">
        <ele>1243</ele>
        <time>2018-08-23T12:01:27Z</time>
      </trkpt>
      <trkpt lat="44.40223" lon="6.32063">
        <ele>1242.8000488</ele>
        <time>2018-08-23T12:01:28Z</time>
      </trkpt>
      <trkpt lat="44.40219" lon="6.32066">
        <ele>1242.8000488</ele>
        <time>2018-08-23T12:01:29Z</time>
      </trkpt>
      <trkpt lat="44.40216" lon="6.32069">
        <ele>1242.8000488</ele>
        <time>2018-08-23T12:01:30Z</time>
      </trkpt>
      <trkpt lat="44.40212" lon="6.3207">
        <ele>1242.8000488</ele>
        <time>2018-08-23T12:01:31Z</time>
      </trkpt>
      <trkpt lat="44.40208" lon="6.32071">
        <ele>1242.5999756</ele>
        <time>2018-08-23T12:01:32Z</time>
      </trkpt>
      <trkpt lat="44.40205" lon="6.32072">
        <ele>1242.1999512</ele>
        <time>2018-08-23T12:01:33Z</time>
      </trkpt>
      <trkpt lat="44.40182" lon="6.32101">
        <ele>1241.5999756</ele>
        <time>2018-08-23T12:01:41Z</time>
      </trkpt>
      <trkpt lat="44.4016" lon="6.32136">
        <ele>1241.1999512</ele>
        <time>2018-08-23T12:01:50Z</time>
      </trkpt>
      <trkpt lat="44.40156" lon="6.32135">
        <ele>1241.1999512</ele>
        <time>2018-08-23T12:01:51Z</time>
      </trkpt>
      <trkpt lat="44.40153" lon="6.32132">
        <ele>1241.1999512</ele>
        <time>2018-08-23T12:01:52Z</time>
      </trkpt>
      <trkpt lat="44.4015" lon="6.32128">
        <ele>1241.1999512</ele>
        <time>2018-08-23T12:01:53Z</time>
      </trkpt>
      <trkpt lat="44.40148" lon="6.32123">
        <ele>1241</ele>
        <time>2018-08-23T12:01:54Z</time>
      </trkpt>
      <trkpt lat="44.40146" lon="6.32119">
        <ele>1240.8000488</ele>
        <time>2018-08-23T12:01:55Z</time>
      </trkpt>
      <trkpt lat="44.40113" lon="6.32078">
        <ele>1240.5999756</ele>
        <time>2018-08-23T12:02:07Z</time>
      </trkpt>
      <trkpt lat="44.40087" lon="6.32051">
        <ele>1242.1999512</ele>
        <time>2018-08-23T12:02:15Z</time>
      </trkpt>
      <trkpt lat="44.40083" lon="6.32048">
        <ele>1242.1999512</ele>
        <time>2018-08-23T12:02:16Z</time>
      </trkpt>
      <trkpt lat="44.40078" lon="6.32046">
        <ele>1242.1999512</ele>
        <time>2018-08-23T12:02:17Z</time>
      </trkpt>
      <trkpt lat="44.40073" lon="6.32044">
        <ele>1242.1999512</ele>
        <time>2018-08-23T12:02:18Z</time>
      </trkpt>
      <trkpt lat="44.40069" lon="6.32043">
        <ele>1242.1999512</ele>
        <time>2018-08-23T12:02:19Z</time>
      </trkpt>
      <trkpt lat="44.40064" lon="6.32043">
        <ele>1242.1999512</ele>
        <time>2018-08-23T12:02:20Z</time>
      </trkpt>
      <trkpt lat="44.40059" lon="6.32043">
        <ele>1242.1999512</ele>
        <time>2018-08-23T12:02:21Z</time>
      </trkpt>
      <trkpt lat="44.40033" lon="6.32046">
        <ele>1242.1999512</ele>
        <time>2018-08-23T12:02:27Z</time>
      </trkpt>
      <trkpt lat="44.40029" lon="6.32047">
        <ele>1242.1999512</ele>
        <time>2018-08-23T12:02:28Z</time>
      </trkpt>
      <trkpt lat="44.4001" lon="6.32054">
        <ele>1241.8000488</ele>
        <time>2018-08-23T12:02:32Z</time>
      </trkpt>
      <trkpt lat="44.40006" lon="6.32054">
        <ele>1241.5999756</ele>
        <time>2018-08-23T12:02:33Z</time>
      </trkpt>
      <trkpt lat="44.40001" lon="6.32054">
        <ele>1241.5999756</ele>
        <time>2018-08-23T12:02:34Z</time>
      </trkpt>
      <trkpt lat="44.39996" lon="6.32052">
        <ele>1241.5999756</ele>
        <time>2018-08-23T12:02:35Z</time>
      </trkpt>
      <trkpt lat="44.39992" lon="6.3205">
        <ele>1241.5999756</ele>
        <time>2018-08-23T12:02:36Z</time>
      </trkpt>
      <trkpt lat="44.39987" lon="6.32048">
        <ele>1241.4000244</ele>
        <time>2018-08-23T12:02:37Z</time>
      </trkpt>
      <trkpt lat="44.39947" lon="6.32023">
        <ele>1241.1999512</ele>
        <time>2018-08-23T12:02:47Z</time>
      </trkpt>
      <trkpt lat="44.3991" lon="6.32017">
        <ele>1241.4000244</ele>
        <time>2018-08-23T12:02:55Z</time>
      </trkpt>
      <trkpt lat="44.39876" lon="6.3203">
        <ele>1240.1999512</ele>
        <time>2018-08-23T12:03:04Z</time>
      </trkpt>
      <trkpt lat="44.39872" lon="6.32033">
        <ele>1239.8000488</ele>
        <time>2018-08-23T12:03:05Z</time>
      </trkpt>
      <trkpt lat="44.39866" lon="6.32035">
        <ele>1239.5999756</ele>
        <time>2018-08-23T12:03:06Z</time>
      </trkpt>
      <trkpt lat="44.39861" lon="6.32038">
        <ele>1239.1999512</ele>
        <time>2018-08-23T12:03:07Z</time>
      </trkpt>
      <trkpt lat="44.3978" lon="6.3208">
        <ele>1237.4000244</ele>
        <time>2018-08-23T12:03:20Z</time>
      </trkpt>
      <trkpt lat="44.39714" lon="6.3213">
        <ele>1235.5999756</ele>
        <time>2018-08-23T12:03:32Z</time>
      </trkpt>
      <trkpt lat="44.3966" lon="6.32186">
        <ele>1234.5999756</ele>
        <time>2018-08-23T12:03:43Z</time>
      </trkpt>
      <trkpt lat="44.39599" lon="6.32242">
        <ele>1234</ele>
        <time>2018-08-23T12:03:55Z</time>
      </trkpt>
      <trkpt lat="44.39583" lon="6.32251">
        <ele>1233.8000488</ele>
        <time>2018-08-23T12:03:58Z</time>
      </trkpt>
      <trkpt lat="44.39577" lon="6.32253">
        <ele>1233.8000488</ele>
        <time>2018-08-23T12:03:59Z</time>
      </trkpt>
      <trkpt lat="44.39559" lon="6.32257">
        <ele>1233</ele>
        <time>2018-08-23T12:04:02Z</time>
      </trkpt>
      <trkpt lat="44.39553" lon="6.32257">
        <ele>1232.8000488</ele>
        <time>2018-08-23T12:04:03Z</time>
      </trkpt>
      <trkpt lat="44.39548" lon="6.32255">
        <ele>1232.5999756</ele>
        <time>2018-08-23T12:04:04Z</time>
      </trkpt>
      <trkpt lat="44.39543" lon="6.32252">
        <ele>1232.5999756</ele>
        <time>2018-08-23T12:04:05Z</time>
      </trkpt>
      <trkpt lat="44.39537" lon="6.32249">
        <ele>1232.4000244</ele>
        <time>2018-08-23T12:04:06Z</time>
      </trkpt>
      <trkpt lat="44.39532" lon="6.32247">
        <ele>1232.1999512</ele>
        <time>2018-08-23T12:04:07Z</time>
      </trkpt>
      <trkpt lat="44.39526" lon="6.32245">
        <ele>1232</ele>
        <time>2018-08-23T12:04:08Z</time>
      </trkpt>
      <trkpt lat="44.3952" lon="6.32244">
        <ele>1231.5999756</ele>
        <time>2018-08-23T12:04:09Z</time>
      </trkpt>
      <trkpt lat="44.39502" lon="6.3224">
        <ele>1231.1999512</ele>
        <time>2018-08-23T12:04:12Z</time>
      </trkpt>
      <trkpt lat="44.39488" lon="6.32234">
        <ele>1229.8000488</ele>
        <time>2018-08-23T12:04:20Z</time>
      </trkpt>
      <trkpt lat="44.39487" lon="6.32234">
        <ele>1227.8000488</ele>
        <time>2018-08-23T12:05:09Z</time>
      </trkpt>
      <trkpt lat="44.39484" lon="6.32232">
        <ele>1227.5999756</ele>
        <time>2018-08-23T12:05:13Z</time>
      </trkpt>
      <trkpt lat="44.39482" lon="6.32231">
        <ele>1227.5999756</ele>
        <time>2018-08-23T12:05:14Z</time>
      </trkpt>
      <trkpt lat="44.39479" lon="6.3223">
        <ele>1227.5999756</ele>
        <time>2018-08-23T12:05:15Z</time>
      </trkpt>
      <trkpt lat="44.39476" lon="6.32228">
        <ele>1227.5999756</ele>
        <time>2018-08-23T12:05:16Z</time>
      </trkpt>
      <trkpt lat="44.39472" lon="6.32225">
        <ele>1227.5999756</ele>
        <time>2018-08-23T12:05:17Z</time>
      </trkpt>
      <trkpt lat="44.39421" lon="6.32171">
        <ele>1228.8000488</ele>
        <time>2018-08-23T12:05:30Z</time>
      </trkpt>
      <trkpt lat="44.39372" lon="6.32129">
        <ele>1231.4000244</ele>
        <time>2018-08-23T12:05:40Z</time>
      </trkpt>
      <trkpt lat="44.3932" lon="6.32095">
        <ele>1233.1999512</ele>
        <time>2018-08-23T12:05:52Z</time>
      </trkpt>
      <trkpt lat="44.39279" lon="6.3206">
        <ele>1236</ele>
        <time>2018-08-23T12:06:03Z</time>
      </trkpt>
      <trkpt lat="44.39227" lon="6.32022">
        <ele>1237.1999512</ele>
        <time>2018-08-23T12:06:15Z</time>
      </trkpt>
      <trkpt lat="44.39201" lon="6.32">
        <ele>1237.4000244</ele>
        <time>2018-08-23T12:06:21Z</time>
      </trkpt>
      <trkpt lat="44.39196" lon="6.31998">
        <ele>1237.4000244</ele>
        <time>2018-08-23T12:06:22Z</time>
      </trkpt>
      <trkpt lat="44.3919" lon="6.31997">
        <ele>1237.5999756</ele>
        <time>2018-08-23T12:06:23Z</time>
      </trkpt>
      <trkpt lat="44.39179" lon="6.31996">
        <ele>1237.5999756</ele>
        <time>2018-08-23T12:06:25Z</time>
      </trkpt>
      <trkpt lat="44.39168" lon="6.32273">
        <ele>1204.8000488</ele>
        <time>2018-08-23T12:32:13Z</time>
      </trkpt>
      <trkpt lat="44.39162" lon="6.32278">
        <ele>1204.8000488</ele>
        <time>2018-08-23T12:32:14Z</time>
      </trkpt>
      <trkpt lat="44.3915" lon="6.32288">
        <ele>1202.1999512</ele>
        <time>2018-08-23T12:32:16Z</time>
      </trkpt>
      <trkpt lat="44.39146" lon="6.3229">
        <ele>1201.5999756</ele>
        <time>2018-08-23T12:32:17Z</time>
      </trkpt>
      <trkpt lat="44.3914" lon="6.32292">
        <ele>1201</ele>
        <time>2018-08-23T12:32:18Z</time>
      </trkpt>
      <trkpt lat="44.39134" lon="6.32295">
        <ele>1200.1999512</ele>
        <time>2018-08-23T12:32:19Z</time>
      </trkpt>
      <trkpt lat="44.39127" lon="6.32297">
        <ele>1199.1999512</ele>
        <time>2018-08-23T12:32:20Z</time>
      </trkpt>
      <trkpt lat="44.39105" lon="6.32304">
        <ele>1196.5999756</ele>
        <time>2018-08-23T12:32:23Z</time>
      </trkpt>
      <trkpt lat="44.39099" lon="6.32308">
        <ele>1196.1999512</ele>
        <time>2018-08-23T12:32:24Z</time>
      </trkpt>
      <trkpt lat="44.39084" lon="6.32318">
        <ele>1195</ele>
        <time>2018-08-23T12:32:27Z</time>
      </trkpt>
      <trkpt lat="44.3908" lon="6.32322">
        <ele>1194.5999756</ele>
        <time>2018-08-23T12:32:28Z</time>
      </trkpt>
      <trkpt lat="44.39077" lon="6.32327">
        <ele>1194.1999512</ele>
        <time>2018-08-23T12:32:29Z</time>
      </trkpt>
      <trkpt lat="44.39074" lon="6.32337">
        <ele>1193.1999512</ele>
        <time>2018-08-23T12:32:31Z</time>
      </trkpt>
      <trkpt lat="44.39073" lon="6.32343">
        <ele>1192.8000488</ele>
        <time>2018-08-23T12:32:32Z</time>
      </trkpt>
      <trkpt lat="44.39076" lon="6.32349">
        <ele>1192.1999512</ele>
        <time>2018-08-23T12:32:33Z</time>
      </trkpt>
      <trkpt lat="44.39079" lon="6.32354">
        <ele>1191.5999756</ele>
        <time>2018-08-23T12:32:34Z</time>
      </trkpt>
      <trkpt lat="44.39084" lon="6.32361">
        <ele>1191</ele>
        <time>2018-08-23T12:32:35Z</time>
      </trkpt>
      <trkpt lat="44.39089" lon="6.32367">
        <ele>1190.4000244</ele>
        <time>2018-08-23T12:32:36Z</time>
      </trkpt>
      <trkpt lat="44.39092" lon="6.32372">
        <ele>1188.8000488</ele>
        <time>2018-08-23T12:32:37Z</time>
      </trkpt>
      <trkpt lat="44.39096" lon="6.32376">
        <ele>1188.8000488</ele>
        <time>2018-08-23T12:32:38Z</time>
      </trkpt>
      <trkpt lat="44.39101" lon="6.3238">
        <ele>1187.4000244</ele>
        <time>2018-08-23T12:32:39Z</time>
      </trkpt>
      <trkpt lat="44.39106" lon="6.32383">
        <ele>1186.5999756</ele>
        <time>2018-08-23T12:32:40Z</time>
      </trkpt>
      <trkpt lat="44.39111" lon="6.32386">
        <ele>1186.1999512</ele>
        <time>2018-08-23T12:32:41Z</time>
      </trkpt>
      <trkpt lat="44.39126" lon="6.32393">
        <ele>1185</ele>
        <time>2018-08-23T12:32:45Z</time>
      </trkpt>
      <trkpt lat="44.3913" lon="6.32395">
        <ele>1184.8000488</ele>
        <time>2018-08-23T12:32:46Z</time>
      </trkpt>
      <trkpt lat="44.39132" lon="6.32399">
        <ele>1184.5999756</ele>
        <time>2018-08-23T12:32:47Z</time>
      </trkpt>
      <trkpt lat="44.39134" lon="6.32403">
        <ele>1184.4000244</ele>
        <time>2018-08-23T12:32:48Z</time>
      </trkpt>
      <trkpt lat="44.39136" lon="6.32409">
        <ele>1183.8000488</ele>
        <time>2018-08-23T12:32:49Z</time>
      </trkpt>
      <trkpt lat="44.39135" lon="6.32414">
        <ele>1183</ele>
        <time>2018-08-23T12:32:50Z</time>
      </trkpt>
      <trkpt lat="44.39139" lon="6.32426">
        <ele>1182.4000244</ele>
        <time>2018-08-23T12:32:51Z</time>
      </trkpt>
      <trkpt lat="44.39139" lon="6.32436">
        <ele>1181.5999756</ele>
        <time>2018-08-23T12:32:52Z</time>
      </trkpt>
      <trkpt lat="44.39137" lon="6.32444">
        <ele>1181</ele>
        <time>2018-08-23T12:32:53Z</time>
      </trkpt>
      <trkpt lat="44.39132" lon="6.32451">
        <ele>1180.5999756</ele>
        <time>2018-08-23T12:32:54Z</time>
      </trkpt>
      <trkpt lat="44.3912" lon="6.32452">
        <ele>1180</ele>
        <time>2018-08-23T12:32:55Z</time>
      </trkpt>
      <trkpt lat="44.39112" lon="6.32457">
        <ele>1179.5999756</ele>
        <time>2018-08-23T12:32:56Z</time>
      </trkpt>
      <trkpt lat="44.39106" lon="6.32462">
        <ele>1179</ele>
        <time>2018-08-23T12:32:57Z</time>
      </trkpt>
      <trkpt lat="44.391" lon="6.32468">
        <ele>1178.5999756</ele>
        <time>2018-08-23T12:32:58Z</time>
      </trkpt>
      <trkpt lat="44.39095" lon="6.32474">
        <ele>1178.1999512</ele>
        <time>2018-08-23T12:32:59Z</time>
      </trkpt>
      <trkpt lat="44.39091" lon="6.32481">
        <ele>1178</ele>
        <time>2018-08-23T12:33:00Z</time>
      </trkpt>
      <trkpt lat="44.39087" lon="6.32488">
        <ele>1177.5999756</ele>
        <time>2018-08-23T12:33:01Z</time>
      </trkpt>
      <trkpt lat="44.39083" lon="6.32498">
        <ele>1177.4000244</ele>
        <time>2018-08-23T12:33:02Z</time>
      </trkpt>
      <trkpt lat="44.3908" lon="6.32508">
        <ele>1176</ele>
        <time>2018-08-23T12:33:03Z</time>
      </trkpt>
      <trkpt lat="44.39077" lon="6.32518">
        <ele>1176</ele>
        <time>2018-08-23T12:33:04Z</time>
      </trkpt>
      <trkpt lat="44.39074" lon="6.3253">
        <ele>1174.5999756</ele>
        <time>2018-08-23T12:33:05Z</time>
      </trkpt>
      <trkpt lat="44.39072" lon="6.32541">
        <ele>1173.5999756</ele>
        <time>2018-08-23T12:33:06Z</time>
      </trkpt>
      <trkpt lat="44.39062" lon="6.32569">
        <ele>1171.5999756</ele>
        <time>2018-08-23T12:33:09Z</time>
      </trkpt>
      <trkpt lat="44.39058" lon="6.32578">
        <ele>1171</ele>
        <time>2018-08-23T12:33:10Z</time>
      </trkpt>
      <trkpt lat="44.39045" lon="6.32601">
        <ele>1169.8000488</ele>
        <time>2018-08-23T12:33:13Z</time>
      </trkpt>
      <trkpt lat="44.39037" lon="6.32607">
        <ele>1169.4000244</ele>
        <time>2018-08-23T12:33:14Z</time>
      </trkpt>
      <trkpt lat="44.39029" lon="6.32611">
        <ele>1169.4000244</ele>
        <time>2018-08-23T12:33:15Z</time>
      </trkpt>
      <trkpt lat="44.39021" lon="6.32614">
        <ele>1168.8000488</ele>
        <time>2018-08-23T12:33:16Z</time>
      </trkpt>
      <trkpt lat="44.39014" lon="6.32618">
        <ele>1168.4000244</ele>
        <time>2018-08-23T12:33:17Z</time>
      </trkpt>
      <trkpt lat="44.39006" lon="6.32623">
        <ele>1168.1999512</ele>
        <time>2018-08-23T12:33:18Z</time>
      </trkpt>
      <trkpt lat="44.39" lon="6.32627">
        <ele>1167.8000488</ele>
        <time>2018-08-23T12:33:19Z</time>
      </trkpt>
      <trkpt lat="44.38984" lon="6.32642">
        <ele>1167.4000244</ele>
        <time>2018-08-23T12:33:22Z</time>
      </trkpt>
      <trkpt lat="44.38978" lon="6.32645">
        <ele>1167.4000244</ele>
        <time>2018-08-23T12:33:23Z</time>
      </trkpt>
      <trkpt lat="44.38971" lon="6.32647">
        <ele>1167.4000244</ele>
        <time>2018-08-23T12:33:24Z</time>
      </trkpt>
      <trkpt lat="44.38964" lon="6.32649">
        <ele>1167.4000244</ele>
        <time>2018-08-23T12:33:25Z</time>
      </trkpt>
      <trkpt lat="44.38958" lon="6.32649">
        <ele>1167.4000244</ele>
        <time>2018-08-23T12:33:26Z</time>
      </trkpt>
      <trkpt lat="44.38947" lon="6.32648">
        <ele>1167.4000244</ele>
        <time>2018-08-23T12:33:27Z</time>
      </trkpt>
      <trkpt lat="44.38938" lon="6.32644">
        <ele>1167.4000244</ele>
        <time>2018-08-23T12:33:28Z</time>
      </trkpt>
      <trkpt lat="44.38929" lon="6.32639">
        <ele>1167.1999512</ele>
        <time>2018-08-23T12:33:29Z</time>
      </trkpt>
      <trkpt lat="44.3892" lon="6.32635">
        <ele>1167.1999512</ele>
        <time>2018-08-23T12:33:30Z</time>
      </trkpt>
      <trkpt lat="44.38907" lon="6.32631">
        <ele>1167.1999512</ele>
        <time>2018-08-23T12:33:31Z</time>
      </trkpt>
      <trkpt lat="44.38898" lon="6.3263">
        <ele>1167.1999512</ele>
        <time>2018-08-23T12:33:32Z</time>
      </trkpt>
      <trkpt lat="44.38873" lon="6.32628">
        <ele>1166.8000488</ele>
        <time>2018-08-23T12:33:35Z</time>
      </trkpt>
      <trkpt lat="44.38865" lon="6.3263">
        <ele>1166.4000244</ele>
        <time>2018-08-23T12:33:36Z</time>
      </trkpt>
      <trkpt lat="44.38858" lon="6.32633">
        <ele>1166.1999512</ele>
        <time>2018-08-23T12:33:37Z</time>
      </trkpt>
      <trkpt lat="44.38851" lon="6.32637">
        <ele>1165.5999756</ele>
        <time>2018-08-23T12:33:38Z</time>
      </trkpt>
      <trkpt lat="44.38845" lon="6.3264">
        <ele>1165.1999512</ele>
        <time>2018-08-23T12:33:39Z</time>
      </trkpt>
      <trkpt lat="44.38782" lon="6.32695">
        <ele>1164.4000244</ele>
        <time>2018-08-23T12:33:51Z</time>
      </trkpt>
      <trkpt lat="44.38749" lon="6.32742">
        <ele>1164.1999512</ele>
        <time>2018-08-23T12:34:01Z</time>
      </trkpt>
      <trkpt lat="44.38738" lon="6.32749">
        <ele>1163.8000488</ele>
        <time>2018-08-23T12:34:12Z</time>
      </trkpt>
      <trkpt lat="44.38735" lon="6.32749">
        <ele>1163.8000488</ele>
        <time>2018-08-23T12:34:13Z</time>
      </trkpt>
      <trkpt lat="44.38731" lon="6.32747">
        <ele>1164</ele>
        <time>2018-08-23T12:34:14Z</time>
      </trkpt>
      <trkpt lat="44.38727" lon="6.32747">
        <ele>1164</ele>
        <time>2018-08-23T12:34:15Z</time>
      </trkpt>
      <trkpt lat="44.38723" lon="6.32746">
        <ele>1164</ele>
        <time>2018-08-23T12:34:16Z</time>
      </trkpt>
      <trkpt lat="44.38665" lon="6.32754">
        <ele>1162.5999756</ele>
        <time>2018-08-23T12:34:28Z</time>
      </trkpt>
      <trkpt lat="44.38617" lon="6.32769">
        <ele>1159.4000244</ele>
        <time>2018-08-23T12:34:42Z</time>
      </trkpt>
      <trkpt lat="44.38588" lon="6.32783">
        <ele>1156.4000244</ele>
        <time>2018-08-23T12:34:52Z</time>
      </trkpt>
      <trkpt lat="44.38568" lon="6.32787">
        <ele>1154.1999512</ele>
        <time>2018-08-23T12:34:57Z</time>
      </trkpt>
      <trkpt lat="44.38559" lon="6.3275">
        <ele>1151.5999756</ele>
        <time>2018-08-23T12:35:07Z</time>
      </trkpt>
      <trkpt lat="44.38539" lon="6.32731">
        <ele>1150</ele>
        <time>2018-08-23T12:35:19Z</time>
      </trkpt>
      <trkpt lat="44.38541" lon="6.32732">
        <ele>1147.4000244</ele>
        <time>2018-08-23T12:35:38Z</time>
      </trkpt>
      <trkpt lat="44.38548" lon="6.32734">
        <ele>1147.4000244</ele>
        <time>2018-08-23T12:35:42Z</time>
      </trkpt>
      <trkpt lat="44.38554" lon="6.32734">
        <ele>1147.4000244</ele>
        <time>2018-08-23T12:35:44Z</time>
      </trkpt>
      <trkpt lat="44.38562" lon="6.32744">
        <ele>1149.8000488</ele>
        <time>2018-08-23T12:35:55Z</time>
      </trkpt>
      <trkpt lat="44.38562" lon="6.32767">
        <ele>1150.4000244</ele>
        <time>2018-08-23T12:36:15Z</time>
      </trkpt>
      <trkpt lat="44.38566" lon="6.3278">
        <ele>1150.5999756</ele>
        <time>2018-08-23T12:36:24Z</time>
      </trkpt>
      <trkpt lat="44.38561" lon="6.32788">
        <ele>1150.8000488</ele>
        <time>2018-08-23T12:36:46Z</time>
      </trkpt>
      <trkpt lat="44.38552" lon="6.32782">
        <ele>1150</ele>
        <time>2018-08-23T12:36:55Z</time>
      </trkpt>
      <trkpt lat="44.38544" lon="6.32781">
        <ele>1148.8000488</ele>
        <time>2018-08-23T12:37:07Z</time>
      </trkpt>
      <trkpt lat="44.38521" lon="6.32783">
        <ele>1145.8000488</ele>
        <time>2018-08-23T12:37:28Z</time>
      </trkpt>
      <trkpt lat="44.38518" lon="6.32779">
        <ele>1145.1999512</ele>
        <time>2018-08-23T12:37:35Z</time>
      </trkpt>
      <trkpt lat="44.38506" lon="6.32788">
        <ele>1142</ele>
        <time>2018-08-23T12:38:03Z</time>
      </trkpt>
      <trkpt lat="44.38493" lon="6.32793">
        <ele>1139.8000488</ele>
        <time>2018-08-23T12:38:44Z</time>
      </trkpt>
      <trkpt lat="44.3849" lon="6.32793">
        <ele>1139.8000488</ele>
        <time>2018-08-23T12:38:51Z</time>
      </trkpt>
      <trkpt lat="44.38481" lon="6.32787">
        <ele>1139.8000488</ele>
        <time>2018-08-23T12:38:55Z</time>
      </trkpt>
      <trkpt lat="44.38418" lon="6.32739">
        <ele>1139.8000488</ele>
        <time>2018-08-23T12:39:06Z</time>
      </trkpt>
      <trkpt lat="44.38334" lon="6.32704">
        <ele>1136.4000244</ele>
        <time>2018-08-23T12:39:15Z</time>
      </trkpt>
      <trkpt lat="44.38257" lon="6.327">
        <ele>1133.1999512</ele>
        <time>2018-08-23T12:39:22Z</time>
      </trkpt>
      <trkpt lat="44.38189" lon="6.32701">
        <ele>1129.8000488</ele>
        <time>2018-08-23T12:39:28Z</time>
      </trkpt>
      <trkpt lat="44.38134" lon="6.3269">
        <ele>1126.8000488</ele>
        <time>2018-08-23T12:39:33Z</time>
      </trkpt>
      <trkpt lat="44.38079" lon="6.32673">
        <ele>1123.4000244</ele>
        <time>2018-08-23T12:39:38Z</time>
      </trkpt>
      <trkpt lat="44.38006" lon="6.32676">
        <ele>1120</ele>
        <time>2018-08-23T12:39:45Z</time>
      </trkpt>
      <trkpt lat="44.37947" lon="6.32693">
        <ele>1117.5999756</ele>
        <time>2018-08-23T12:39:51Z</time>
      </trkpt>
      <trkpt lat="44.3784" lon="6.32693">
        <ele>1114.8000488</ele>
        <time>2018-08-23T12:40:03Z</time>
      </trkpt>
      <trkpt lat="44.37802" lon="6.32677">
        <ele>1113.4000244</ele>
        <time>2018-08-23T12:40:08Z</time>
      </trkpt>
      <trkpt lat="44.37784" lon="6.32661">
        <ele>1113.1999512</ele>
        <time>2018-08-23T12:40:11Z</time>
      </trkpt>
      <trkpt lat="44.3772" lon="6.32571">
        <ele>1112.1999512</ele>
        <time>2018-08-23T12:40:23Z</time>
      </trkpt>
      <trkpt lat="44.37661" lon="6.32484">
        <ele>1111</ele>
        <time>2018-08-23T12:40:36Z</time>
      </trkpt>
      <trkpt lat="44.37596" lon="6.32387">
        <ele>1109.5999756</ele>
        <time>2018-08-23T12:40:52Z</time>
      </trkpt>
      <trkpt lat="44.37547" lon="6.32277">
        <ele>1109.1999512</ele>
        <time>2018-08-23T12:41:08Z</time>
      </trkpt>
      <trkpt lat="44.37508" lon="6.32174">
        <ele>1108.5999756</ele>
        <time>2018-08-23T12:41:23Z</time>
      </trkpt>
      <trkpt lat="44.37486" lon="6.32129">
        <ele>1108.1999512</ele>
        <time>2018-08-23T12:41:30Z</time>
      </trkpt>
      <trkpt lat="44.37422" lon="6.32057">
        <ele>1107.8000488</ele>
        <time>2018-08-23T12:41:45Z</time>
      </trkpt>
      <trkpt lat="44.37356" lon="6.31979">
        <ele>1107.1999512</ele>
        <time>2018-08-23T12:42:01Z</time>
      </trkpt>
      <trkpt lat="44.37279" lon="6.31886">
        <ele>1106.8000488</ele>
        <time>2018-08-23T12:42:17Z</time>
      </trkpt>
      <trkpt lat="44.37218" lon="6.31778">
        <ele>1104</ele>
        <time>2018-08-23T12:42:31Z</time>
      </trkpt>
      <trkpt lat="44.37167" lon="6.31689">
        <ele>1102.5999756</ele>
        <time>2018-08-23T12:42:43Z</time>
      </trkpt>
      <trkpt lat="44.37132" lon="6.31557">
        <ele>1100</ele>
        <time>2018-08-23T12:42:57Z</time>
      </trkpt>
      <trkpt lat="44.37107" lon="6.3147">
        <ele>1098.1999512</ele>
        <time>2018-08-23T12:43:07Z</time>
      </trkpt>
      <trkpt lat="44.37103" lon="6.31463">
        <ele>1098</ele>
        <time>2018-08-23T12:43:08Z</time>
      </trkpt>
      <trkpt lat="44.371" lon="6.31456">
        <ele>1097.8000488</ele>
        <time>2018-08-23T12:43:09Z</time>
      </trkpt>
      <trkpt lat="44.37098" lon="6.31447">
        <ele>1097.8000488</ele>
        <time>2018-08-23T12:43:10Z</time>
      </trkpt>
      <trkpt lat="44.37096" lon="6.31437">
        <ele>1097.5999756</ele>
        <time>2018-08-23T12:43:11Z</time>
      </trkpt>
      <trkpt lat="44.37095" lon="6.31427">
        <ele>1097.4000244</ele>
        <time>2018-08-23T12:43:12Z</time>
      </trkpt>
      <trkpt lat="44.37094" lon="6.31417">
        <ele>1097.1999512</ele>
        <time>2018-08-23T12:43:13Z</time>
      </trkpt>
      <trkpt lat="44.37095" lon="6.31407">
        <ele>1096.8000488</ele>
        <time>2018-08-23T12:43:14Z</time>
      </trkpt>
      <trkpt lat="44.37096" lon="6.31395">
        <ele>1096.1999512</ele>
        <time>2018-08-23T12:43:15Z</time>
      </trkpt>
      <trkpt lat="44.37098" lon="6.31385">
        <ele>1096.1999512</ele>
        <time>2018-08-23T12:43:16Z</time>
      </trkpt>
      <trkpt lat="44.371" lon="6.31374">
        <ele>1095.5999756</ele>
        <time>2018-08-23T12:43:17Z</time>
      </trkpt>
      <trkpt lat="44.37113" lon="6.31338">
        <ele>1094.8000488</ele>
        <time>2018-08-23T12:43:21Z</time>
      </trkpt>
      <trkpt lat="44.37117" lon="6.3133">
        <ele>1094.4000244</ele>
        <time>2018-08-23T12:43:22Z</time>
      </trkpt>
      <trkpt lat="44.37123" lon="6.31324">
        <ele>1094</ele>
        <time>2018-08-23T12:43:23Z</time>
      </trkpt>
      <trkpt lat="44.37129" lon="6.31319">
        <ele>1093.5999756</ele>
        <time>2018-08-23T12:43:24Z</time>
      </trkpt>
      <trkpt lat="44.37137" lon="6.31315">
        <ele>1093</ele>
        <time>2018-08-23T12:43:25Z</time>
      </trkpt>
      <trkpt lat="44.37146" lon="6.31313">
        <ele>1092.5999756</ele>
        <time>2018-08-23T12:43:26Z</time>
      </trkpt>
      <trkpt lat="44.37153" lon="6.3131">
        <ele>1092.1999512</ele>
        <time>2018-08-23T12:43:27Z</time>
      </trkpt>
      <trkpt lat="44.3718" lon="6.31292">
        <ele>1091.1999512</ele>
        <time>2018-08-23T12:43:32Z</time>
      </trkpt>
      <trkpt lat="44.3718" lon="6.31285">
        <ele>1091</ele>
        <time>2018-08-23T12:43:33Z</time>
      </trkpt>
      <trkpt lat="44.37179" lon="6.31278">
        <ele>1090.5999756</ele>
        <time>2018-08-23T12:43:34Z</time>
      </trkpt>
      <trkpt lat="44.37177" lon="6.31271">
        <ele>1090.4000244</ele>
        <time>2018-08-23T12:43:35Z</time>
      </trkpt>
      <trkpt lat="44.37176" lon="6.31264">
        <ele>1089.5999756</ele>
        <time>2018-08-23T12:43:36Z</time>
      </trkpt>
      <trkpt lat="44.37172" lon="6.31252">
        <ele>1088.1999512</ele>
        <time>2018-08-23T12:43:38Z</time>
      </trkpt>
      <trkpt lat="44.3717" lon="6.31246">
        <ele>1087.5999756</ele>
        <time>2018-08-23T12:43:39Z</time>
      </trkpt>
      <trkpt lat="44.37167" lon="6.31242">
        <ele>1087</ele>
        <time>2018-08-23T12:43:40Z</time>
      </trkpt>
      <trkpt lat="44.37164" lon="6.31239">
        <ele>1086.4000244</ele>
        <time>2018-08-23T12:43:41Z</time>
      </trkpt>
      <trkpt lat="44.37162" lon="6.31236">
        <ele>1086.1999512</ele>
        <time>2018-08-23T12:43:42Z</time>
      </trkpt>
      <trkpt lat="44.37151" lon="6.31232">
        <ele>1086</ele>
        <time>2018-08-23T12:43:46Z</time>
      </trkpt>
      <trkpt lat="44.37149" lon="6.31233">
        <ele>1085.8000488</ele>
        <time>2018-08-23T12:43:47Z</time>
      </trkpt>
      <trkpt lat="44.37147" lon="6.31237">
        <ele>1085.8000488</ele>
        <time>2018-08-23T12:43:48Z</time>
      </trkpt>
      <trkpt lat="44.37146" lon="6.3124">
        <ele>1085.8000488</ele>
        <time>2018-08-23T12:43:49Z</time>
      </trkpt>
      <trkpt lat="44.37146" lon="6.31244">
        <ele>1085.8000488</ele>
        <time>2018-08-23T12:43:50Z</time>
      </trkpt>
      <trkpt lat="44.3715" lon="6.31245">
        <ele>1085</ele>
        <time>2018-08-23T12:44:04Z</time>
      </trkpt>
      <trkpt lat="44.37146" lon="6.31247">
        <ele>1084.8000488</ele>
        <time>2018-08-23T12:45:03Z</time>
      </trkpt>
      <trkpt lat="44.37146" lon="6.3125">
        <ele>1084.8000488</ele>
        <time>2018-08-23T12:45:28Z</time>
      </trkpt>
      <trkpt lat="44.37143" lon="6.31249">
        <ele>1084.8000488</ele>
        <time>2018-08-23T12:45:39Z</time>
      </trkpt>
    </trkseg>
  </trk>
</gpx>